[[{"header":{"parameterUnit":"m.s-1","parameterCategory":1,"la1":30.6,"la2":29.2853,"lo1":-89.7004,"lo2":-87.6739,"dy":0.0162,"dx":0.0183,"nx":112,"ny":82,"refTime":"2024-09-20T12:00:00:Z","depth":0,"parameterNumber":2,"parameterNumberName":"U-component_of_WINDS"},"data":[0.0,0.0,0.0,0.0,0.0,0.0,0.0,0.0,0.0,0.0,0.0,0.0,0.0,0.0,0.0,0.0,0.0,0.0,0.0,0.0,0.0,0.0,0.0,0.0,0.0,0.0,0.0,0.0,0.0,0.0,0.0,0.0,0.0,0.0,0.0,0.0,0.0,0.0,0.0,0.0,0.0,0.0,0.0,0.0,0.0,0.0,0.0,0.0,0.0,0.0,0.0,0.0,0.0,0.0,0.0,0.0,0.0,0.0,0.0,0.0,0.0,0.0,0.0,0.0,0.0,0.0,0.0,0.0,0.0,0.0,0.0,0.0,0.0,0.0,0.0,0.0,0.0,0.0,0.0,0.0,0.0,0.0,0.0,0.0,0.0,0.0,0.0,0.0,0.0,0.0,0.0,-3.1879,-3.2684,-3.3275,-3.3677,-3.3572,-3.2464,-3.0067,0.0,0.0,0.0,0.0,0.0,0.0,0.0,0.0,0.0,0.0,0.0,0.0,0.0,0.0,0.0,0.0,0.0,0.0,0.0,0.0,0.0,0.0,0.0,0.0,0.0,0.0,0.0,0.0,0.0,0.0,0.0,0.0,0.0,0.0,0.0,0.0,0.0,0.0,0.0,0.0,0.0,0.0,0.0,0.0,0.0,0.0,0.0,0.0,0.0,0.0,0.0,0.0,0.0,0.0,0.0,0.0,0.0,0.0,0.0,0.0,0.0,0.0,0.0,0.0,0.0,0.0,0.0,0.0,0.0,0.0,0.0,0.0,0.0,0.0,0.0,0.0,0.0,0.0,0.0,0.0,0.0,0.0,0.0,0.0,0.0,0.0,0.0,0.0,0.0,0.0,0.0,0.0,0.0,0.0,0.0,0.0,0.0,0.0,0.0,0.0,0.0,0.0,0.0,0.0,-3.0213,-3.2799,-3.2589,-3.2663,-3.362,-3.2968,-3.1797,-3.0086,0.0,0.0,0.0,0.0,0.0,0.0,0.0,0.0,0.0,0.0,0.0,0.0,0.0,0.0,0.0,0.0,0.0,0.0,0.0,0.0,0.0,0.0,0.0,0.0,0.0,0.0,0.0,0.0,0.0,0.0,0.0,0.0,0.0,0.0,0.0,0.0,0.0,0.0,0.0,0.0,0.0,0.0,0.0,0.0,0.0,0.0,0.0,0.0,0.0,0.0,0.0,0.0,0.0,0.0,0.0,0.0,0.0,0.0,0.0,0.0,0.0,0.0,0.0,0.0,0.0,0.0,0.0,0.0,0.0,0.0,0.0,0.0,0.0,0.0,0.0,0.0,0.0,0.0,0.0,0.0,0.0,0.0,0.0,0.0,0.0,0.0,0.0,0.0,0.0,0.0,0.0,0.0,0.0,0.0,0.0,0.0,0.0,0.0,0.0,0.0,0.0,0.0,0.0,-2.9764,-3.0615,-3.2448,-3.1924,-3.1506,-3.1622,-3.168,-3.082,-2.8768,-2.9469,0.0,0.0,0.0,0.0,0.0,0.0,0.0,0.0,0.0,0.0,0.0,0.0,0.0,0.0,0.0,0.0,0.0,0.0,0.0,0.0,0.0,0.0,0.0,0.0,0.0,0.0,0.0,0.0,0.0,0.0,0.0,0.0,0.0,0.0,0.0,0.0,0.0,0.0,0.0,0.0,0.0,0.0,0.0,0.0,0.0,0.0,0.0,0.0,0.0,0.0,0.0,0.0,0.0,0.0,0.0,0.0,0.0,0.0,0.0,0.0,0.0,0.0,0.0,0.0,0.0,0.0,0.0,0.0,0.0,0.0,0.0,0.0,0.0,0.0,0.0,0.0,0.0,0.0,0.0,0.0,0.0,0.0,0.0,0.0,0.0,0.0,0.0,0.0,0.0,0.0,0.0,0.0,0.0,0.0,0.0,0.0,0.0,0.0,0.0,0.0,0.0,0.0,-3.0782,-3.1247,-3.1653,-3.104,-3.0396,-2.9923,-3.0154,-2.9526,-2.7627,-2.8654,0.0,0.0,0.0,0.0,0.0,0.0,0.0,0.0,0.0,0.0,0.0,0.0,0.0,0.0,0.0,0.0,0.0,0.0,0.0,0.0,0.0,0.0,0.0,0.0,0.0,0.0,0.0,0.0,0.0,0.0,0.0,0.0,0.0,0.0,0.0,0.0,0.0,0.0,0.0,0.0,0.0,0.0,0.0,0.0,0.0,0.0,0.0,0.0,0.0,0.0,0.0,0.0,0.0,0.0,0.0,0.0,0.0,0.0,0.0,0.0,0.0,0.0,0.0,0.0,0.0,0.0,0.0,0.0,0.0,0.0,0.0,0.0,0.0,0.0,0.0,0.0,0.0,0.0,0.0,0.0,0.0,0.0,0.0,0.0,0.0,0.0,0.0,0.0,0.0,0.0,0.0,0.0,0.0,0.0,0.0,0.0,0.0,0.0,0.0,0.0,0.0,0.0,-3.0601,-3.2028,-3.0665,-3.0022,-2.972,-2.9799,-2.8558,-2.7684,-2.7513,-2.7608,0.0,0.0,0.0,0.0,0.0,0.0,0.0,0.0,0.0,0.0,0.0,0.0,0.0,0.0,0.0,0.0,0.0,0.0,0.0,0.0,0.0,0.0,0.0,0.0,0.0,0.0,0.0,0.0,0.0,0.0,0.0,0.0,0.0,0.0,0.0,0.0,0.0,0.0,0.0,0.0,0.0,0.0,0.0,0.0,0.0,0.0,0.0,0.0,0.0,0.0,0.0,0.0,0.0,0.0,0.0,0.0,0.0,0.0,0.0,0.0,0.0,0.0,0.0,0.0,0.0,0.0,0.0,0.0,0.0,0.0,0.0,0.0,0.0,0.0,0.0,0.0,0.0,0.0,0.0,0.0,0.0,0.0,0.0,0.0,0.0,0.0,0.0,0.0,0.0,0.0,0.0,0.0,0.0,0.0,0.0,0.0,0.0,0.0,0.0,0.0,0.0,0.0,-2.912,-3.0253,0.0,-2.9134,-2.8277,-2.7904,-2.7783,-2.7119,-2.5602,0.0,0.0,0.0,0.0,0.0,0.0,0.0,0.0,0.0,0.0,0.0,0.0,0.0,0.0,0.0,0.0,0.0,0.0,0.0,0.0,0.0,0.0,0.0,0.0,0.0,0.0,0.0,0.0,0.0,0.0,0.0,0.0,0.0,0.0,0.0,0.0,0.0,0.0,0.0,0.0,0.0,0.0,0.0,0.0,0.0,0.0,0.0,0.0,0.0,0.0,0.0,0.0,0.0,0.0,0.0,0.0,0.0,0.0,0.0,0.0,0.0,0.0,0.0,0.0,0.0,0.0,0.0,0.0,0.0,0.0,0.0,0.0,0.0,0.0,0.0,0.0,0.0,0.0,0.0,0.0,0.0,0.0,0.0,0.0,0.0,0.0,0.0,0.0,0.0,0.0,0.0,0.0,0.0,0.0,0.0,0.0,0.0,0.0,0.0,0.0,0.0,0.0,-2.6753,-2.8135,-2.9161,0.0,-2.8702,-2.7791,-2.7074,-2.7071,-2.6409,-2.4792,0.0,0.0,0.0,0.0,0.0,0.0,0.0,0.0,0.0,0.0,0.0,0.0,0.0,0.0,0.0,0.0,0.0,0.0,0.0,0.0,0.0,0.0,0.0,0.0,0.0,0.0,0.0,0.0,0.0,0.0,0.0,0.0,0.0,0.0,0.0,0.0,0.0,0.0,0.0,0.0,0.0,0.0,0.0,0.0,0.0,0.0,0.0,0.0,0.0,0.0,0.0,0.0,0.0,0.0,0.0,0.0,0.0,0.0,0.0,0.0,0.0,0.0,0.0,0.0,0.0,0.0,0.0,0.0,0.0,0.0,0.0,0.0,0.0,0.0,0.0,0.0,0.0,0.0,0.0,0.0,0.0,0.0,0.0,0.0,0.0,0.0,0.0,0.0,0.0,0.0,0.0,0.0,0.0,0.0,0.0,0.0,0.0,0.0,0.0,0.0,0.0,0.0,-2.5775,-2.7964,-2.9224,-2.857,-2.8731,-2.856,-2.7761,-2.6287,-2.5428,0.0,0.0,0.0,0.0,0.0,0.0,0.0,0.0,0.0,0.0,0.0,0.0,0.0,0.0,0.0,0.0,0.0,0.0,0.0,0.0,0.0,0.0,0.0,0.0,0.0,0.0,0.0,0.0,0.0,0.0,0.0,0.0,0.0,0.0,0.0,0.0,0.0,0.0,0.0,0.0,0.0,0.0,0.0,0.0,0.0,0.0,0.0,0.0,0.0,0.0,0.0,0.0,0.0,0.0,0.0,0.0,0.0,0.0,0.0,0.0,0.0,0.0,0.0,0.0,0.0,0.0,0.0,0.0,0.0,0.0,0.0,0.0,0.0,0.0,0.0,0.0,0.0,0.0,0.0,0.0,0.0,0.0,0.0,0.0,0.0,0.0,0.0,0.0,0.0,0.0,0.0,0.0,0.0,0.0,0.0,0.0,0.0,0.0,0.0,0.0,0.0,0.0,0.0,-2.5763,-2.7353,-2.84,-2.8295,-2.7859,-2.7455,-2.7227,-2.6279,-2.5485,-2.503,0.0,0.0,0.0,0.0,0.0,0.0,0.0,0.0,0.0,0.0,0.0,0.0,0.0,0.0,0.0,0.0,0.0,0.0,0.0,0.0,0.0,0.0,0.0,0.0,0.0,0.0,0.0,0.0,0.0,0.0,0.0,0.0,0.0,0.0,0.0,0.0,0.0,0.0,0.0,0.0,0.0,0.0,0.0,0.0,0.0,0.0,0.0,0.0,0.0,0.0,0.0,0.0,0.0,0.0,0.0,0.0,0.0,0.0,0.0,0.0,0.0,0.0,0.0,0.0,0.0,0.0,0.0,0.0,0.0,0.0,0.0,0.0,0.0,0.0,0.0,0.0,0.0,0.0,0.0,0.0,0.0,0.0,0.0,0.0,0.0,0.0,0.0,0.0,0.0,0.0,0.0,0.0,0.0,0.0,0.0,0.0,0.0,0.0,0.0,0.0,0.0,0.0,-2.5447,-2.6678,-2.7582,-2.7698,-2.7338,-2.7084,-2.7084,-2.6349,-2.5583,-2.4921,0.0,0.0,0.0,0.0,0.0,0.0,0.0,0.0,0.0,0.0,0.0,0.0,0.0,0.0,0.0,0.0,0.0,0.0,0.0,0.0,0.0,0.0,0.0,0.0,0.0,0.0,0.0,0.0,0.0,0.0,0.0,0.0,0.0,0.0,0.0,0.0,0.0,0.0,0.0,0.0,0.0,0.0,0.0,0.0,0.0,0.0,0.0,0.0,0.0,0.0,0.0,0.0,0.0,0.0,0.0,0.0,0.0,0.0,0.0,0.0,0.0,0.0,0.0,0.0,0.0,0.0,0.0,0.0,0.0,0.0,0.0,0.0,0.0,0.0,0.0,0.0,0.0,0.0,0.0,0.0,0.0,0.0,0.0,0.0,0.0,0.0,0.0,0.0,0.0,0.0,0.0,0.0,0.0,0.0,0.0,0.0,0.0,0.0,0.0,0.0,0.0,0.0,-2.4948,-2.5979,-2.6772,-2.6985,-2.6994,-2.7042,-2.718,-2.6389,-2.5641,-2.502,0.0,0.0,0.0,0.0,0.0,0.0,0.0,0.0,0.0,0.0,0.0,0.0,0.0,0.0,0.0,0.0,0.0,0.0,0.0,0.0,0.0,0.0,0.0,0.0,0.0,0.0,0.0,0.0,0.0,0.0,0.0,0.0,0.0,0.0,0.0,0.0,0.0,0.0,0.0,0.0,0.0,0.0,0.0,0.0,0.0,0.0,0.0,0.0,0.0,0.0,0.0,0.0,0.0,0.0,0.0,0.0,0.0,0.0,0.0,0.0,-2.9178,0.0,0.0,0.0,0.0,0.0,0.0,0.0,0.0,0.0,0.0,0.0,0.0,0.0,0.0,0.0,0.0,0.0,0.0,0.0,0.0,0.0,0.0,0.0,0.0,0.0,0.0,0.0,0.0,0.0,0.0,0.0,0.0,0.0,0.0,0.0,0.0,0.0,0.0,0.0,0.0,0.0,-2.4731,-2.5394,-2.6145,-2.6933,-2.6033,-2.5887,-2.7093,-2.5939,-2.5077,-2.4919,0.0,0.0,0.0,0.0,0.0,0.0,0.0,0.0,0.0,0.0,0.0,0.0,0.0,0.0,0.0,0.0,0.0,0.0,0.0,0.0,0.0,0.0,0.0,0.0,0.0,0.0,0.0,0.0,0.0,0.0,0.0,0.0,0.0,0.0,0.0,0.0,0.0,0.0,0.0,0.0,0.0,0.0,0.0,0.0,0.0,0.0,0.0,0.0,0.0,0.0,0.0,0.0,0.0,0.0,0.0,0.0,0.0,0.0,0.0,0.0,0.0,-2.9662,0.0,0.0,0.0,0.0,0.0,0.0,0.0,0.0,0.0,0.0,0.0,0.0,0.0,0.0,0.0,0.0,0.0,0.0,0.0,0.0,0.0,0.0,0.0,0.0,0.0,0.0,0.0,0.0,0.0,0.0,0.0,0.0,0.0,0.0,0.0,0.0,0.0,0.0,0.0,0.0,-2.4256,-2.4779,-2.5363,-2.5832,-2.4975,-2.4702,-2.5494,-2.5124,-2.4704,-2.435,-2.4036,0.0,0.0,0.0,0.0,0.0,0.0,0.0,0.0,0.0,0.0,0.0,0.0,0.0,0.0,0.0,0.0,0.0,0.0,0.0,0.0,0.0,0.0,0.0,0.0,0.0,0.0,0.0,0.0,0.0,0.0,0.0,0.0,0.0,0.0,0.0,0.0,0.0,0.0,0.0,0.0,0.0,0.0,0.0,0.0,0.0,0.0,0.0,0.0,0.0,0.0,0.0,0.0,0.0,-3.5056,-3.5043,-3.3836,-3.3858,-3.3128,-3.1774,-3.0991,-3.1163,-3.1783,0.0,0.0,0.0,0.0,0.0,0.0,0.0,0.0,0.0,0.0,0.0,0.0,0.0,0.0,0.0,0.0,0.0,0.0,0.0,0.0,0.0,0.0,0.0,0.0,0.0,-2.5355,-2.4814,0.0,0.0,0.0,0.0,0.0,0.0,0.0,0.0,0.0,0.0,0.0,0.0,-2.3522,-2.3943,-2.4314,-2.4497,-2.3832,-2.3489,-2.3768,-2.4194,-2.4161,-2.3555,-2.3786,-2.3618,0.0,0.0,0.0,0.0,0.0,0.0,0.0,0.0,0.0,0.0,0.0,0.0,0.0,0.0,0.0,0.0,0.0,0.0,0.0,0.0,0.0,0.0,0.0,0.0,0.0,0.0,0.0,0.0,0.0,0.0,0.0,0.0,-2.8263,-2.9082,0.0,0.0,0.0,0.0,0.0,0.0,0.0,0.0,0.0,0.0,0.0,0.0,0.0,0.0,-3.2476,-3.3656,-3.4265,-3.4281,-3.565,-3.5871,-3.5057,-3.5071,-3.4657,-3.3879,-3.32,0.0,-3.0622,-3.0239,0.0,0.0,0.0,0.0,0.0,0.0,0.0,0.0,0.0,0.0,0.0,0.0,0.0,0.0,0.0,0.0,0.0,0.0,0.0,0.0,0.0,0.0,-2.5789,-2.5841,-2.5829,-2.5733,0.0,-2.4524,-2.3951,-2.5093,0.0,0.0,0.0,0.0,0.0,0.0,0.0,0.0,-2.2387,-2.2403,-2.2777,-2.3648,-2.2541,-2.228,-2.3686,-2.3293,-2.2932,-2.2834,-2.3073,-2.29,-2.2194,-2.2281,0.0,0.0,0.0,0.0,0.0,0.0,0.0,0.0,0.0,0.0,0.0,0.0,0.0,0.0,0.0,0.0,0.0,0.0,0.0,0.0,0.0,0.0,0.0,0.0,0.0,0.0,0.0,0.0,0.0,-2.6838,-2.8794,-2.9416,-3.0264,-3.0127,0.0,0.0,0.0,0.0,0.0,0.0,0.0,0.0,0.0,-3.354,-3.3586,-3.3929,-3.4671,-3.5243,-3.5506,-3.5536,-3.5737,-3.5447,-3.468,-3.4302,-3.371,-3.2978,-3.2313,-3.1501,-3.0717,-3.0411,-3.0144,-2.9804,0.0,0.0,0.0,0.0,0.0,-2.9073,-2.9,-2.8768,0.0,0.0,0.0,0.0,0.0,0.0,0.0,0.0,0.0,0.0,0.0,0.0,0.0,-2.5893,-2.5893,-2.5992,-2.6329,-2.5605,-2.5056,0.0,-2.4964,-2.4231,-2.3892,0.0,0.0,0.0,0.0,0.0,-2.2281,-2.1955,-2.1813,-2.2112,-2.118,-2.0867,-2.1665,-2.1775,-2.1824,-2.1907,-2.202,-2.2099,-2.2105,-2.1885,-2.1793,0.0,0.0,0.0,0.0,0.0,0.0,0.0,0.0,0.0,0.0,0.0,0.0,0.0,0.0,0.0,0.0,0.0,0.0,0.0,0.0,0.0,0.0,0.0,0.0,0.0,0.0,0.0,0.0,-2.763,-2.9005,-2.9538,-3.0809,-3.0828,0.0,0.0,0.0,0.0,0.0,0.0,-3.2501,-3.2743,-3.3282,-3.4243,-3.4273,-3.4773,-3.5755,-3.5755,-3.5664,-3.5483,-3.4999,-3.437,-3.3606,-3.3134,-3.2582,-3.1972,-3.1311,-3.1022,-3.0974,-3.0403,-3.0216,-3.016,-2.9016,-2.8895,-2.9363,-2.921,-2.9509,-2.9955,-2.9912,-2.9697,-2.9435,-2.9117,0.0,-2.7489,-2.6971,0.0,0.0,0.0,0.0,-2.6029,-2.5921,-2.5781,-2.5655,-2.5573,-2.5461,-2.5434,-2.5813,-2.5548,-2.5333,0.0,-2.5337,-2.4752,-2.4234,0.0,0.0,0.0,0.0,-2.2034,-2.1941,-2.1347,-2.0878,-2.0734,-2.0223,-1.9949,-2.0032,-2.051,-2.0839,-2.0944,-2.1005,-2.1252,-2.1702,-2.1504,-2.1503,-2.1728,0.0,0.0,0.0,0.0,0.0,0.0,0.0,0.0,0.0,0.0,0.0,0.0,0.0,0.0,0.0,0.0,0.0,0.0,0.0,0.0,0.0,0.0,0.0,0.0,0.0,0.0,0.0,0.0,0.0,-2.9566,-3.1391,0.0,0.0,0.0,0.0,-3.0496,-3.1741,-3.2587,-3.2658,-3.3353,-3.3802,-3.3925,-3.3919,-3.3948,-3.402,-3.402,-3.3704,-3.3087,-3.3044,-3.2682,-3.2123,-3.2094,-3.2047,-3.1986,-3.1357,-3.1085,-3.106,-3.0389,-3.0029,-2.9924,-2.985,-2.9773,-2.9689,-2.9813,-2.9866,-2.9913,-2.9843,-2.9444,-2.9017,-2.9414,-2.8764,-2.7764,-2.7737,-2.6877,0.0,0.0,-2.5921,-2.5921,-2.5893,-2.5458,-2.497,-2.4731,-2.4234,-2.3754,-2.3521,-2.3455,-2.3914,0.0,-2.5399,-2.4736,-2.3884,0.0,-2.3354,-2.2471,-2.1759,-2.1198,-2.0744,-2.0109,-1.9764,-1.9945,-1.9932,-1.9899,-1.9917,-1.9947,-1.9962,-1.9962,-2.0217,-2.0361,-2.0391,-2.1158,-2.1334,-2.0782,-2.0739,0.0,0.0,0.0,0.0,0.0,0.0,0.0,0.0,0.0,0.0,0.0,0.0,0.0,0.0,0.0,0.0,0.0,0.0,0.0,0.0,0.0,0.0,0.0,0.0,0.0,0.0,0.0,0.0,-2.9677,-3.1187,0.0,0.0,-3.0625,-3.1251,-3.1397,-3.2271,-3.2991,-3.3456,-3.3701,-3.3878,-3.3882,-3.3896,-3.3896,-3.3896,-3.3896,-3.3568,-3.2911,-3.2511,-3.195,-3.124,-3.124,-3.1144,-3.1033,-3.0821,-3.0722,-3.068,-3.0058,-2.9877,-3.004,-3.004,-3.0015,-2.9944,-2.9865,-2.9847,-2.983,-2.9721,-2.9287,-2.8737,-2.8508,-2.8157,-2.7805,-2.7805,-2.7323,-2.6816,-2.6816,-2.6104,-2.5328,-2.5007,-2.4232,-2.3499,-2.3393,-2.3204,-2.3109,-2.3254,-2.3294,-2.3386,-2.3595,-2.3456,-2.3345,-2.3425,-2.276,-2.2282,-2.2413,-2.1449,-2.068,-2.0546,-1.9711,-1.9109,-1.8997,-1.8997,-1.9035,-1.9124,-1.9143,-1.9147,-1.9188,-1.9275,-1.9532,-1.9966,-2.0286,-2.0408,-2.0322,-2.0144,-1.9816,0.0,0.0,0.0,0.0,0.0,0.0,0.0,0.0,0.0,0.0,0.0,0.0,0.0,0.0,0.0,0.0,0.0,0.0,0.0,0.0,0.0,0.0,0.0,0.0,0.0,0.0,-2.8967,-2.936,-3.0671,-3.1193,-3.0259,-3.0905,-3.1631,-3.2321,-3.278,-3.322,-3.366,-3.3709,-3.3709,-3.3709,-3.3709,-3.3709,-3.3709,-3.3709,-3.3283,-3.243,-3.2018,-3.1328,-3.0411,-3.0411,-3.0207,-2.9827,-2.9827,-2.9698,-2.9448,-2.8857,-2.8847,-2.9261,-2.9758,-2.9927,-2.9898,-2.9534,-2.9419,-2.936,-2.8842,-2.8263,-2.7679,-2.7207,-2.7069,-2.704,-2.701,-2.668,-2.6313,-2.6126,-2.521,-2.4219,-2.3712,-2.2877,-2.2154,-2.2047,-2.1864,-2.176,-2.1957,-2.1983,-2.1837,-2.1344,-2.1872,-2.2453,-2.2637,-2.1973,-2.151,-2.1806,-2.0873,-2.0082,-1.9936,-1.9142,-1.8509,-1.842,-1.84,-1.847,-1.8645,-1.8649,-1.8607,-1.8517,-1.8489,-1.8599,-1.8898,-1.9277,-1.9447,-1.9443,-1.9422,-1.9283,-1.9,0.0,0.0,0.0,0.0,0.0,0.0,0.0,0.0,0.0,0.0,0.0,0.0,0.0,0.0,0.0,0.0,0.0,0.0,0.0,0.0,0.0,0.0,0.0,-2.6699,-2.7795,-2.8544,-2.8586,-2.9958,-3.0781,-3.0514,-3.1431,-3.239,-3.3171,-3.322,-3.322,-3.322,-3.322,-3.322,-3.322,-3.3192,-3.3213,-3.3213,-3.3199,-3.2582,-3.1391,-3.1391,-3.0732,-2.954,-2.954,-2.9121,-2.846,-2.846,-2.8084,-2.7432,-2.6915,-2.6994,-2.7577,-2.8953,-2.9498,-2.9442,-2.8825,-2.8601,-2.8412,-2.716,-2.635,-2.5826,-2.56,-2.5525,-2.5525,-2.5368,-2.4931,-2.4347,-2.3815,-2.3206,-2.2624,-2.2073,-2.1492,-2.0962,-2.0696,-2.0188,-1.9708,-1.9422,-1.9382,-1.9314,-1.9032,-2.0761,-2.2063,-2.1415,-2.1296,-2.1117,-2.0595,-1.9949,0.0,-1.881,-1.8214,-1.7942,-1.8149,-1.8196,-1.831,-1.8563,-1.8534,-1.8364,-1.8022,-1.7857,-1.7598,-1.7225,-1.8221,-1.8564,-1.8122,-1.8614,-1.8855,-1.8802,0.0,0.0,0.0,0.0,0.0,0.0,0.0,0.0,0.0,0.0,0.0,0.0,0.0,0.0,0.0,0.0,0.0,0.0,0.0,0.0,0.0,0.0,-2.6182,-2.6905,-2.8043,-2.8662,-2.8267,-2.9805,-3.0719,-3.0272,-3.0831,-3.1304,-3.1539,-3.1576,-3.1576,-3.1576,-3.1576,-3.1576,-3.1576,-3.1198,-3.0971,-3.0971,-3.0592,-3.0003,-2.9233,-2.9233,-2.8752,-2.7855,-2.7855,-2.7677,-2.7352,-2.7352,-2.7252,-2.7051,-2.6897,-2.671,-2.6505,-2.6799,-2.7158,-2.7434,-2.6876,-2.6587,-2.6339,-2.5437,-2.504,-2.4792,-2.4262,-2.409,-2.406,-2.403,-2.3777,-2.3368,-2.2841,-2.2124,-2.1303,-2.0484,-1.9848,-1.9417,-1.9337,-1.9202,-1.9022,-1.8866,-1.9125,-1.9163,-1.8362,-1.8969,-1.9544,-1.9199,-1.899,-1.8808,-1.8656,-1.8236,0.0,-1.7727,-1.735,-1.7209,-1.751,-1.8118,-1.8421,-1.8239,-1.8427,-1.8336,0.0,-1.7324,-1.7203,-1.7483,-1.7782,-1.8054,-1.8299,-1.8124,-1.8374,0.0,0.0,0.0,0.0,0.0,0.0,0.0,0.0,0.0,0.0,0.0,0.0,0.0,0.0,0.0,0.0,0.0,0.0,0.0,0.0,0.0,0.0,-2.5492,-2.6666,-2.704,-2.768,-2.8039,-2.7952,-2.8687,-2.9301,-2.9569,-2.9815,-3.021,-3.0831,-3.082,-3.0678,-3.0455,-3.0442,-3.0288,-2.9967,-2.9678,-2.9509,-2.9509,-2.9207,-2.8764,-2.817,-2.817,-2.7755,-2.7064,-2.7064,-2.6828,0.0,-2.6215,-2.5979,-2.5636,-2.5223,-2.5,0.0,0.0,0.0,0.0,0.0,-2.4898,-2.4289,-2.3849,-2.3547,-2.3251,-2.2781,-2.261,-2.2573,-2.2291,-2.2079,-2.1813,-2.109,-2.0523,-1.9948,-1.9163,-1.8729,-1.8503,-1.8503,-1.8354,-1.8186,-1.8114,-1.8177,-1.8009,-1.7207,0.0,0.0,-1.7021,-1.7478,-1.7807,-1.7549,-1.732,-1.709,-1.6878,-1.6676,-1.6655,-1.693,-1.7583,-1.7981,-1.7948,-1.8263,0.0,0.0,0.0,-1.7313,-1.7629,-1.7457,0.0,0.0,0.0,0.0,0.0,0.0,0.0,0.0,-2.0273,-2.0529,0.0,0.0,0.0,0.0,0.0,0.0,0.0,0.0,0.0,0.0,0.0,0.0,0.0,0.0,0.0,0.0,-2.6098,-2.7187,-2.7117,-2.6966,-2.7004,-2.7411,-2.71,-2.7256,-2.8438,-2.8399,-2.8925,-3.0286,-3.0212,-2.9919,-2.9417,0.0,0.0,0.0,0.0,-2.8352,-2.8352,-2.8288,-2.7972,-2.7452,-2.7452,-2.7163,-2.6612,-2.6612,-2.6211,-2.5505,-2.5088,-2.4516,-2.3779,-2.2887,-2.2758,-2.3325,-2.504,-2.5396,-2.4937,-2.4376,-2.3441,0.0,0.0,0.0,0.0,-2.1431,-2.1388,-2.1275,-2.0592,-2.0412,-2.0205,-1.9183,-1.8896,-1.8782,-1.8249,-1.8084,-1.81,-1.8043,-1.7676,-1.732,-1.7143,-1.676,-1.6289,-1.572,-1.564,-1.5528,-1.4982,-1.6385,-1.7394,-1.6869,-1.6796,-1.6614,-1.614,-1.6091,-1.6166,-1.6392,0.0,0.0,-1.7617,-1.806,-1.8153,-1.7786,-1.7687,-1.7642,-1.7569,-1.7246,-1.7641,-1.8859,-1.8557,-1.8848,-1.9837,-1.9588,-1.9471,-1.9535,-1.9333,-1.992,0.0,0.0,0.0,0.0,0.0,0.0,0.0,0.0,0.0,0.0,0.0,0.0,0.0,0.0,0.0,-2.475,-2.6482,-2.7587,-2.718,-2.6712,-2.6302,-2.5946,-2.6219,-2.6377,-2.6244,-2.654,-2.6852,-2.7176,-2.715,-2.7102,-2.6994,-2.6994,0.0,-2.6762,-2.6404,-2.6188,-2.6188,-2.5769,-2.5505,-2.5373,0.0,0.0,-2.4957,-2.4957,-2.4555,-2.3851,-2.3758,-2.3445,-2.2948,-2.2752,-2.2452,-2.2253,-2.2927,-2.2879,-2.2368,-2.2111,-2.1835,-2.1639,-2.1526,-2.138,-2.1296,-2.1253,-2.1253,-2.1129,-2.0561,-2.0412,0.0,-1.9183,-1.8896,-1.8782,-1.8249,-1.8084,-1.8008,-1.7622,-1.7292,-1.6763,-1.5634,-1.5463,-1.5203,-1.3962,-1.4073,-1.4191,-1.3672,-1.4714,-1.559,-1.5485,-1.5474,-1.5439,-1.5323,-1.5311,-1.5424,-1.5746,-1.6827,-1.7447,-1.7314,-1.7958,-1.8112,-1.7526,-1.7459,-1.7246,-1.6755,-1.7335,-1.7392,-1.6866,-1.741,-1.7837,-1.8169,-1.8417,-1.8741,-1.914,-1.9092,-1.921,0.0,0.0,0.0,0.0,0.0,0.0,0.0,0.0,0.0,0.0,0.0,-2.0479,-2.136,0.0,-2.3777,-2.421,-2.536,-2.6008,-2.554,-2.5052,-2.4925,-2.5489,-2.5542,-2.5554,-2.5602,-2.569,-2.5899,-2.6282,-2.6218,-2.6036,-2.5829,-2.5817,-2.5625,-2.5245,-2.5038,-2.491,-2.491,-2.4618,-2.449,-2.449,-2.449,-2.4465,-2.4334,-2.408,-2.3755,-2.3384,-2.288,-2.2502,-2.225,-2.1642,-2.1229,-2.0972,-2.0797,-2.1054,-2.1423,-2.1348,-2.1305,-2.1273,-2.1221,-2.119,-2.119,-2.119,-2.1017,-2.0656,-2.0,-1.9651,-1.9199,-1.8032,-1.7698,-1.7586,-1.7082,-1.6817,-1.6634,-1.6385,-1.5922,-1.532,-1.4605,-1.4337,-1.4039,-1.3347,-1.3413,-1.3518,-1.3258,-1.3732,-1.4165,-1.4165,-1.4165,-1.4165,-1.4165,-1.4165,-1.4201,-1.4376,-1.5488,-1.6154,-1.6011,-1.6838,-1.7209,-1.6879,-1.6863,-1.6716,-1.6424,-1.6814,-1.6943,-1.6693,-1.7306,-1.7761,-1.804,-1.8021,-1.8122,-1.8341,-1.7867,-1.8203,0.0,0.0,0.0,0.0,0.0,0.0,0.0,0.0,-1.9308,-2.0364,-2.0588,-2.0917,-2.2007,-2.2747,-2.3279,-2.3554,-2.4113,-2.4344,-2.3826,-2.338,-2.3551,-2.4705,-2.4466,-2.4386,-2.4825,-2.4662,-2.486,-2.5588,-2.5497,-2.5324,-2.5092,-2.5106,-2.4724,-2.3982,-2.397,-2.3897,-2.374,-2.3897,-2.3897,-2.374,-2.3897,-2.3886,-2.3728,-2.3196,-2.2915,-2.2757,-2.1767,-2.1339,-2.1273,-2.0303,-1.9901,-1.9835,-1.921,-1.9704,-2.0732,-2.0764,-2.0764,-2.0764,-2.0764,-2.0696,-2.0617,-2.0617,-2.0248,-1.9649,-1.8928,-1.842,-1.7886,-1.6704,-1.6368,-1.6283,-1.5901,-1.554,-1.5269,-1.5161,-1.4534,-1.3867,-1.3676,-1.3288,-1.2929,-1.2856,-1.2822,-1.2822,-1.2822,-1.2822,-1.2905,-1.316,-1.3194,-1.3194,-1.3194,-1.3194,-1.3194,-1.3194,-1.4073,-1.4701,-1.4875,-1.5697,-1.6187,-1.6187,-1.6187,-1.6159,-1.6044,-1.6107,-1.6261,-1.6496,-1.7041,-1.7475,-1.7791,-1.7547,-1.7432,-1.7398,-1.6647,-1.722,-1.7908,-1.7653,-1.7508,-1.8005,-1.7847,-1.8045,0.0,0.0,-1.8789,-2.0211,-2.0527,-2.0643,-2.1178,-2.2279,-2.3132,-2.3138,-2.3943,-2.4188,-2.3308,-2.3153,-2.2881,-2.2275,-2.2166,-2.2166,-2.2208,-2.2218,-2.2504,-2.3304,-2.3341,-2.3616,-2.4281,-2.4317,-2.3954,-2.315,-2.315,-2.2804,-2.2069,-2.2767,-2.2767,-2.2069,-2.2804,-2.2767,-2.2048,-2.1634,-2.1192,-2.0694,-1.9748,-1.9316,-1.9316,-1.9198,-1.911,-1.91,-1.89,-1.8934,-1.91,-1.921,-1.9243,-1.9243,-1.9243,-1.8938,-1.854,-1.854,-1.8134,-1.7564,-1.7041,-1.6837,-1.6674,-1.6061,-1.5882,-1.5872,-1.5815,-1.554,-1.5171,-1.4697,-1.4114,-1.3429,-1.259,-1.22,-1.1943,-1.1594,-1.1519,-1.1519,-1.1519,-1.1519,-1.1909,-1.3025,-1.3194,-1.3194,-1.3194,-1.3194,-1.3194,-1.3194,-1.3725,-1.4409,-1.5175,-1.5618,-1.5853,-1.5853,-1.5853,-1.5613,-1.508,-1.5403,-1.5188,-1.4372,-1.5459,-1.5867,-1.5568,-1.6149,-1.6447,-1.6447,-1.6342,-1.643,-1.8573,-1.8304,-1.7924,0.0,-1.8517,-1.8684,-1.9292,-1.9157,-1.9132,-1.9989,-2.0131,-2.0259,-2.0695,-2.1382,-2.1957,0.0,-2.2471,-2.2553,-2.1694,-2.1578,-2.1204,-2.0111,-2.0188,-2.0721,-2.1728,-2.1794,-2.1956,-2.2268,-2.2306,-2.2456,-2.2782,-2.267,-2.2435,-2.2059,-2.1973,-2.1735,-2.1382,-2.1735,-2.1735,-2.1382,-2.1735,-2.1725,-2.1362,-2.0696,-1.9992,-1.9274,-1.8886,-1.8723,-1.8677,-1.8263,-1.8085,-1.8017,-1.7516,-1.7354,-1.7457,-1.8365,-1.8571,-1.8369,-1.8369,-1.8073,-1.7685,-1.7685,-1.7317,-1.682,-1.6427,-1.6118,-1.5772,-1.5068,-1.4874,-1.4758,-1.4292,-1.3894,-1.3506,-1.3029,-1.2573,-1.2159,-1.1762,-1.161,-1.1502,-1.1318,-1.1301,-1.1301,-1.1301,-1.1301,-1.1469,-1.1999,-1.2098,-1.2098,-1.2098,-1.2098,-1.2215,-1.2515,-1.2947,-1.3466,-1.4129,-1.4542,-1.4756,-1.4756,-1.4756,-1.4638,-1.4401,-1.4544,-1.4442,-1.401,-1.4742,-1.5142,-1.5189,-1.5647,-1.5956,-1.6167,-1.607,-1.6,-1.8242,-1.8235,0.0,-1.8693,-1.9091,-1.9283,-1.9219,-1.9256,-1.9457,-1.9948,-1.9966,-2.0012,-2.0448,-2.075,-2.0979,-2.1089,-2.1229,-2.1156,-2.0561,-2.0378,-1.9948,-1.8921,-1.9049,-1.9687,-2.0847,-2.1001,-2.1106,-2.1326,-2.1298,-2.1364,-2.1593,-2.1431,-2.1201,-2.0971,-2.0846,-2.0643,-2.042,-2.0643,-2.0643,-2.042,-2.0643,-2.0643,-2.0391,-1.9535,-1.8689,-1.7901,-1.7872,-1.7872,-1.7867,-1.731,-1.7104,-1.7044,-1.6473,-1.6237,-1.6359,-1.7256,-1.7478,-1.7337,-1.7337,-1.6966,-1.6506,-1.6506,-1.6151,-1.569,-1.5449,-1.516,-1.4756,-1.4181,-1.4001,-1.3879,-1.3282,-1.2757,-1.2329,-1.2028,-1.1619,-1.1301,-1.1301,-1.1301,-1.1301,-1.1301,-1.1301,-1.1301,-1.1301,-1.1301,-1.1336,-1.1413,-1.143,-1.1387,-1.131,-1.1301,-1.1455,-1.1852,-1.2277,-1.2687,-1.3079,-1.3561,-1.3851,-1.3851,-1.3851,-1.3851,-1.3851,-1.3851,-1.3851,-1.3851,-1.4373,-1.4769,-1.5068,-1.5171,-1.5402,-1.57,-1.5319,-1.5177,-1.6374,0.0,-1.7878,-1.9016,-1.9292,-1.9503,-2.0283,-1.9861,-1.9531,-2.0338,-2.0159,-2.0012,-2.0448,-2.053,-2.0668,-2.1044,-2.0796,-2.0549,-2.0479,-2.0149,-1.9706,-1.9078,-1.8993,-1.8962,0.0,-1.8962,-1.9411,-2.0197,-2.009,-2.0314,-2.1094,-2.1094,-2.0759,-1.9982,-1.9933,-1.9569,-1.8772,-1.9569,-1.9529,-1.8772,-1.9559,-1.9529,-1.8754,-1.7952,-1.7123,-1.6377,-1.6377,-1.6377,-1.6377,-1.6342,-1.6342,-1.6307,-1.6167,-1.6096,-1.6053,-1.5506,-1.5529,-1.5849,-1.5849,-1.526,-1.4474,-1.4474,-1.407,-1.358,-1.3588,-1.358,-1.3532,-1.3541,-1.3511,-1.3511,-1.3494,-1.2946,-1.2389,-1.2372,-1.1842,-1.1301,-1.1301,-1.1301,-1.1301,-1.1301,-1.1301,-1.1301,-1.1301,-1.1301,-1.1421,-1.1746,-1.1771,-1.1661,-1.1344,-1.1301,-1.1301,-1.131,-1.1979,-1.2398,-1.2434,-1.3112,-1.3511,-1.3511,-1.3511,-1.3511,-1.3511,-1.3511,-1.3511,-1.3511,-1.4305,-1.4708,-1.4717,-1.4659,-1.4629,-1.4637,-1.3926,-1.3571,-1.5642,0.0,-1.6277,-1.6944,-1.7115,-1.7383,-1.8387,-1.8348,-1.8247,-1.8944,-1.8885,-1.8689,-1.8572,-1.8958,-1.9434,-1.9838,-2.0009,-2.0099,-2.0023,-1.9725,-1.9232,-1.8481,-1.8825,0.0,0.0,0.0,0.0,-1.9192,-1.9152,-1.9222,-1.949,-1.9392,-1.9195,-1.8895,-1.8736,-1.8505,-1.8241,-1.8505,-1.8505,-1.8241,-1.8281,-1.8025,-1.748,-1.6998,-1.6486,-1.5973,-1.5973,-1.5973,-1.5973,-1.5973,-1.5973,-1.5973,-1.5938,-1.5903,-1.5851,-1.536,-1.5128,-1.5019,-1.4759,-1.4294,-1.38,-1.38,-1.3683,-1.3511,-1.3511,-1.3511,-1.3511,-1.3511,-1.3511,-1.3459,-1.322,-1.2643,-1.2069,-1.1789,-1.1213,-1.0711,-1.0711,-1.0711,-1.0711,-1.0711,-1.0711,-1.0711,-1.0711,-1.0711,-1.075,-1.0864,-1.1644,-1.1995,-1.1445,-1.1374,-1.1211,-1.0739,-1.1145,-1.148,-1.148,-1.1911,-1.2166,-1.2166,-1.2166,-1.2166,-1.2166,-1.2166,-1.2243,-1.2419,-1.2697,-1.3068,-1.3523,-1.3467,-1.3607,-1.3854,-1.3608,-1.3419,-1.4806,-1.4993,-1.5026,-1.5703,-1.5784,-1.5893,-1.666,-1.6708,-1.673,-1.7162,-1.7286,-1.7249,-1.7191,-1.769,-1.835,-1.9176,-1.9407,-1.962,-1.9952,-1.9729,-1.9244,-1.8651,-1.903,-1.9094,0.0,0.0,0.0,-1.8792,-1.8693,-1.8652,-1.8652,-1.8391,-1.8282,-1.8282,-1.808,-1.8,-1.8,-1.8,-1.7931,-1.7826,-1.7586,-1.7201,-1.6667,-1.6501,-1.6184,-1.5805,-1.5805,-1.5805,-1.5805,-1.5805,-1.5805,-1.5761,-1.547,-1.5541,-1.5702,-1.4891,-1.463,-1.4624,-1.423,-1.3836,-1.3511,-1.3511,-1.3511,-1.3511,-1.3511,-1.3511,-1.345,-1.3199,-1.313,-1.305,-1.2587,-1.2047,-1.1574,-1.1314,-1.0818,-1.0386,-1.0386,-1.0386,-1.0386,-1.0386,-1.0386,-1.0386,-1.0386,-1.0516,-1.0625,-1.0625,-1.1447,-1.1844,-1.1135,-1.104,-1.0878,-1.0444,-1.077,-1.1003,-1.1003,-1.131,-1.1516,-1.1516,-1.1516,-1.1516,-1.1516,-1.1595,-1.1731,-1.1884,-1.2149,-1.2475,-1.2889,-1.2678,-1.2726,-1.2952,-1.2615,-1.2358,-1.3761,-1.3966,-1.4055,-1.513,-1.5208,-1.5057,-1.5096,-1.5096,-1.5127,-1.5127,-1.5437,-1.579,-1.6133,0.0,-1.7338,-1.8836,-1.8827,-1.9021,-2.0131,-1.9972,-1.9683,0.0,0.0,0.0,0.0,0.0,0.0,-1.8941,0.0,-1.8588,-1.8588,-1.8237,-1.8,-1.8,-1.8,-1.8,-1.8,-1.7974,-1.7826,-1.7505,-1.7471,-1.703,-1.6291,-1.6364,-1.6131,-1.5726,-1.5726,-1.5726,-1.5691,-1.5691,-1.5691,-1.562,-1.4832,-1.5018,-1.5492,-1.4024,-1.3933,-1.4526,-1.4134,-1.3774,-1.3472,-1.3411,-1.3411,-1.3442,-1.342,-1.3411,-1.326,-1.2634,-1.2451,-1.2289,-1.1664,-1.1236,-1.0965,-1.0965,-1.0667,-1.0351,-1.0351,-1.0351,-1.0351,-1.0351,-1.0351,-1.0351,-1.0322,-1.0637,-1.0905,-1.0905,-1.1173,-1.1144,-1.0487,-1.0408,-1.0379,-1.0351,-1.0688,-1.0905,-1.0905,-1.1195,-1.1392,-1.1392,-1.1392,-1.1392,-1.1392,-1.1646,-1.1768,-1.1782,-1.2425,-1.2755,-1.277,-1.2201,-1.1929,-1.1892,-1.0925,-1.0475,-1.2059,-1.2293,-1.2485,-1.2788,-1.279,-1.2969,-1.3821,-1.3874,-1.3864,-1.4163,-1.421,-1.4063,-1.37,0.0,0.0,-1.5972,-1.7157,0.0,-1.8697,-1.9089,0.0,-1.9299,0.0,-1.9522,-1.9239,-1.9684,0.0,0.0,-1.8956,-1.8588,-1.8588,-1.8237,-1.8,-1.8,-1.8,-1.8,-1.8,-1.7757,-1.756,-1.7505,-1.6893,-1.6479,-1.6283,-1.6062,-1.5554,-1.4903,-1.4903,-1.4581,-1.4078,-1.4078,-1.4078,-1.4086,-1.3861,-1.3897,-1.3988,-1.3297,-1.3051,-1.2989,-1.2588,-1.2916,-1.3351,-1.232,-1.2351,-1.2665,-1.2166,-1.2012,-1.1981,-1.1795,-1.1764,-1.1734,-1.154,-1.1068,-1.0622,-1.0622,-1.0163,-0.9737,-0.9737,-0.9737,-0.9737,-0.9737,-0.9631,-0.9537,-0.9381,-0.9436,-0.9516,-0.9516,-0.9571,-0.9844,-1.0396,-1.04,-1.0184,-0.9762,-0.9605,-0.9579,-0.9737,-0.9673,-0.9703,-0.9862,-0.9709,-0.9703,-0.9862,-0.9968,-1.0114,-1.0327,-1.0656,-1.0918,-1.112,-1.0963,-1.0887,-1.0887,-1.0625,-1.0406,-1.1591,-1.1688,-1.1712,-1.1712,-1.1661,-1.1689,-1.2202,-1.2415,-1.2479,-1.2339,-1.264,0.0,-1.2279,-1.3143,0.0,0.0,0.0,0.0,-1.7727,-1.8147,-1.835,0.0,-1.8518,0.0,-1.8366,-1.8611,-1.8856,0.0,-1.8921,-1.8845,-1.8845,-1.8331,-1.8,-1.8,-1.8,-1.8,-1.8,-1.7409,-1.7015,-1.6691,-1.5859,-1.5317,-1.5049,-1.4892,-1.4553,-1.4106,0.0,-1.389,-1.3499,-1.3499,-1.3499,-1.3455,-1.3098,-1.3208,-1.3418,-1.2636,-1.248,-1.2575,-1.1753,-1.2057,-1.2664,-1.1778,-1.1764,-1.1981,-1.1602,-1.1516,-1.1454,-1.1149,-1.1062,-1.1,-1.0685,-1.0351,-1.0047,-1.0047,-0.9766,-0.9516,-0.9516,-0.9446,-0.9382,-0.9285,-0.9215,-0.9145,-0.9017,-0.8985,-0.8985,-0.8985,-0.8985,-0.921,-0.9779,-0.9779,-0.962,-0.9312,-0.9119,-0.9049,-0.9145,-0.9049,-0.9049,-0.9145,-0.9049,-0.91,-0.934,-0.9495,-0.9685,-0.9936,-1.0151,-1.0339,-1.0513,-1.0406,-1.0368,-1.0368,-1.0293,-1.018,-1.1712,-1.1609,-1.1441,-1.1441,-1.1254,-1.1051,-1.0828,-1.1074,-1.12,-1.0533,0.0,-1.1824,-1.1506,-1.2398,-1.3485,-1.4528,0.0,-1.6074,-1.6986,-1.7196,-1.7296,-1.7296,-1.7296,-1.7296,-1.7296,-1.7049,-1.7229,-1.7965,-1.8491,-1.8871,-1.9102,-1.8293,-1.7789,-1.7668,-1.7668,-1.7668,-1.7668,-1.6863,-1.6133,-1.5527,-1.4718,-1.404,-1.3499,-1.3499,-1.3426,-1.3353,0.0,0.0,-1.3164,-1.3164,-1.3164,-1.3091,-1.2409,-1.2556,-1.3063,-1.1997,-1.2026,-1.2452,-1.1229,-1.1174,-1.1574,-1.1311,-1.1298,-1.1361,-1.1267,-1.1236,-1.1118,-1.0541,-1.0358,-1.0238,-0.9638,-0.9516,-0.9484,-0.9484,-0.9478,-0.9478,-0.9446,-0.9344,-0.921,-0.9017,-0.8985,-0.8964,-0.8998,-0.8971,-0.8982,-0.9016,-0.9022,-0.9022,-0.9022,-0.902,-0.9036,-0.9036,-0.9003,-0.902,-0.9054,-0.9026,-0.902,-0.9054,-0.9054,-0.9151,-0.94,-0.9656,-0.9859,-1.0033,-1.0282,-1.0406,-1.0406,-1.0255,-1.0143,-1.0143,-0.9992,-0.9841,-1.1238,-1.122,-1.1184,-1.1184,-1.1148,-1.1099,-1.1051,-1.0948,0.0,0.0,-1.0949,-1.1003,-1.1132,-1.1899,-1.2625,-1.3029,0.0,0.0,0.0,0.0,-1.7296,0.0,0.0,0.0,0.0,0.0,0.0,0.0,0.0,0.0,-1.8598,-1.7549,-1.6583,-1.5891,-1.585,-1.585,-1.585,-1.536,-1.4946,-1.4608,-1.4181,-1.3821,-1.3499,-1.3499,-1.3135,-1.2519,0.0,0.0,-1.1515,-1.1515,-1.1515,-1.1515,-1.1372,-1.1409,-1.1508,-1.1279,-1.1156,-1.1028,-1.0571,-1.0353,-1.0184,-0.9943,-1.0231,-1.0573,-1.0009,-0.9856,-0.9824,-0.9702,-0.967,-0.9638,-0.9516,-0.9516,-0.9478,-0.9376,-0.9338,-0.928,-0.9119,-0.9081,-0.9017,-0.8867,-0.8835,-0.8864,-0.8898,-0.8902,-0.8962,-0.9124,-0.9151,-0.9151,-0.9151,-0.9113,-0.9159,-0.9325,-0.9097,-0.9052,-0.9393,-0.9118,-0.9057,-0.9398,-0.926,-0.9242,-0.947,-0.9567,-0.9643,-0.9687,-0.9878,-0.9997,-0.9997,-0.996,-0.9954,-0.9954,-0.9916,-0.9539,-1.1075,-1.1111,-1.1111,-1.1111,-1.1111,-1.1075,-1.0936,0.0,0.0,0.0,-1.1212,-1.1419,-1.0985,-1.1564,0.0,0.0,0.0,0.0,0.0,0.0,0.0,0.0,0.0,0.0,0.0,0.0,0.0,0.0,0.0,0.0,-1.7122,-1.6433,-1.5842,-1.5394,-1.5394,-1.5394,-1.5394,-1.4731,-1.4217,-1.3803,-1.3189,-1.2649,-1.2248,-1.2248,-1.2033,-1.1669,-1.1669,0.0,-1.1111,-1.1111,-1.1111,-1.1111,-1.1111,-1.1111,-1.1111,-1.1111,-1.1033,-1.0888,-1.0587,-1.0328,-1.0063,-0.9805,-0.9845,-0.9919,-0.9612,-0.9516,-0.9516,-0.9516,-0.9446,-0.9408,-0.9408,-0.9318,-0.9215,-0.9145,-0.9244,-0.9304,-0.9079,-0.9153,-0.9215,-0.9041,-0.9007,-0.9006,-0.9057,-0.9039,-0.9077,-0.919,-0.9206,-0.9206,-0.9206,-0.889,-0.8849,-0.9251,-0.9142,-0.9122,-0.9311,-0.9178,-0.9127,-0.9351,-0.9241,-0.93,-0.9548,-0.959,-0.9637,-0.9755,-0.9863,-0.9884,-0.9884,-0.9463,-0.9273,-0.9273,-0.8846,-0.8461,-1.1057,-1.1111,-1.1111,-1.1111,-1.1111,-1.1069,-1.0894,-1.1341,0.0,0.0,-1.1685,-1.2005,-1.1242,0.0,-1.2,0.0,-1.2223,0.0,0.0,0.0,0.0,0.0,0.0,0.0,0.0,0.0,0.0,0.0,0.0,0.0,-1.5433,-1.5225,-1.5012,-1.4845,-1.4803,-1.4803,-1.4803,-1.409,-1.3498,-1.3087,-1.2265,-1.1667,-1.1196,-1.1141,-1.1111,-1.1111,-1.1111,0.0,0.0,-1.1111,-1.1111,-1.1111,-1.1111,-1.1111,-1.1111,-1.1111,-1.1111,-1.1069,-1.0773,-1.0551,-1.0334,-1.0075,-0.9775,-0.9484,-0.9478,-0.9446,-0.9446,-0.9414,-0.9312,-0.9242,-0.9242,-0.9113,-0.9002,-0.902,-0.9146,-0.9271,-0.9152,-0.9289,-0.9392,-0.9241,-0.906,-0.8971,-0.8983,-0.8852,-0.8755,-0.8842,-0.8847,-0.8847,-0.8847,-0.8413,-0.8304,-0.8796,-0.8771,-0.8766,-0.8847,-0.8771,-0.8766,-0.8847,-0.8847,-0.8934,-0.9159,-0.9164,-0.9209,-0.9377,-0.9382,-0.9382,-0.9382,-0.8737,-0.8428,-0.8432,-0.7808,-0.7387,-1.1105,-1.1111,-1.1111,-1.1111,-1.1111,-1.1172,-1.1369,0.0,0.0,-1.2029,-1.2059,-1.2071,-1.2451,-1.2584,-1.2705,-1.294,0.0,-1.3513,0.0,0.0,0.0,0.0,0.0,0.0,0.0,0.0,0.0,0.0,0.0,0.0,0.0,-1.4139,-1.3753,-1.2954,-1.2954,-1.2954,-1.2954,-1.2875,-1.2686,-1.24,-1.2075,-1.1736,-1.1441,-1.1226,-1.1111,-1.1111,0.0,0.0,0.0,-1.1111,-1.1111,-1.1111,-1.1111,-1.1111,-1.1111,-1.1111,-1.1111,-1.1069,-1.0773,-1.0665,-1.0605,-1.0346,-0.9919,-0.9484,-0.9344,-0.9306,-0.9274,-0.9081,-0.9049,-0.9017,-0.9017,-0.9017,-0.9009,-0.907,-0.9008,-0.8988,-0.916,-0.9225,-0.9206,-0.9206,-0.8604,-0.8167,-0.8352,-0.7759,-0.7376,-0.7614,-0.7639,-0.7639,-0.7639,-0.7618,-0.7584,-0.7643,-0.7418,-0.7389,-0.7626,-0.7414,-0.7393,-0.7631,-0.7639,-0.7647,-0.7706,-0.7706,-0.7715,-0.7732,-0.7732,-0.7732,-0.7732,-0.7655,-0.7617,-0.7617,-0.754,-0.708,-1.1027,-1.1111,-1.1111,-1.1111,-1.1111,-1.1184,-1.1429,0.0,-1.1733,-1.2216,-1.2355,-1.2409,-1.2457,-1.2469,-1.2451,-1.2409,-1.2487,0.0,0.0,0.0,0.0,0.0,0.0,0.0,0.0,0.0,0.0,0.0,0.0,0.0,0.0,-1.3209,-1.3082,-1.2705,-1.2705,-1.2705,-1.2705,-1.2705,-1.2572,-1.2312,-1.221,-1.1938,-1.1489,-1.1375,-1.1236,-1.1111,0.0,0.0,0.0,-1.1111,-1.1111,-1.1111,-1.1111,-1.1111,-1.1111,-1.1111,-1.1111,-1.1093,-1.0991,-1.0852,-1.0665,-1.0563,-1.0217,-0.9754,-0.96,-0.9435,-0.9303,-0.9265,-0.9071,-0.8895,-0.9041,-0.9014,-0.8942,-0.8974,-0.9151,-0.9207,-0.8744,-0.8797,-0.8744,-0.8254,-0.7921,-0.7724,-0.7798,-0.7547,-0.7382,-0.749,-0.7502,-0.7502,-0.7502,-0.7042,-0.67,-0.67,-0.7099,-0.7387,-0.7494,-0.7399,-0.7387,-0.7498,-0.7502,-0.7502,-0.7502,-0.7502,-0.7502,-0.7502,-0.7502,-0.7502,-0.7502,-0.6965,-0.67,-0.67,-0.6202,-0.5822,-1.0991,-1.1111,-1.1129,-1.1214,-1.1172,-1.1226,0.0,-1.1802,-1.1999,-1.2258,-1.2524,-1.262,-1.2361,-1.2373,-1.2367,-1.2186,-1.2288,-1.2548,-1.3157,0.0,0.0,0.0,0.0,0.0,0.0,0.0,0.0,0.0,0.0,0.0,0.0,-1.2705,-1.2705,-1.2705,-1.2705,-1.2705,-1.2705,-1.2705,-1.2614,-1.2427,-1.2349,-1.2079,-1.1718,-1.1561,-1.1387,-1.1194,0.0,0.0,0.0,-1.1111,-1.1111,-1.1111,-1.1111,-1.1111,-1.1111,-1.1111,-1.1111,-1.1074,-1.0812,-1.0769,-1.0761,-1.0469,-1.0115,-0.9704,-0.946,-0.9378,-0.9346,-0.9349,-0.8969,-0.8548,-0.8434,-0.8343,-0.8289,-0.8354,-0.8608,-0.87,-0.8194,-0.8209,-0.8161,-0.7617,-0.731,-0.7119,-0.7119,-0.693,-0.6777,-0.6777,-0.6777,-0.6777,-0.6777,-0.624,-0.586,-0.586,-0.6395,-0.6777,-0.6777,-0.6777,-0.6777,-0.6777,-0.6777,-0.6777,-0.6777,-0.6777,-0.6777,-0.6777,-0.6777,-0.6777,-0.6777,-0.6128,-0.586,-0.5819,-0.5246,-0.5018,-1.1039,-1.1111,-1.1178,-1.1417,-1.1317,-1.1323,0.0,-1.2107,-1.1999,-1.2258,-1.2524,-1.262,-1.2361,-1.2524,-1.2699,-1.2699,-1.3151,0.0,-1.3507,0.0,0.0,0.0,0.0,0.0,0.0,0.0,0.0,0.0,0.0,0.0,0.0,-1.2705,-1.2705,-1.2705,-1.2705,-1.2705,-1.2705,-1.2705,-1.2705,-1.2699,-1.2439,-1.2312,-1.2288,-1.173,-1.1495,0.0,0.0,0.0,0.0,-1.1111,-1.1111,-1.1111,-1.1111,-1.1111,-1.1111,-1.1111,-1.1111,-1.0999,-1.018,-1.0438,-1.0919,-0.9933,-0.9437,-0.9145,-0.8729,-0.9026,-0.9462,-0.9276,-0.8634,-0.7823,-0.7047,-0.6833,-0.6877,-0.7082,-0.7126,-0.7211,-0.7461,-0.7498,-0.7502,-0.7502,-0.6815,-0.6202,-0.6202,-0.5553,-0.5015,-0.5015,-0.5015,-0.5015,-0.5015,-0.5018,-0.5018,-0.5018,-0.5018,-0.5015,-0.5015,-0.5015,-0.5015,-0.5015,-0.5015,-0.5015,-0.5015,-0.5015,-0.5015,-0.5015,-0.5015,-0.5015,-0.5015,-0.5018,-0.5018,-0.5018,-0.5018,-0.5018,-1.0737,-1.108,-1.1381,-1.1471,-1.1423,-1.1558,-1.2174,-1.2073,-1.2047,-1.2487,-1.2644,-1.2681,-1.2596,-1.265,-1.2771,-1.2958,-1.3133,-1.3369,0.0,0.0,0.0,0.0,0.0,0.0,0.0,0.0,0.0,0.0,0.0,0.0,0.0,-1.2705,-1.2705,-1.2705,-1.2705,-1.2705,-1.2705,-1.2705,-1.2705,-1.2705,-1.262,-1.2487,-1.2306,-1.2137,0.0,0.0,0.0,0.0,0.0,-1.0587,-1.0293,-1.0218,-0.9679,-0.9453,-0.9453,-0.9453,-0.9453,-0.9415,-0.916,-0.915,-0.9216,-0.8874,-0.8524,-0.8205,-0.8087,-0.7938,-0.7752,-0.7615,-0.7493,-0.7308,-0.6905,-0.6889,-0.7021,-0.7077,-0.7256,-0.7243,-0.6727,-0.6623,-0.6433,-0.5899,-0.5553,-0.5362,-0.5362,-0.5171,-0.5018,-0.5018,-0.5018,-0.5018,-0.5018,-0.5018,-0.5018,-0.5018,-0.5018,-0.5018,-0.5018,-0.5018,-0.5018,-0.5018,-0.5018,-0.5018,-0.5018,-0.5018,-0.5018,-0.5018,-0.5018,-0.5018,-0.5018,-0.5018,-0.5018,-0.5018,-0.5018,-0.5018,-1.0894,-1.1236,-1.1543,-1.1736,-1.1712,-1.1778,-1.2343,-1.2258,-1.2161,-1.2487,-1.2638,-1.2674,-1.2572,-1.2638,-1.2795,-1.3079,-1.3161,-1.3423,0.0,0.0,0.0,0.0,0.0,0.0,0.0,0.0,0.0,0.0,0.0,0.0,0.0,0.0,-1.2705,-1.2705,-1.2705,-1.2705,-1.2705,-1.2705,-1.2705,-1.2705,-1.2705,-1.262,-1.2457,-1.1981,0.0,0.0,0.0,0.0,0.0,-0.9746,-0.9463,-0.9387,-0.8894,-0.8661,-0.858,-0.858,-0.8546,-0.8432,-0.8127,-0.8122,-0.8228,-0.7851,-0.7468,-0.7153,-0.685,-0.6934,-0.7098,-0.6702,-0.6663,-0.6678,-0.6215,-0.6224,-0.6294,-0.6294,-0.644,-0.6395,-0.586,-0.5744,-0.5592,-0.5093,-0.5018,-0.5018,-0.5018,-0.5018,-0.5018,-0.5018,-0.5018,-0.5018,-0.5018,-0.5053,-0.508,-0.508,-0.5124,-0.5148,-0.5148,-0.5108,-0.5099,-0.5146,-0.5105,-0.508,-0.508,-0.504,-0.5037,-0.508,-0.508,-0.5102,-0.5148,-0.5102,-0.5105,-0.5148,-0.5102,-0.5065,0.0,-1.1519,-1.1633,-1.2161,-1.2119,-1.2042,-1.259,-1.2499,0.0,-1.2337,-1.2536,-1.2638,-1.2409,-1.2481,-1.2745,-1.3083,-1.3291,0.0,0.0,0.0,0.0,0.0,0.0,0.0,0.0,0.0,0.0,0.0,0.0,0.0,0.0,0.0,-1.2528,-1.2619,-1.2528,-1.2571,-1.2705,-1.2619,-1.2619,-1.2619,-1.2528,-1.2485,-1.2479,-1.1348,0.0,0.0,0.0,0.0,0.0,-0.8692,-0.8608,-0.8608,-0.8518,-0.8351,-0.819,-0.819,-0.808,-0.7817,-0.7053,-0.728,-0.7736,-0.6791,-0.6325,-0.5973,-0.5207,-0.6089,-0.7157,-0.6356,-0.6125,-0.5935,-0.521,-0.5018,-0.5018,-0.5018,-0.5018,-0.5018,-0.5018,-0.5018,-0.5018,-0.5018,-0.5018,-0.5018,-0.5018,-0.5018,-0.5021,-0.5029,-0.5029,-0.5031,-0.504,-0.5135,-0.52,-0.52,-0.5342,-0.5416,-0.5424,-0.5268,-0.5249,-0.5405,-0.5303,-0.52,-0.52,-0.5097,-0.5091,-0.5197,-0.52,-0.5295,-0.541,-0.5254,-0.5257,-0.5407,-0.5252,-0.5099,-1.1591,0.0,-1.182,-1.1946,-1.2119,-1.2306,0.0,-1.2499,-1.2367,-1.2572,-1.2662,-1.2753,-1.2904,-1.2272,-1.2226,-1.3509,-1.3066,0.0,0.0,0.0,0.0,0.0,0.0,0.0,0.0,0.0,0.0,0.0,0.0,0.0,0.0,0.0,-1.088,-1.1628,-1.0923,-1.1268,-1.2705,-1.1972,-1.1628,-1.1628,-1.088,-1.0572,-1.0572,-1.0264,0.0,0.0,0.0,0.0,-0.9275,-0.8165,-0.7718,-0.7627,-0.6684,-0.6289,-0.6251,-0.6251,-0.6212,-0.6173,-0.5983,-0.5941,-0.5896,-0.5518,-0.5326,-0.5246,-0.5057,-0.5285,-0.5553,-0.5323,-0.5285,-0.5246,-0.5057,-0.5018,-0.5018,-0.5018,-0.5018,-0.5018,-0.5018,-0.5018,-0.5018,-0.5018,-0.5018,-0.5018,-0.5018,-0.5018,-0.5048,-0.5135,-0.5146,-0.5181,-0.5276,-0.5353,-0.5366,-0.5366,-0.5394,-0.5407,-0.5456,-0.5396,-0.538,-0.541,-0.5383,-0.5366,-0.5366,-0.5342,-0.5339,-0.5366,-0.5366,-0.5383,-0.541,-0.538,-0.5383,-0.541,-0.5175,-0.5015,-1.1549,-1.192,-1.2121,-1.2373,-1.2578,-1.2723,-1.2868,-1.2687,-1.2403,-1.2114,-1.2057,-1.2008,-1.1816,-1.1277,-1.1247,-1.2307,-1.2005,0.0,0.0,0.0,0.0,0.0,0.0,0.0,0.0,0.0,0.0,0.0,0.0,0.0,0.0,0.0,-1.0139,-1.0621,-1.0139,-1.0399,-1.1397,-1.0928,-1.0669,-1.0669,-1.0139,-0.9879,-0.9879,-0.9449,0.0,0.0,0.0,0.0,-0.812,-0.7244,-0.6815,-0.6621,-0.5948,-0.5611,-0.5479,-0.5479,-0.5404,-0.5329,-0.5329,-0.5249,-0.5129,-0.5015,-0.5018,-0.5018,-0.5018,-0.5018,-0.5018,-0.5018,-0.5018,-0.5018,-0.5018,-0.5018,-0.5018,-0.5018,-0.5018,-0.5018,-0.5018,-0.5018,-0.5031,-0.5086,-0.5094,-0.5113,-0.517,-0.5178,-0.52,-0.526,-0.5312,-0.5336,-0.5402,-0.5417,-0.5453,-0.5453,-0.5502,-0.5561,-0.5586,-0.5572,-0.5537,-0.5537,-0.5483,-0.5453,-0.5453,-0.5398,-0.5396,-0.5453,-0.5507,-0.5491,-0.5405,-0.535,-0.5265,-0.5228,-0.5012,-0.4889,-1.1513,-1.1964,-1.2475,-1.2848,-1.3017,-1.3083,-1.3083,-1.2774,-1.2295,0.0,0.0,-1.0976,-1.0386,-1.0185,0.0,0.0,0.0,0.0,0.0,0.0,0.0,0.0,0.0,0.0,0.0,0.0,0.0,0.0,0.0,0.0,0.0,0.0,0.0,-0.9662,-0.9531,-0.9488,-0.9488,-0.9618,-0.9705,-0.9705,-0.9531,-0.9488,-0.9444,-0.8667,-0.8281,0.0,0.0,0.0,-0.6599,-0.6334,-0.608,-0.5807,-0.5745,-0.5551,-0.53,-0.53,-0.5224,-0.5069,-0.5069,-0.5069,-0.5069,-0.5069,-0.5069,-0.5067,-0.5048,-0.5056,-0.5067,-0.5048,-0.5029,-0.5018,-0.5018,-0.5018,-0.5018,-0.5018,-0.5018,-0.5018,-0.5018,-0.5031,-0.5069,-0.5167,-0.5203,-0.5246,-0.5394,-0.541,-0.5418,-0.5396,-0.5398,-0.5404,-0.5423,-0.5515,-0.5534,-0.5534,-0.5626,-0.5688,-0.5688,-0.5688,-0.5688,-0.5688,-0.5594,-0.5534,-0.5534,-0.548,-0.5472,-0.5532,-0.5637,-0.5599,-0.546,-0.5318,-0.5231,-0.5097,-0.4968,-0.4844,-1.1992,-1.2415,-1.2608,-1.2475,-1.274,-1.3083,-1.3083,-1.229,-1.157,0.0,0.0,0.0,0.0,-1.0049,0.0,0.0,0.0,0.0,0.0,0.0,0.0,0.0,0.0,0.0,0.0,0.0,0.0,0.0,0.0,0.0,0.0,0.0,0.0,-0.8671,-0.7925,-0.7533,-0.7533,-0.8321,-0.8715,-0.8715,-0.7925,-0.7533,-0.7533,-0.736,-0.7316,0.0,0.0,-0.6807,-0.6706,-0.6174,-0.5934,-0.5862,-0.5588,-0.5413,-0.5397,-0.5397,-0.5355,-0.5358,-0.5358,-0.5358,-0.5358,-0.5358,-0.5358,-0.5336,-0.5192,-0.5233,-0.5333,-0.5189,-0.5091,-0.5018,-0.5018,-0.5018,-0.5018,-0.5018,-0.5018,-0.5018,-0.5018,-0.5094,-0.5165,-0.5184,-0.5312,-0.5388,-0.5407,-0.541,-0.5404,-0.5464,-0.5481,-0.5518,-0.5621,-0.565,-0.5661,-0.5661,-0.5677,-0.5688,-0.5688,-0.5688,-0.5688,-0.5688,-0.5672,-0.5661,-0.5661,-0.5642,-0.5642,-0.5661,-0.568,-0.5688,-0.5644,-0.5625,-0.5625,-0.5597,-0.5401,-0.5312,-1.188,-1.2397,-1.2583,-1.2,-1.2248,-1.2666,-1.2666,-1.1695,-1.0735,0.0,0.0,0.0,0.0,0.0,0.0,0.0,0.0,0.0,0.0,0.0,0.0,0.0,0.0,0.0,0.0,0.0,0.0,0.0,0.0,0.0,0.0,0.0,0.0,0.0,-0.7316,-0.7095,-0.7095,-0.7536,-0.7753,-0.7753,-0.7316,-0.7095,-0.7095,-0.7095,-0.7095,-0.7095,0.0,-0.6704,-0.6561,-0.6148,-0.5866,-0.5671,-0.5531,-0.5426,-0.541,-0.541,-0.541,-0.541,-0.541,-0.541,-0.541,-0.541,-0.541,-0.5402,-0.5342,-0.5366,-0.5399,-0.5342,-0.5249,-0.5208,-0.5208,-0.5208,-0.5208,-0.5208,-0.5208,-0.5208,-0.5208,-0.5249,-0.5303,-0.5368,-0.5428,-0.5488,-0.5553,-0.5564,-0.5586,-0.5597,-0.5605,-0.5626,-0.5683,-0.5688,-0.5688,-0.5688,-0.5688,-0.5688,-0.5688,-0.524,-0.5151,-0.5688,-0.5688,-0.5688,-0.5688,-0.5193,-0.4926,-0.4926,-0.4433,-0.4119,-0.3983,-0.3983,-0.3894,-0.3805,-0.3714,-0.358,-1.1848,-1.2306,-1.2448,-1.181,-1.1941,-1.2234,-1.201,-1.1022,-0.9915,-0.9382,0.0,0.0,0.0,0.0,0.0,0.0,0.0,0.0,0.0,0.0,0.0,0.0,0.0,0.0,0.0,0.0,0.0,0.0,0.0,0.0,0.0,0.0,0.0,0.0,-0.7095,-0.7095,-0.7095,-0.7095,-0.7095,-0.7095,-0.7095,-0.7095,-0.7095,-0.7095,-0.7051,-0.701,-0.6792,-0.6567,-0.6299,-0.6083,-0.5808,-0.5548,-0.5548,-0.5494,-0.5455,-0.5455,-0.5455,-0.5455,-0.5455,-0.5455,-0.5455,-0.5455,-0.5455,-0.545,-0.542,-0.5431,-0.545,-0.542,-0.5431,-0.5442,-0.5427,-0.541,-0.541,-0.541,-0.541,-0.541,-0.541,-0.539,-0.5439,-0.5489,-0.5529,-0.558,-0.5672,-0.5688,-0.5688,-0.5688,-0.5688,-0.5688,-0.5688,-0.5688,-0.5688,-0.5688,-0.5688,-0.5599,-0.5374,-0.4523,-0.43,-0.5015,-0.506,-0.506,-0.506,-0.4344,-0.3985,-0.3985,-0.3269,-0.2777,-0.2597,-0.2597,-0.2508,-0.2373,-0.2282,-0.2148,-1.2071,-1.2312,-1.2307,-1.2103,-1.2067,-1.193,-1.1264,-1.0036,-0.9263,-0.9874,0.0,0.0,0.0,0.0,0.0,0.0,0.0,0.0,0.0,0.0,0.0,0.0,0.0,0.0,0.0,0.0,0.0,0.0,0.0,0.0,0.0,0.0,0.0,0.0,0.0,-0.7095,-0.7095,-0.7095,-0.7095,-0.7095,-0.7095,-0.7095,-0.7095,-0.7095,-0.701,-0.6792,-0.6523,-0.6302,-0.6083,-0.5822,-0.5727,-0.5677,-0.5677,-0.5672,-0.5661,-0.5661,-0.5661,-0.5661,-0.5661,-0.5661,-0.5661,-0.5661,-0.5661,-0.5642,-0.5529,-0.5572,-0.564,-0.5526,-0.5575,-0.5654,-0.5428,-0.541,-0.541,-0.541,-0.541,-0.541,-0.541,-0.5458,-0.5497,-0.5505,-0.5599,-0.568,-0.5688,-0.5688,-0.5688,-0.5688,-0.5688,-0.5688,-0.5688,-0.5688,-0.5688,-0.5688,-0.5688,-0.5329,-0.4478,-0.3537,-0.3045,-0.3092,-0.3092,-0.3092,-0.3092,-0.3045,-0.3001,-0.3001,-0.2913,-0.2911,-0.2867,-0.2867,-0.2867,-0.2822,-0.2593,-0.2457,-1.0428,-1.0616,-1.0707,-1.0287,-1.0315,-1.0389,-1.0187,-0.93,-0.8646,-0.9035,-0.8628,0.0,0.0,0.0,0.0,0.0,0.0,0.0,0.0,0.0,0.0,0.0,0.0,0.0,0.0,0.0,0.0,0.0,0.0,0.0,0.0,0.0,0.0,0.0,0.0,-0.7095,-0.7095,-0.7095,-0.7095,-0.7095,-0.7095,-0.7095,-0.7095,-0.7095,-0.701,-0.6795,-0.652,-0.6302,-0.6083,-0.5822,-0.5688,-0.5688,-0.5688,-0.5688,-0.5688,-0.5688,-0.5688,-0.5688,-0.5688,-0.5688,-0.5688,-0.5688,-0.5688,-0.568,-0.5634,-0.5653,-0.568,-0.5634,-0.5653,-0.5669,-0.5621,-0.5597,-0.5597,-0.5597,-0.5597,-0.5597,-0.5597,-0.5588,-0.5621,-0.5621,-0.5656,-0.5688,-0.5688,-0.5688,-0.5688,-0.5688,-0.5688,-0.5688,-0.5688,-0.5688,-0.5466,-0.4882,-0.4301,-0.3575,-0.2602,-0.2186,-0.1721,-0.1118,-0.2227,-0.2883,-0.2918,-0.23,-0.1951,-0.1953,-0.1408,-0.1083,-0.1096,-0.1083,-0.1077,-0.1077,-0.0806,-0.0626,-0.9411,-0.9658,-0.9797,-0.9179,-0.9203,-0.9377,-0.921,-0.8744,-0.8326,-0.8516,-0.8438,-0.8309,0.0,0.0,0.0,0.0,0.0,0.0,0.0,0.0,0.0,0.0,0.0,0.0,0.0,0.0,0.0,0.0,0.0,0.0,0.0,0.0,0.0,0.0,0.0,-0.7095,-0.7095,-0.7095,-0.7095,-0.7095,-0.7095,-0.7095,-0.7095,-0.7095,-0.701,-0.6795,-0.652,-0.6302,-0.6083,-0.5822,-0.5688,-0.5688,-0.5688,-0.5688,-0.5688,-0.5688,-0.5688,-0.5688,-0.5688,-0.5688,-0.5688,-0.5688,-0.5688,-0.5688,-0.5688,-0.5688,-0.5688,-0.5688,-0.5688,-0.5688,-0.5688,-0.5688,-0.5688,-0.5688,-0.5688,-0.5688,-0.5688,-0.5688,-0.5688,-0.5688,-0.5688,-0.5688,-0.5688,-0.5688,-0.5688,-0.5688,-0.5447,-0.5243,-0.5243,-0.5001,-0.4563,-0.3926,-0.3003,-0.2154,-0.1473,-0.1142,-0.0667,-0.0048,-0.1253,-0.1976,-0.2002,-0.1335,-0.0973,-0.0951,-0.0325,0.0,0.0,0.0,0.0,0.0,0.0362,0.0587,-0.9377,-0.9701,-0.9831,-0.9166,-0.9204,-0.9172,-0.8486,-0.8323,-0.8353,-0.8648,-0.8584,-0.8391,-0.8046,0.0,0.0,0.0,0.0,0.0,0.0,0.0,0.0,0.0,0.0,0.0,0.0,0.0,0.0,0.0,0.0,0.0,0.0,0.0,0.0,0.0,0.0,0.0,-0.7095,-0.7095,-0.7095,-0.7095,-0.7095,-0.7095,-0.7095,-0.7095,-0.701,-0.6795,-0.652,-0.6299,-0.6083,-0.5822,-0.5688,-0.5688,-0.5688,-0.5688,-0.5688,-0.5688,-0.5688,-0.5688,-0.5688,-0.5688,-0.5688,-0.5688,-0.5688,-0.5688,-0.5688,-0.5688,-0.5688,-0.5688,-0.5688,-0.5688,-0.5688,-0.5688,-0.5688,-0.5688,-0.5688,-0.5688,-0.5688,-0.5688,-0.5688,-0.5688,-0.5688,-0.5688,-0.5691,-0.5691,-0.5691,-0.5691,-0.4874,-0.4286,-0.4286,-0.3473,-0.2899,-0.29,-0.1997,-0.138,-0.1381,-0.0524,0.0,0.0,0.0,0.0,0.0,0.0,0.0,0.0,0.0,0.0,0.0,0.0,0.0,0.0,0.0463,0.0686,-0.7677,-0.7835,0.0,-0.802,0.0,0.0,0.0,-0.8269,0.0,0.0,-0.8367,-0.8272,0.0,0.0,0.0,0.0,0.0,0.0,0.0,0.0,0.0,0.0,0.0,0.0,0.0,0.0,0.0,0.0,0.0,0.0,0.0,0.0,0.0,0.0,0.0,0.0,-0.7095,-0.7095,-0.7095,-0.7095,-0.7095,-0.7095,-0.7095,-0.7095,-0.6874,-0.652,-0.6432,-0.6169,-0.5822,-0.5733,-0.5688,-0.5688,-0.5688,-0.5688,-0.5688,-0.5688,-0.5688,-0.5688,-0.5688,-0.5688,-0.5688,-0.5688,-0.5688,-0.5688,-0.5688,-0.5688,-0.5688,-0.5688,-0.5688,-0.5688,-0.5688,-0.5688,-0.5688,-0.5688,-0.5688,-0.5688,-0.5688,-0.5688,-0.5688,-0.5688,-0.5151,-0.4723,-0.4697,-0.4158,-0.3719,-0.3728,-0.3473,-0.3296,-0.3296,-0.2463,-0.1865,-0.1842,-0.0972,-0.0391,-0.0397,-0.0149,0.0,0.0,0.0,0.0,0.0,0.0,0.0,0.0,0.0,0.0,0.0,0.0,0.0,0.0,0.052,0.0754,-0.7165,-0.7339,0.0,-0.775,-0.7953,-0.8133,-0.8133,0.0,0.0,0.0,0.0,0.0,0.0,0.0,0.0,0.0,0.0,0.0,0.0,0.0,0.0,0.0,0.0,0.0,0.0,0.0,0.0,0.0,0.0,0.0,0.0,0.0,0.0,0.0,0.0,0.0,-0.7095,-0.7095,-0.7095,-0.7095,-0.7095,-0.7095,-0.7095,-0.7095,-0.6962,-0.6653,-0.6476,-0.6124,-0.5688,-0.5688,-0.5688,-0.5688,-0.5688,-0.5688,-0.5688,-0.5688,-0.5688,-0.5688,-0.5688,-0.5688,-0.5688,-0.5688,-0.5688,-0.5688,-0.5688,-0.5688,-0.5688,-0.5688,-0.5688,-0.5688,-0.5688,-0.5688,-0.5688,-0.5688,-0.5688,-0.5688,-0.5688,-0.5419,-0.524,-0.5644,-0.5001,-0.4365,-0.4324,-0.3898,-0.3373,-0.2941,-0.2536,-0.2171,-0.1799,-0.1218,-0.0832,-0.0842,-0.0347,0.0,0.0,0.0,0.0,0.0,0.0,0.0,0.0,0.0,0.0,0.0,0.0,0.0,0.0,0.0,0.0,0.0,0.0531,0.0817,-0.7451,-0.7784,-0.7968,-0.7968,-0.8136,0.0,-0.8248,-0.8248,0.0,0.0,0.0,0.0,0.0,0.0,0.0,0.0,0.0,0.0,0.0,0.0,0.0,0.0,0.0,0.0,0.0,0.0,0.0,0.0,0.0,0.0,0.0,0.0,0.0,0.0,0.0,0.0,-0.7095,-0.7095,-0.7095,0.0,-0.7095,-0.7095,-0.7095,-0.7095,-0.7095,-0.7051,-0.6564,-0.6124,-0.5733,-0.5688,-0.5688,-0.5688,-0.5688,-0.5688,-0.5688,-0.5688,-0.5688,-0.5688,-0.5688,-0.5688,-0.5688,-0.5688,-0.5688,-0.5688,-0.5688,-0.5688,-0.5688,-0.5688,-0.5688,-0.5688,-0.5688,-0.5688,-0.5688,-0.5599,-0.5555,-0.5557,-0.5565,-0.4848,-0.4446,-0.5268,-0.4797,-0.4162,-0.4077,-0.4047,-0.3766,-0.2771,-0.1845,-0.094,-0.0101,0.0,0.0,0.0,0.0,0.0,0.0,0.0,0.0,0.0,0.0,0.0,0.0,0.0,0.0,0.0,0.0,0.0,0.0,0.0,0.0,0.0,0.0541,0.078,-0.7203,-0.7496,0.0,0.0,-0.7974,-0.8089,-0.8089,-0.8089,0.0,0.0,0.0,0.0,0.0,0.0,0.0,0.0,0.0,0.0,0.0,0.0,0.0,0.0,0.0,0.0,0.0,0.0,0.0,0.0,0.0,0.0,0.0,0.0,0.0,0.0,0.0,-0.7095,-0.7095,-0.7095,-0.7095,0.0,-0.7095,-0.7095,-0.7095,-0.7095,-0.701,-0.6836,-0.6349,-0.6127,-0.5997,-0.5777,-0.5688,-0.5688,-0.5688,-0.5688,-0.5688,-0.5688,-0.5688,-0.5688,-0.5688,-0.5688,-0.5688,-0.5688,-0.5688,-0.5688,-0.5688,-0.5688,-0.5688,-0.5688,-0.5688,-0.5688,-0.5688,-0.5688,-0.5508,-0.4792,-0.4612,-0.4587,-0.4611,-0.3848,-0.3269,-0.3462,-0.2732,-0.2041,-0.2025,-0.1457,-0.0882,-0.0646,-0.045,-0.0251,-0.005,0.0,0.0,0.0,0.0,0.0,0.0,0.0,0.0,0.0,0.0,0.0,0.0,0.0,0.0,0.0,0.0,0.0,0.0,0.0,0.0,0.0,0.0552,0.0801,-0.7387,0.0,0.0,-0.771,0.0,-0.764,-0.764,-0.764,0.0,0.0,0.0,0.0,0.0,0.0,0.0,0.0,0.0,0.0,0.0,0.0,0.0,0.0,0.0,0.0,0.0,0.0,0.0,0.0,0.0,0.0,0.0,0.0,0.0,0.0,-0.7095,-0.7095,-0.7095,-0.7095,-0.7095,-0.7095,-0.7095,-0.7095,-0.7095,-0.7095,-0.701,-0.6792,-0.639,-0.6169,-0.6083,-0.5822,-0.5688,-0.5688,-0.5688,-0.5688,-0.5688,-0.5688,-0.5688,-0.5688,-0.5688,-0.5688,-0.5688,-0.5688,-0.5688,-0.5688,-0.5688,-0.5688,-0.5688,-0.5688,-0.5688,-0.5688,-0.5688,-0.5367,-0.4904,-0.4404,-0.4314,-0.4189,-0.3724,-0.288,-0.2301,-0.2799,-0.2156,-0.1453,-0.1418,-0.0643,0.0,0.0,0.0,0.0,0.0,0.0,0.0,0.0,0.0,0.0,0.0,0.0,0.0,0.0,0.0,0.0,0.0,0.0,0.0,0.0,0.0,0.0,0.0,0.0,0.0,0.0,0.0556,0.0808,-0.7405,-0.76,-0.7624,-0.7552,-0.7341,0.0,-0.7188,0.0,0.0,0.0,0.0,0.0,0.0,0.0,0.0,0.0,0.0,0.0,0.0,0.0,0.0,0.0,0.0,0.0,0.0,0.0,0.0,0.0,0.0,0.0,0.0,0.0,-0.7095,-0.7095,-0.7095,-0.7095,-0.7095,-0.7095,-0.7095,-0.7095,-0.7095,-0.7095,-0.7095,-0.7095,-0.701,-0.6836,-0.652,-0.6299,-0.6127,-0.5822,-0.5688,-0.5688,-0.5688,-0.5688,-0.5688,-0.5688,-0.5688,-0.5688,-0.5688,-0.5688,-0.5688,-0.5688,-0.5688,-0.5688,-0.5688,-0.5688,-0.5644,-0.5508,-0.5466,-0.5419,-0.524,-0.4634,-0.4009,-0.3825,-0.38,-0.3587,-0.2795,-0.1842,-0.1388,-0.2256,-0.1802,-0.1281,-0.1182,-0.05,0.0,0.0,0.0,0.0,0.0,0.0,0.0,0.0,0.0,0.0,0.0,0.0,0.0,0.0,0.0,0.0,0.0,0.0,0.0,0.0,0.0,0.0,0.0,0.0,0.0,0.0,0.0505,0.0758,-0.6606,0.0,-0.7073,0.0,-0.7238,-0.7188,0.0,0.0,0.0,0.0,0.0,0.0,0.0,0.0,0.0,0.0,0.0,0.0,0.0,0.0,0.0,0.0,0.0,0.0,0.0,0.0,0.0,0.0,0.0,0.0,0.0,-0.7095,-0.7095,-0.7095,-0.7095,-0.7095,-0.7095,-0.7095,-0.7095,-0.7095,-0.7095,-0.7095,-0.7095,-0.7095,-0.7095,-0.7054,-0.6605,-0.6387,-0.6343,-0.5863,-0.5688,-0.5688,-0.5688,-0.5688,-0.5688,-0.5688,-0.5688,-0.5688,-0.5688,-0.5688,-0.5688,-0.5688,-0.5688,-0.5688,-0.5688,-0.5688,-0.551,-0.4701,-0.4478,-0.43,-0.3494,-0.3181,-0.2859,-0.1984,-0.1801,-0.175,-0.1604,-0.0877,-0.0246,-0.035,-0.0301,-0.0201,-0.0201,-0.0101,0.0,0.0,0.0,0.0,0.0,0.0,0.0,0.0,0.0,0.0,0.0,0.0,0.0,0.0,0.0,0.0,0.0,0.0,0.0,0.0,0.0,0.0,0.0,0.0,0.0,0.0,0.0303,0.0556,-0.6479,-0.6629,-0.6789,0.0,-0.6834,-0.6736,-0.6736,0.0,0.0,0.0,0.0,0.0,0.0,0.0,0.0,0.0,0.0,0.0,0.0,0.0,0.0,0.0,0.0,0.0,0.0,0.0,0.0,0.0,0.0,0.0,-0.7095,-0.7095,-0.7095,-0.7095,-0.7095,-0.7095,-0.7095,-0.7095,-0.7095,-0.7095,-0.7095,-0.7095,-0.7095,-0.7095,-0.7095,-0.7095,-0.6609,-0.6384,-0.6387,-0.5908,-0.5688,-0.5688,-0.5688,-0.5688,-0.5688,-0.5688,-0.5688,-0.5688,-0.5688,-0.5688,-0.5688,-0.5688,-0.5688,-0.5688,-0.5688,-0.5329,-0.4848,-0.4402,-0.3913,-0.3424,-0.3003,-0.2492,-0.1957,-0.1528,-0.0976,-0.0598,-0.0598,-0.0299,0.0,0.0,0.0,0.0,0.0,0.0,0.0,0.0,0.0,0.0,0.0,0.0,0.0,0.0,0.0,0.0,0.0,0.0,0.0,0.0,0.0,0.0,0.0,0.0,0.0,0.0,0.0,0.0,0.0,0.0,0.0101,0.0253,0.0505,0.0758,0.0,0.0,-0.6442,-0.6571,-0.65,-0.6387,0.0,0.0,0.0,0.0,0.0,0.0,0.0,0.0,0.0,0.0,0.0,0.0,0.0,0.0,0.0,0.0,0.0,0.0,0.0,0.0,0.0,0.0,0.0,0.0,-0.7095,-0.7095,-0.7095,-0.7095,-0.7095,-0.7095,-0.7095,-0.7095,-0.7095,-0.7095,-0.7095,-0.7095,-0.7095,-0.7095,-0.7095,-0.7095,-0.6697,-0.652,-0.6476,-0.5997,-0.5819,-0.5777,-0.5733,-0.5688,-0.5688,-0.5688,-0.5688,-0.5688,-0.5688,-0.5688,-0.5688,-0.5688,-0.5528,-0.5325,-0.5325,-0.4709,-0.3877,-0.3655,-0.3067,-0.2472,-0.2226,-0.1593,-0.1029,-0.1029,-0.0498,0.0,0.0,0.0,0.0,0.0,0.0,0.0,0.0,0.0,0.0,0.0,0.0,0.0,0.0,0.0,0.0,0.0,0.0,0.0,0.0,0.0,0.0,0.0,0.0,0.0,0.0,0.0,0.0,0.0,0.0,0.0,0.0,0.0,0.0101,0.0303,0.0556,0.0859,0.0,-0.5912,0.0,-0.6202,-0.6352,0.0,0.0,0.0,0.0,0.0,0.0,0.0,0.0,0.0,0.0,0.0,0.0,0.0,0.0,0.0,0.0,0.0,0.0,0.0,0.0,0.0,0.0,0.0,0.0,0.0,-0.7095,-0.7095,-0.7095,-0.7095,-0.7095,-0.7095,-0.7095,-0.7095,-0.7095,-0.7095,-0.7095,-0.7095,-0.7095,-0.7095,-0.7095,-0.7095,-0.6881,-0.6792,-0.6751,-0.626,-0.6083,-0.6038,-0.5777,-0.5688,-0.5688,-0.5688,-0.5688,-0.5688,-0.5688,-0.5688,-0.5688,-0.5688,-0.5079,-0.4372,-0.4372,-0.3731,-0.2796,-0.1804,-0.152,-0.1283,-0.0381,-0.0097,-0.0049,-0.0049,-0.005,0.0,0.0,0.0,0.0,0.0,0.0,0.0,0.0,0.0,0.0,0.0,0.0,0.0,0.0,0.0,0.0,0.0,0.0,0.0,0.0,0.0,0.0,0.0,0.0,0.0,0.0,0.0,0.0,0.0,0.0,0.0,0.0,0.0,0.0,0.0051,0.0303,0.0556,0.0,0.0,0.0,-0.5784,-0.5541,-0.5305,0.0,0.0,0.0,0.0,0.0,0.0,0.0,0.0,0.0,0.0,0.0,0.0,0.0,0.0,0.0,0.0,0.0,0.0,0.0,0.0,0.0,0.0,0.0,0.0,-0.696,-0.6912,-0.6902,-0.6957,-0.696,-0.7004,-0.7095,-0.7095,-0.7095,-0.7095,-0.7095,-0.7095,-0.7095,-0.7095,-0.7095,-0.7095,-0.701,-0.6925,-0.6751,-0.6305,-0.6083,-0.6083,-0.5819,-0.5688,-0.5688,-0.5688,-0.5688,-0.5688,-0.5688,-0.5328,-0.479,-0.479,-0.4162,-0.3384,-0.3384,-0.2693,-0.186,-0.1498,-0.097,-0.0438,-0.0099,0.0,0.0,0.0,0.0,0.0,0.0,0.0,0.0,0.0,0.0,0.0,0.0,0.0,0.0,0.0,0.0,0.0,0.0,0.0,0.0,0.0,0.0,0.0,0.0,0.0,0.0,0.0,0.0,0.0,0.0,0.0,0.0,0.0,0.0,0.0,0.0,0.0,0.0101,0.0253,0.0556,0.0808,-0.5598,0.0,0.0,0.0,0.0,0.0,0.0,0.0,0.0,0.0,0.0,0.0,0.0,0.0,0.0,0.0,0.0,0.0,0.0,0.0,0.0,0.0,0.0,0.0,0.0,0.0,0.0,0.0,0.0,0.0,-0.6953,-0.6858,-0.6848,-0.6953,-0.691,-0.6953,-0.7095,-0.7048,-0.7048,-0.7095,-0.7095,-0.7095,-0.7095,-0.7095,-0.7095,-0.7095,-0.7095,-0.701,-0.6881,-0.639,-0.6213,-0.6171,-0.5822,-0.5688,-0.5688,-0.5688,-0.5508,-0.5245,-0.5233,-0.4606,-0.383,-0.3809,-0.3163,-0.2401,-0.2401,-0.1689,-0.0925,-0.0937,-0.0495,0.0,0.0,0.0,0.0,0.0,0.0,0.0,0.0,0.0,0.0,0.0,0.0,0.0,0.0,0.0,0.0,0.0,0.0,0.0,0.0,0.0,0.0,0.0,0.0,0.0,0.0,0.0,0.0,0.0,0.0,0.0,0.0,0.0,0.0,0.0,0.0,0.0,0.0,0.0,0.0101,0.0253,0.0657,0.101,0.0,0.0,0.0,0.0,0.0,0.0,0.0,0.0,0.0,0.0,0.0,0.0,0.0,0.0,0.0,0.0,0.0,0.0,0.0,0.0,0.0,0.0,0.0,0.0,0.0,0.0,0.0,0.0,0.0,-0.6467,-0.7082,-0.696,-0.695,-0.7085,-0.696,-0.6957,-0.7095,-0.696,-0.696,-0.7095,-0.7095,-0.7095,-0.7095,-0.7095,-0.7095,-0.7095,-0.7095,-0.7095,-0.7051,-0.6609,-0.6384,-0.6343,-0.5908,-0.5688,-0.5688,-0.5688,-0.5107,-0.4314,-0.4304,-0.3644,-0.2873,-0.2836,-0.2171,-0.1373,-0.1373,-0.0746,0.0,0.0,0.0,0.0,0.0,0.0,0.0,0.0,0.0,0.0,0.0,0.0,0.0,0.0,0.0,0.0,0.0,0.0,0.0,0.0,0.0,0.0,0.0,0.0,0.0,0.0,0.0,0.0,0.0,0.0,0.0,0.0,0.0,0.0,0.0,0.0,0.0,0.0,0.0,0.0,0.0,0.0,0.0,0.0,0.0556,0.1111,-0.5609,0.0,0.0,0.0,0.0,0.0,0.0,0.0,0.0,0.0,0.0,0.0,0.0,0.0,0.0,0.0,0.0,0.0,0.0,0.0,0.0,0.0,0.0,0.0,0.0,0.0,0.0,0.0,-0.6266,-0.6427,-0.694,-0.6906,-0.6903,-0.6943,-0.7004,-0.7055,-0.7095,-0.7058,-0.7058,-0.7095,-0.7095,-0.7095,-0.7095,-0.7095,-0.7095,-0.7095,-0.7095,-0.7095,-0.7098,-0.6789,-0.6567,-0.6387,-0.6083,-0.5863,-0.5688,-0.5688,-0.5105,-0.43,-0.4278,-0.3196,-0.1832,-0.1794,-0.1182,-0.0401,-0.0401,-0.0201,0.0,0.0,0.0,0.0,0.0,0.0,0.0,0.0,0.0,0.0,0.0,0.0,0.0,0.0,0.0,0.0,0.0,0.0,0.0,0.0,0.0,0.0,0.0,0.0,0.0,0.0,0.0,0.0,0.0,0.0,0.0,0.0,0.0,0.0,0.0,0.0,0.0,0.0,0.0,0.0,0.0,0.0,0.0,0.0,0.0556,0.1111,-0.5719,-0.5931,0.0,0.0,0.0,0.0,0.0,0.0,0.0,0.0,0.0,0.0,0.0,0.0,0.0,0.0,0.0,0.0,0.0,0.0,0.0,0.0,0.0,0.0,0.0,0.0,0.0,0.0,-0.6225,-0.6411,-0.6886,-0.6943,-0.6974,-0.6974,-0.6997,-0.7038,-0.7095,-0.7038,-0.7038,-0.7095,-0.7095,-0.7095,-0.7095,-0.7095,-0.7095,-0.7095,-0.7095,-0.7095,-0.7051,-0.6567,-0.6346,-0.6387,-0.6038,-0.5822,-0.5644,-0.524,-0.4533,-0.3646,-0.3258,-0.2099,-0.0834,-0.0792,-0.045,0.0,0.0,0.0,0.0,0.0,0.0,0.0,0.0,0.0,0.0,0.0,0.0,0.0,0.0,0.0,0.0,0.0,0.0,0.0,0.0,0.0,0.0,0.0,0.0,0.0,0.0,0.0,0.0,0.0,0.0,0.0,0.0,0.0,0.0,0.0,0.0,0.0,0.0,0.0,0.0,0.0,0.0,0.0,0.0,0.0,0.0101,0.0354,0.0657,0.1111,-0.5932,-0.6058,0.0,0.0,0.0,0.0,-0.5073,-0.489,0.0,0.0,0.0,0.0,0.0,0.0,0.0,0.0,0.0,0.0,0.0,0.0,0.0,0.0,0.0,0.0,0.0,0.0,-0.5822,-0.6083,-0.6197,-0.6476,-0.691,-0.7028,-0.7095,-0.7095,-0.6974,-0.697,-0.7095,-0.697,-0.697,-0.7095,-0.7095,-0.7095,-0.7095,-0.7095,-0.7095,-0.7095,-0.7007,-0.6962,-0.6874,-0.5897,-0.5764,-0.6207,-0.5683,-0.5419,-0.5285,-0.4444,-0.3549,-0.2599,-0.1706,-0.0774,0.0,0.0,0.0,0.0,0.0,0.0,0.0,0.0,0.0,0.0,0.0,0.0,0.0,0.0,0.0,0.0,0.0,0.0,0.0,0.0,0.0,0.0,0.0,0.0,0.0,0.0,0.0,0.0,0.0,0.0,0.0,0.0,0.0,0.0,0.0,0.0,0.0,0.0,0.0,0.0,0.0,0.0,0.0,0.0,0.0,0.0,0.0,0.0051,0.0303,0.0808,0.0808,0.1111,0.0,0.0,0.0,0.0,0.0,0.0,0.0,-0.5862,0.0,0.0,0.0,0.0,0.0,0.0,0.0,0.0,0.0,0.0,0.0,0.0,0.0,0.0,0.0,0.0,0.0,0.0,-0.5822,-0.6083,-0.6457,-0.6794,-0.7055,-0.7082,-0.7095,-0.7095,-0.7068,-0.7068,-0.7095,-0.7068,-0.7068,-0.7095,-0.7095,-0.7095,-0.7095,-0.7095,-0.7095,-0.7051,-0.6296,-0.5985,-0.5852,-0.4559,-0.4512,-0.5176,-0.4336,-0.376,-0.3411,-0.3235,-0.2554,-0.1659,-0.1451,-0.079,0.0,0.0,0.0,0.0,0.0,0.0,0.0,0.0,0.0,0.0,0.0,0.0,0.0,0.0,0.0,0.0,0.0,0.0,0.0,0.0,0.0,0.0,0.0,0.0,0.0,0.0,0.0,0.0,0.0,0.0,0.0,0.0,0.0,0.0,0.0,0.0,0.0,0.0,0.0,0.0,0.0,0.0,0.0,0.0,0.0,0.0,0.0,0.0202,0.0505,0.0808,0.101,0.1313,0.0,0.0,0.0,-0.6702,0.0,0.0,0.0,0.0,0.0,0.0,0.0,0.0,0.0,0.0,0.0,0.0,0.0,0.0,0.0,0.0,0.0,0.0,0.0,0.0,0.0,0.0,-0.5863,-0.6213,-0.6479,-0.6745,-0.7095,-0.7095,-0.7095,-0.7095,-0.7095,-0.7095,-0.7095,-0.7095,-0.7095,-0.7095,-0.7095,-0.7095,-0.7095,-0.7095,-0.683,-0.6384,-0.5897,-0.545,-0.4914,-0.3578,-0.331,-0.371,-0.34,-0.3178,-0.2962,-0.2381,-0.1822,-0.1336,-0.0877,-0.0397,0.0,0.0,0.0,0.0,0.0,0.0,0.0,0.0,0.0,0.0,0.0,0.0,0.0,0.0,0.0,0.0,0.0,0.0,0.0,0.0,0.0,0.0,0.0,0.0,0.0,0.0,0.0,0.0,0.0,0.0,0.0,0.0,0.0,0.0,0.0,0.0,0.0,0.0,0.0,0.0,0.0,0.0,0.0,0.0,0.0,0.0,0.0,0.0404,0.0657,0.0808,0.1061,0.1364,0.0,0.0,0.0,0.0,0.0,-0.682,0.0,0.0,0.0,-0.63,0.0,0.0,0.0,0.0,0.0,0.0,0.0,0.0,0.0,0.0,0.0,0.0,0.0,0.0,0.0,0.0,-0.5683,-0.6299,-0.6163,-0.634,-0.6918,-0.7007,-0.7054,-0.7054,-0.7098,-0.7095,-0.7095,-0.7095,-0.7095,-0.7095,-0.6918,-0.683,-0.683,-0.665,-0.616,-0.5406,-0.523,-0.4736,-0.3933,-0.2685,-0.2194,-0.2239,-0.2374,-0.2508,-0.2557,-0.1518,-0.1126,-0.1003,-0.0245,0.0,0.0,0.0,0.0,0.0,0.0,0.0,0.0,0.0,0.0,0.0,0.0,0.0,0.0,0.0,0.0,0.0,0.0,0.0,0.0,0.0,0.0,0.0,0.0,0.0,0.0,0.0,0.0,0.0,0.0,0.0,0.0,0.0,0.0,0.0,0.0,0.0,0.0,0.0,0.0,0.0,0.0,0.0,0.0,0.0,0.0,0.0,0.0,0.0505,0.0758,0.0808,0.1111,0.1415,0.0,0.0,0.0,0.0,-0.7315,0.0,0.0,0.0,-0.6391,-0.5896,0.0,0.0,0.0,0.0,0.0,0.0,0.0,0.0,0.0,0.0,0.0,0.0,0.0,0.0,0.0,0.0,0.0,-0.6038,-0.5364,-0.5361,-0.6432,-0.67,-0.6836,-0.6836,-0.701,-0.7095,-0.7095,-0.7095,-0.7095,-0.7095,-0.6251,-0.5852,-0.5852,-0.5003,-0.4554,-0.4423,-0.358,-0.3179,-0.2956,-0.1479,-0.1031,-0.1211,-0.0852,-0.0717,-0.0676,-0.0281,-0.0143,-0.0144,-0.005,0.0,0.0,0.0,0.0,0.0,0.0,0.0,0.0,0.0,0.0,0.0,0.0,0.0,0.0,0.0,0.0,0.0,0.0,0.0,0.0,0.0,0.0,0.0,0.0,0.0,0.0,0.0,0.0,0.0,0.0,0.0,0.0,0.0,0.0,0.0,0.0,0.0,0.0,0.0,0.0,0.0,0.0,0.0,0.0,0.0,0.0,0.0,0.0,0.0303,0.0556,0.0808,0.1314,0.1566,0.0,0.0,0.0,0.0,0.0,0.0,0.0,0.0,-0.6437,0.0,0.0,0.0,0.0,0.0,0.0,0.0,0.0,0.0,0.0,0.0,0.0,0.0,0.0,0.0,0.0,0.0,0.0,0.0,0.0,-0.5184,-0.634,-0.652,-0.6656,-0.6795,-0.6881,-0.6966,-0.7095,-0.7095,-0.683,-0.6299,-0.6428,-0.5938,-0.4914,-0.5048,-0.4514,-0.3446,-0.309,-0.2553,-0.1973,-0.1076,-0.0852,-0.1031,-0.0404,-0.0269,-0.036,-0.0094,0.0,0.0,0.0,0.0,0.0,0.0,0.0,0.0,0.0,0.0,0.0,0.0,0.0,0.0,0.0,0.0,0.0,0.0,0.0,0.0,0.0,0.0,0.0,0.0,0.0,0.0,0.0,0.0,0.0,0.0,0.0,0.0,0.0,0.0,0.0,0.0,0.0,0.0,0.0,0.0,0.0,0.0,0.0,0.0,0.0,0.0,0.0,0.0,0.0,0.0,0.0,0.0253,0.0556,0.0808,0.1212,0.1465,-1.0657,0.0,0.0,0.0,0.0,0.0,0.0,0.0,0.0,0.0,0.0,0.0,0.0,0.0,0.0,0.0,0.0,0.0,0.0,0.0,0.0,0.0,0.0,0.0,0.0,0.0,0.0,0.0,0.0,0.0,-0.6121,-0.6299,-0.6435,-0.6704,-0.6704,-0.6792,-0.701,-0.6694,-0.6204,-0.5494,-0.5669,-0.4999,-0.3708,-0.4156,-0.3578,-0.2285,-0.2285,-0.1882,-0.1166,-0.0762,-0.0718,-0.0852,-0.0225,-0.0135,-0.0271,-0.0094,0.0,0.0,0.0,0.0,0.0,0.0,0.0,0.0,0.0,0.0,0.0,0.0,0.0,0.0,0.0,0.0,0.0,0.0,0.0,0.0,0.0,0.0,0.0,0.0,0.0,0.0,0.0,0.0,0.0,0.0,0.0,0.0,0.0,0.0,0.0,0.0,0.0,0.0,0.0,0.0,0.0,0.0,0.0,0.0,0.0,0.0,0.0,0.0,0.0,0.0,0.0,0.0202,0.0455,0.0808,0.1061,0.1364,0.0,0.0,0.0,-1.0231,0.0,0.0,0.0,0.0,-0.7612,0.0,0.0,0.0,0.0,0.0,0.0,-0.5838,0.0,0.0,0.0,0.0,0.0,0.0,0.0,0.0,0.0,0.0,0.0,0.0,0.0,0.0,-0.5644,-0.5952,-0.6213,-0.6384,-0.6428,-0.6523,-0.6795,-0.5669,-0.5043,-0.4999,-0.3129,-0.2238,-0.2149,-0.1254,-0.0807,-0.0762,-0.0762,-0.0762,-0.0718,-0.0493,-0.0403,-0.0404,-0.009,0.0,0.0,0.0,0.0,0.0,0.0,0.0,0.0,0.0,0.0,0.0,0.0,0.0,0.0,0.0,0.0,0.0,0.0,0.0,0.0,0.0,0.0,0.0,0.0,0.0,0.0,0.0,0.0,0.0,0.0,0.0,0.0,0.0,0.0,0.0,0.0,0.0,0.0,0.0,0.0,0.0,0.0,0.0,0.0,0.0,0.0,0.0,0.0,0.0,0.0,0.0,0.0,0.0,0.0,0.0,0.0303,0.0808,0.1061,0.1364,0.0,0.0,-1.0528,-1.043,0.0,0.0,0.0,0.0,0.0,0.0,0.0,0.0,0.0,0.0,-0.615,-0.6294,-0.604,0.0,0.0,0.0,0.0,0.0,0.0,0.0,0.0,0.0,0.0,0.0,0.0,0.0,0.0,-0.5848,-0.6034,-0.6216,-0.6213,-0.6033,-0.5625,-0.522,-0.4374,-0.3084,-0.3083,-0.2415,-0.1165,-0.1478,-0.1299,-0.0718,-0.0718,-0.0718,-0.0673,-0.0493,-0.0403,-0.0359,-0.009,0.0,0.0,0.0,0.0,0.0,0.0,0.0,0.0,0.0,0.0,0.0,0.0,0.0,0.0,0.0,0.0,0.0,0.0,0.0,0.0,0.0,0.0,0.0,0.0,0.0,0.0,0.0,0.0,0.0,0.0,0.0,0.0,0.0,0.0,0.0,0.0,0.0,0.0,0.0,0.0,0.0,0.0,0.0,0.0,0.0,0.0,0.0,0.0,0.0,0.0,0.0,0.0,0.0,0.0,0.0,0.0253,0.0808,0.0909,0.1162,-1.2109,-1.1608,0.0,-1.1047,-1.0421,0.0,-1.0088,0.0,0.0,0.0,0.0,0.0,0.0,0.0,0.0,-0.6422,-0.619,-0.6039,0.0,0.0,0.0,0.0,0.0,0.0,0.0,0.0,-0.3539,-0.4253,0.0,0.0,0.0,0.0,-0.5496,-0.5613,-0.5198,-0.477,-0.4374,-0.3931,-0.3086,-0.1836,-0.2192,-0.1656,-0.0494,-0.1076,-0.1031,-0.0449,-0.0449,-0.0449,-0.0449,-0.0314,-0.0269,-0.0224,-0.009,0.0,0.0,0.0,0.0,0.0,0.0,0.0,0.0,0.0,0.0,0.0,0.0,0.0,0.0,0.0,0.0,0.0,0.0,0.0,0.0,0.0,0.0,0.0,0.0,0.0,0.0,0.0,0.0,0.0,0.0,0.0,0.0,0.0,0.0,0.0,0.0,0.0,0.0,0.0,0.0,0.0,0.0,0.0,0.0,0.0,0.0,0.0,0.0,0.0,0.0,0.0,0.0,0.0,0.0,0.0,0.0253,0.0808,0.0808,0.1111]},{"header":{"parameterUnit":"m.s-1","parameterCategory":1,"la1":30.6,"la2":29.2853,"lo1":-89.7004,"lo2":-87.6739,"dy":0.0162,"dx":0.0183,"nx":112,"ny":82,"refTime":"2024-09-20T12:00:00:Z","depth":0,"parameterNumber":3,"parameterNumberName":"V-component_of_WINDS"},"data":[0.0,0.0,0.0,0.0,0.0,0.0,0.0,0.0,0.0,0.0,0.0,0.0,0.0,0.0,0.0,0.0,0.0,0.0,0.0,0.0,0.0,0.0,0.0,0.0,0.0,0.0,0.0,0.0,0.0,0.0,0.0,0.0,0.0,0.0,0.0,0.0,0.0,0.0,0.0,0.0,0.0,0.0,0.0,0.0,0.0,0.0,0.0,0.0,0.0,0.0,0.0,0.0,0.0,0.0,0.0,0.0,0.0,0.0,0.0,0.0,0.0,0.0,0.0,0.0,0.0,0.0,0.0,0.0,0.0,0.0,0.0,0.0,0.0,0.0,0.0,0.0,0.0,0.0,0.0,0.0,0.0,0.0,0.0,0.0,0.0,0.0,0.0,0.0,0.0,0.0,0.0,1.0281,0.9798,0.9228,0.8475,0.8409,0.817,0.7531,0.0,0.0,0.0,0.0,0.0,0.0,0.0,0.0,0.0,0.0,0.0,0.0,0.0,0.0,0.0,0.0,0.0,0.0,0.0,0.0,0.0,0.0,0.0,0.0,0.0,0.0,0.0,0.0,0.0,0.0,0.0,0.0,0.0,0.0,0.0,0.0,0.0,0.0,0.0,0.0,0.0,0.0,0.0,0.0,0.0,0.0,0.0,0.0,0.0,0.0,0.0,0.0,0.0,0.0,0.0,0.0,0.0,0.0,0.0,0.0,0.0,0.0,0.0,0.0,0.0,0.0,0.0,0.0,0.0,0.0,0.0,0.0,0.0,0.0,0.0,0.0,0.0,0.0,0.0,0.0,0.0,0.0,0.0,0.0,0.0,0.0,0.0,0.0,0.0,0.0,0.0,0.0,0.0,0.0,0.0,0.0,0.0,0.0,0.0,0.0,0.0,0.0,0.0,0.0,1.0219,0.9754,0.9499,0.9097,0.846,0.8565,0.8334,0.7536,0.0,0.0,0.0,0.0,0.0,0.0,0.0,0.0,0.0,0.0,0.0,0.0,0.0,0.0,0.0,0.0,0.0,0.0,0.0,0.0,0.0,0.0,0.0,0.0,0.0,0.0,0.0,0.0,0.0,0.0,0.0,0.0,0.0,0.0,0.0,0.0,0.0,0.0,0.0,0.0,0.0,0.0,0.0,0.0,0.0,0.0,0.0,0.0,0.0,0.0,0.0,0.0,0.0,0.0,0.0,0.0,0.0,0.0,0.0,0.0,0.0,0.0,0.0,0.0,0.0,0.0,0.0,0.0,0.0,0.0,0.0,0.0,0.0,0.0,0.0,0.0,0.0,0.0,0.0,0.0,0.0,0.0,0.0,0.0,0.0,0.0,0.0,0.0,0.0,0.0,0.0,0.0,0.0,0.0,0.0,0.0,0.0,0.0,0.0,0.0,0.0,0.0,0.0,1.0503,0.9874,0.9496,0.9267,0.8811,0.7994,0.8083,0.7899,0.7173,0.7347,0.0,0.0,0.0,0.0,0.0,0.0,0.0,0.0,0.0,0.0,0.0,0.0,0.0,0.0,0.0,0.0,0.0,0.0,0.0,0.0,0.0,0.0,0.0,0.0,0.0,0.0,0.0,0.0,0.0,0.0,0.0,0.0,0.0,0.0,0.0,0.0,0.0,0.0,0.0,0.0,0.0,0.0,0.0,0.0,0.0,0.0,0.0,0.0,0.0,0.0,0.0,0.0,0.0,0.0,0.0,0.0,0.0,0.0,0.0,0.0,0.0,0.0,0.0,0.0,0.0,0.0,0.0,0.0,0.0,0.0,0.0,0.0,0.0,0.0,0.0,0.0,0.0,0.0,0.0,0.0,0.0,0.0,0.0,0.0,0.0,0.0,0.0,0.0,0.0,0.0,0.0,0.0,0.0,0.0,0.0,0.0,0.0,0.0,0.0,0.0,0.0,0.0,1.0787,1.0077,0.9564,0.9158,0.8573,0.7704,0.7588,0.7362,0.6824,0.7144,0.0,0.0,0.0,0.0,0.0,0.0,0.0,0.0,0.0,0.0,0.0,0.0,0.0,0.0,0.0,0.0,0.0,0.0,0.0,0.0,0.0,0.0,0.0,0.0,0.0,0.0,0.0,0.0,0.0,0.0,0.0,0.0,0.0,0.0,0.0,0.0,0.0,0.0,0.0,0.0,0.0,0.0,0.0,0.0,0.0,0.0,0.0,0.0,0.0,0.0,0.0,0.0,0.0,0.0,0.0,0.0,0.0,0.0,0.0,0.0,0.0,0.0,0.0,0.0,0.0,0.0,0.0,0.0,0.0,0.0,0.0,0.0,0.0,0.0,0.0,0.0,0.0,0.0,0.0,0.0,0.0,0.0,0.0,0.0,0.0,0.0,0.0,0.0,0.0,0.0,0.0,0.0,0.0,0.0,0.0,0.0,0.0,0.0,0.0,0.0,0.0,0.0,1.1062,1.1067,1.0223,0.9286,0.8522,0.8019,0.7286,0.6838,0.6796,0.6819,0.0,0.0,0.0,0.0,0.0,0.0,0.0,0.0,0.0,0.0,0.0,0.0,0.0,0.0,0.0,0.0,0.0,0.0,0.0,0.0,0.0,0.0,0.0,0.0,0.0,0.0,0.0,0.0,0.0,0.0,0.0,0.0,0.0,0.0,0.0,0.0,0.0,0.0,0.0,0.0,0.0,0.0,0.0,0.0,0.0,0.0,0.0,0.0,0.0,0.0,0.0,0.0,0.0,0.0,0.0,0.0,0.0,0.0,0.0,0.0,0.0,0.0,0.0,0.0,0.0,0.0,0.0,0.0,0.0,0.0,0.0,0.0,0.0,0.0,0.0,0.0,0.0,0.0,0.0,0.0,0.0,0.0,0.0,0.0,0.0,0.0,0.0,0.0,0.0,0.0,0.0,0.0,0.0,0.0,0.0,0.0,0.0,0.0,0.0,0.0,0.0,0.0,1.1069,1.1048,0.0,0.9996,0.9358,0.8798,0.8594,0.8227,0.7644,0.0,0.0,0.0,0.0,0.0,0.0,0.0,0.0,0.0,0.0,0.0,0.0,0.0,0.0,0.0,0.0,0.0,0.0,0.0,0.0,0.0,0.0,0.0,0.0,0.0,0.0,0.0,0.0,0.0,0.0,0.0,0.0,0.0,0.0,0.0,0.0,0.0,0.0,0.0,0.0,0.0,0.0,0.0,0.0,0.0,0.0,0.0,0.0,0.0,0.0,0.0,0.0,0.0,0.0,0.0,0.0,0.0,0.0,0.0,0.0,0.0,0.0,0.0,0.0,0.0,0.0,0.0,0.0,0.0,0.0,0.0,0.0,0.0,0.0,0.0,0.0,0.0,0.0,0.0,0.0,0.0,0.0,0.0,0.0,0.0,0.0,0.0,0.0,0.0,0.0,0.0,0.0,0.0,0.0,0.0,0.0,0.0,0.0,0.0,0.0,0.0,0.0,1.1253,1.1439,1.145,0.0,1.0624,1.0046,0.9554,0.9387,0.9029,0.8325,0.0,0.0,0.0,0.0,0.0,0.0,0.0,0.0,0.0,0.0,0.0,0.0,0.0,0.0,0.0,0.0,0.0,0.0,0.0,0.0,0.0,0.0,0.0,0.0,0.0,0.0,0.0,0.0,0.0,0.0,0.0,0.0,0.0,0.0,0.0,0.0,0.0,0.0,0.0,0.0,0.0,0.0,0.0,0.0,0.0,0.0,0.0,0.0,0.0,0.0,0.0,0.0,0.0,0.0,0.0,0.0,0.0,0.0,0.0,0.0,0.0,0.0,0.0,0.0,0.0,0.0,0.0,0.0,0.0,0.0,0.0,0.0,0.0,0.0,0.0,0.0,0.0,0.0,0.0,0.0,0.0,0.0,0.0,0.0,0.0,0.0,0.0,0.0,0.0,0.0,0.0,0.0,0.0,0.0,0.0,0.0,0.0,0.0,0.0,0.0,0.0,0.0,1.1543,1.2195,1.248,1.187,1.1101,1.0501,1.0242,0.9438,0.888,0.0,0.0,0.0,0.0,0.0,0.0,0.0,0.0,0.0,0.0,0.0,0.0,0.0,0.0,0.0,0.0,0.0,0.0,0.0,0.0,0.0,0.0,0.0,0.0,0.0,0.0,0.0,0.0,0.0,0.0,0.0,0.0,0.0,0.0,0.0,0.0,0.0,0.0,0.0,0.0,0.0,0.0,0.0,0.0,0.0,0.0,0.0,0.0,0.0,0.0,0.0,0.0,0.0,0.0,0.0,0.0,0.0,0.0,0.0,0.0,0.0,0.0,0.0,0.0,0.0,0.0,0.0,0.0,0.0,0.0,0.0,0.0,0.0,0.0,0.0,0.0,0.0,0.0,0.0,0.0,0.0,0.0,0.0,0.0,0.0,0.0,0.0,0.0,0.0,0.0,0.0,0.0,0.0,0.0,0.0,0.0,0.0,0.0,0.0,0.0,0.0,0.0,0.0,1.1571,1.2322,1.2756,1.2413,1.1897,1.1548,1.1487,1.102,1.0589,1.0208,0.0,0.0,0.0,0.0,0.0,0.0,0.0,0.0,0.0,0.0,0.0,0.0,0.0,0.0,0.0,0.0,0.0,0.0,0.0,0.0,0.0,0.0,0.0,0.0,0.0,0.0,0.0,0.0,0.0,0.0,0.0,0.0,0.0,0.0,0.0,0.0,0.0,0.0,0.0,0.0,0.0,0.0,0.0,0.0,0.0,0.0,0.0,0.0,0.0,0.0,0.0,0.0,0.0,0.0,0.0,0.0,0.0,0.0,0.0,0.0,0.0,0.0,0.0,0.0,0.0,0.0,0.0,0.0,0.0,0.0,0.0,0.0,0.0,0.0,0.0,0.0,0.0,0.0,0.0,0.0,0.0,0.0,0.0,0.0,0.0,0.0,0.0,0.0,0.0,0.0,0.0,0.0,0.0,0.0,0.0,0.0,0.0,0.0,0.0,0.0,0.0,0.0,1.2206,1.3156,1.3752,1.3472,1.3186,1.2991,1.2991,1.2674,1.2237,1.172,0.0,0.0,0.0,0.0,0.0,0.0,0.0,0.0,0.0,0.0,0.0,0.0,0.0,0.0,0.0,0.0,0.0,0.0,0.0,0.0,0.0,0.0,0.0,0.0,0.0,0.0,0.0,0.0,0.0,0.0,0.0,0.0,0.0,0.0,0.0,0.0,0.0,0.0,0.0,0.0,0.0,0.0,0.0,0.0,0.0,0.0,0.0,0.0,0.0,0.0,0.0,0.0,0.0,0.0,0.0,0.0,0.0,0.0,0.0,0.0,0.0,0.0,0.0,0.0,0.0,0.0,0.0,0.0,0.0,0.0,0.0,0.0,0.0,0.0,0.0,0.0,0.0,0.0,0.0,0.0,0.0,0.0,0.0,0.0,0.0,0.0,0.0,0.0,0.0,0.0,0.0,0.0,0.0,0.0,0.0,0.0,0.0,0.0,0.0,0.0,0.0,0.0,1.3195,1.4327,1.5031,1.4728,1.4505,1.4416,1.449,1.4105,1.3598,1.3059,0.0,0.0,0.0,0.0,0.0,0.0,0.0,0.0,0.0,0.0,0.0,0.0,0.0,0.0,0.0,0.0,0.0,0.0,0.0,0.0,0.0,0.0,0.0,0.0,0.0,0.0,0.0,0.0,0.0,0.0,0.0,0.0,0.0,0.0,0.0,0.0,0.0,0.0,0.0,0.0,0.0,0.0,0.0,0.0,0.0,0.0,0.0,0.0,0.0,0.0,0.0,0.0,0.0,0.0,0.0,0.0,0.0,0.0,0.0,0.0,1.8321,0.0,0.0,0.0,0.0,0.0,0.0,0.0,0.0,0.0,0.0,0.0,0.0,0.0,0.0,0.0,0.0,0.0,0.0,0.0,0.0,0.0,0.0,0.0,0.0,0.0,0.0,0.0,0.0,0.0,0.0,0.0,0.0,0.0,0.0,0.0,0.0,0.0,0.0,0.0,0.0,0.0,1.3638,1.4294,1.4792,1.47,1.4025,1.3801,1.4444,1.3828,1.3369,1.325,0.0,0.0,0.0,0.0,0.0,0.0,0.0,0.0,0.0,0.0,0.0,0.0,0.0,0.0,0.0,0.0,0.0,0.0,0.0,0.0,0.0,0.0,0.0,0.0,0.0,0.0,0.0,0.0,0.0,0.0,0.0,0.0,0.0,0.0,0.0,0.0,0.0,0.0,0.0,0.0,0.0,0.0,0.0,0.0,0.0,0.0,0.0,0.0,0.0,0.0,0.0,0.0,0.0,0.0,0.0,0.0,0.0,0.0,0.0,0.0,0.0,1.9125,0.0,0.0,0.0,0.0,0.0,0.0,0.0,0.0,0.0,0.0,0.0,0.0,0.0,0.0,0.0,0.0,0.0,0.0,0.0,0.0,0.0,0.0,0.0,0.0,0.0,0.0,0.0,0.0,0.0,0.0,0.0,0.0,0.0,0.0,0.0,0.0,0.0,0.0,0.0,0.0,1.4466,1.5036,1.5467,1.5483,1.4785,1.4478,1.4905,1.4763,1.4552,1.4307,1.3877,0.0,0.0,0.0,0.0,0.0,0.0,0.0,0.0,0.0,0.0,0.0,0.0,0.0,0.0,0.0,0.0,0.0,0.0,0.0,0.0,0.0,0.0,0.0,0.0,0.0,0.0,0.0,0.0,0.0,0.0,0.0,0.0,0.0,0.0,0.0,0.0,0.0,0.0,0.0,0.0,0.0,0.0,0.0,0.0,0.0,0.0,0.0,0.0,0.0,0.0,0.0,0.0,0.0,2.3646,2.4253,2.4471,2.4374,2.4513,2.4713,2.2004,2.1069,2.1337,0.0,0.0,0.0,0.0,0.0,0.0,0.0,0.0,0.0,0.0,0.0,0.0,0.0,0.0,0.0,0.0,0.0,0.0,0.0,0.0,0.0,0.0,0.0,0.0,0.0,2.2334,2.2441,0.0,0.0,0.0,0.0,0.0,0.0,0.0,0.0,0.0,0.0,0.0,0.0,1.5275,1.5773,1.6169,1.6176,1.5587,1.5254,1.5398,1.5675,1.569,1.5297,1.5044,1.4687,0.0,0.0,0.0,0.0,0.0,0.0,0.0,0.0,0.0,0.0,0.0,0.0,0.0,0.0,0.0,0.0,0.0,0.0,0.0,0.0,0.0,0.0,0.0,0.0,0.0,0.0,0.0,0.0,0.0,0.0,0.0,0.0,2.1687,2.2416,0.0,0.0,0.0,0.0,0.0,0.0,0.0,0.0,0.0,0.0,0.0,0.0,0.0,0.0,2.4472,2.5535,2.6056,2.6068,2.7171,2.7525,2.7205,2.7155,2.6956,2.6588,2.5648,0.0,2.3233,2.2994,0.0,0.0,0.0,0.0,0.0,0.0,0.0,0.0,0.0,0.0,0.0,0.0,0.0,0.0,0.0,0.0,0.0,0.0,0.0,0.0,0.0,0.0,2.4634,2.4523,2.4564,2.458,0.0,2.1888,1.992,2.0685,0.0,0.0,0.0,0.0,0.0,0.0,0.0,0.0,1.553,1.5541,1.5618,1.5689,1.4884,1.4642,1.5345,1.509,1.4857,1.4793,1.56,1.5886,1.5397,1.6151,0.0,0.0,0.0,0.0,0.0,0.0,0.0,0.0,0.0,0.0,0.0,0.0,0.0,0.0,0.0,0.0,0.0,0.0,0.0,0.0,0.0,0.0,0.0,0.0,0.0,0.0,0.0,0.0,0.0,2.2222,2.3161,2.3821,2.3538,2.2754,0.0,0.0,0.0,0.0,0.0,0.0,0.0,0.0,0.0,2.5911,2.5947,2.627,2.6906,2.7411,2.7678,2.7639,2.7858,2.8133,2.8461,2.8151,2.8223,2.8541,2.7966,2.7323,2.6467,2.4516,2.3182,2.2306,0.0,0.0,0.0,0.0,0.0,2.2714,2.4173,2.457,0.0,0.0,0.0,0.0,0.0,0.0,0.0,0.0,0.0,0.0,0.0,0.0,0.0,2.5005,2.5005,2.51,2.5426,2.4034,2.261,0.0,2.1653,2.0559,1.8877,0.0,0.0,0.0,0.0,0.0,1.6449,1.6135,1.6031,1.625,1.5672,1.5405,1.5704,1.5784,1.5784,1.5735,1.6145,1.6465,1.662,1.6717,1.6836,0.0,0.0,0.0,0.0,0.0,0.0,0.0,0.0,0.0,0.0,0.0,0.0,0.0,0.0,0.0,0.0,0.0,0.0,0.0,0.0,0.0,0.0,0.0,0.0,0.0,0.0,0.0,0.0,2.4124,2.4773,2.5172,2.551,2.4964,0.0,0.0,0.0,0.0,0.0,0.0,2.5968,2.6103,2.6712,2.7915,2.794,2.8347,2.9213,2.9213,2.9139,2.8991,2.8595,2.8712,2.9277,2.8867,2.908,2.9749,2.9198,2.8992,2.8758,2.6024,2.4633,2.4206,2.3601,2.3347,2.3356,2.3919,2.4325,2.4858,2.6232,2.6739,2.6679,2.639,0.0,2.5189,2.3809,0.0,0.0,0.0,0.0,2.4863,2.4977,2.4896,2.4774,2.4858,2.4749,2.4777,2.5311,2.5051,2.4517,0.0,2.3115,2.2043,1.9977,0.0,0.0,0.0,0.0,1.7448,1.7219,1.6678,1.6422,1.6603,1.6303,1.6083,1.6042,1.6351,1.6502,1.64,1.6671,1.7019,1.7457,1.7453,1.7608,1.7951,0.0,0.0,0.0,0.0,0.0,0.0,0.0,0.0,0.0,0.0,0.0,0.0,0.0,0.0,0.0,0.0,0.0,0.0,0.0,0.0,0.0,0.0,0.0,0.0,0.0,0.0,0.0,0.0,0.0,2.6621,2.7833,0.0,0.0,0.0,0.0,2.5307,2.6223,2.7344,2.864,2.9121,2.9971,3.1291,3.1355,3.1381,3.1447,3.1447,3.1156,3.0586,3.0546,3.0277,2.9759,2.9732,2.9754,2.9763,2.9177,2.8924,2.8837,2.8153,2.7157,2.607,2.6006,2.5317,2.4474,2.5632,2.6077,2.6291,2.7708,2.782,2.7476,2.8219,2.7656,2.6695,2.661,2.5785,0.0,0.0,2.4977,2.4977,2.5005,2.4584,2.4218,2.4462,2.4076,2.3754,2.404,2.4077,2.4229,0.0,2.442,2.3474,2.1838,0.0,2.1028,1.9491,1.8791,1.8185,1.7483,1.6873,1.6402,1.6151,1.6105,1.6114,1.6092,1.6117,1.6129,1.6129,1.7077,1.7661,1.7686,1.9176,1.9764,1.9211,1.9171,0.0,0.0,0.0,0.0,0.0,0.0,0.0,0.0,0.0,0.0,0.0,0.0,0.0,0.0,0.0,0.0,0.0,0.0,0.0,0.0,0.0,0.0,0.0,0.0,0.0,0.0,0.0,0.0,2.8847,2.9274,0.0,0.0,2.7635,2.8077,2.8208,2.893,2.9706,3.0589,3.0813,3.1111,3.1596,3.1609,3.1609,3.1609,3.1609,3.1303,3.069,3.0317,2.9859,2.9388,2.9388,2.949,2.9578,2.9376,2.9282,2.9241,2.8648,2.8044,2.7407,2.7407,2.7144,2.6844,2.7367,2.753,2.7635,2.8266,2.8098,2.757,2.747,2.7131,2.6793,2.6793,2.6617,2.6409,2.6409,2.599,2.555,2.5783,2.5093,2.4388,2.449,2.4346,2.414,2.4028,2.4016,2.3954,2.3802,2.361,2.3142,2.2132,2.1979,2.1659,2.0582,1.9697,1.9033,1.8745,1.7748,1.7131,1.7256,1.7256,1.7214,1.7144,1.7123,1.7089,1.7013,1.7356,1.7742,1.8135,1.8711,1.9239,1.9668,1.9795,1.9516,0.0,0.0,0.0,0.0,0.0,0.0,0.0,0.0,0.0,0.0,0.0,0.0,0.0,0.0,0.0,0.0,0.0,0.0,0.0,0.0,0.0,0.0,0.0,0.0,0.0,0.0,2.9996,3.0403,3.1007,3.0788,2.9285,2.9909,3.0479,3.0605,3.0972,3.1387,3.1803,3.178,3.178,3.178,3.178,3.178,3.178,3.178,3.1378,3.0574,3.0186,2.9665,2.8985,2.8985,2.917,2.9503,2.9503,2.9633,2.9771,2.9174,2.891,2.8881,2.8425,2.8276,2.8249,2.815,2.8101,2.8106,2.822,2.814,2.7922,2.7565,2.7426,2.7456,2.7485,2.7507,2.7427,2.7173,2.6508,2.5859,2.5877,2.5131,2.439,2.4486,2.4336,2.4167,2.4014,2.399,2.3779,2.3039,2.2998,2.2899,2.2246,2.2166,2.1936,2.1196,2.0334,1.9691,1.9421,1.8445,1.7835,1.7983,1.8003,1.8071,1.8283,1.797,1.793,1.8357,1.8051,1.8079,1.8611,1.8697,1.9111,1.9915,2.0288,2.0232,1.9718,0.0,0.0,0.0,0.0,0.0,0.0,0.0,0.0,0.0,0.0,0.0,0.0,0.0,0.0,0.0,0.0,0.0,0.0,0.0,0.0,0.0,0.0,0.0,2.9522,3.0533,3.1356,3.1265,3.3053,3.3518,3.1461,3.2476,3.296,3.2314,3.2291,3.2291,3.2291,3.2291,3.2291,3.2291,3.2264,3.2214,3.2214,3.22,3.1602,3.0446,3.0446,2.9807,2.8651,2.8651,2.8994,2.9535,2.9535,2.9919,3.0466,2.9827,2.9914,3.036,2.9079,2.861,2.8556,2.7958,2.774,2.7738,2.7638,2.8011,2.8495,2.8619,2.8661,2.8661,2.8799,2.8429,2.7824,2.7096,2.6461,2.5854,2.5169,2.4561,2.4168,2.4447,2.4059,2.3696,2.3931,2.3988,2.3691,2.2682,2.2806,2.2897,2.2273,2.2198,2.1963,2.1327,2.0703,0.0,1.9521,1.8903,1.8459,1.8228,1.8236,1.8591,1.9434,1.8534,1.8565,2.0016,1.9107,1.8707,1.913,1.9327,1.9648,2.0083,2.0718,2.1079,2.1205,0.0,0.0,0.0,0.0,0.0,0.0,0.0,0.0,0.0,0.0,0.0,0.0,0.0,0.0,0.0,0.0,0.0,0.0,0.0,0.0,0.0,0.0,3.2405,3.1781,3.2762,3.3337,3.2878,3.3688,3.3893,3.2819,3.3499,3.3939,3.3748,3.3713,3.3713,3.3713,3.3713,3.3713,3.3713,3.3237,3.2995,3.2995,3.2521,3.1895,3.1144,3.1144,3.0765,3.0133,3.0133,3.027,3.0511,3.0511,3.0601,3.0778,3.0602,3.0324,2.9958,2.8928,2.8806,2.9163,2.8508,2.8324,2.8369,2.8004,2.7994,2.8084,2.7665,2.753,2.7556,2.7583,2.7595,2.7482,2.6802,2.6309,2.59,2.5408,2.4841,2.4411,2.4474,2.4357,2.4076,2.335,2.3618,2.3612,2.2325,2.2557,2.2683,2.1844,2.1845,2.1925,2.1747,2.1025,0.0,2.0303,1.9568,1.8987,1.8736,1.8968,1.9327,1.9818,1.9375,1.9407,0.0,1.9539,1.9359,2.0024,2.0099,2.0769,2.2149,2.1888,2.2239,0.0,0.0,0.0,0.0,0.0,0.0,0.0,0.0,0.0,0.0,0.0,0.0,0.0,0.0,0.0,0.0,0.0,0.0,0.0,0.0,0.0,0.0,3.3147,3.4363,3.407,3.4258,3.4394,3.4288,3.434,3.4231,3.3792,3.4147,3.4372,3.4317,3.438,3.4297,3.3972,3.3958,3.386,3.3649,3.3252,3.3063,3.3063,3.2652,3.2157,3.1562,3.1562,3.1303,3.0793,3.0793,3.0999,0.0,3.1035,3.1029,3.1237,3.0666,3.0395,0.0,0.0,0.0,0.0,0.0,2.8328,2.8314,2.8047,2.8124,2.8268,2.7945,2.7858,2.7813,2.7589,2.7634,2.7546,2.6574,2.615,2.588,2.5373,2.4967,2.4722,2.4722,2.4467,2.408,2.3447,2.3423,2.3207,2.2123,0.0,0.0,2.135,2.1584,2.1795,2.1527,2.1058,2.064,2.0384,1.9917,1.95,1.9262,1.9701,2.0235,2.0784,2.0507,0.0,0.0,0.0,2.0632,2.1055,2.1224,0.0,0.0,0.0,0.0,0.0,0.0,0.0,0.0,2.5949,2.6394,0.0,0.0,0.0,0.0,0.0,0.0,0.0,0.0,0.0,0.0,0.0,0.0,0.0,0.0,0.0,0.0,3.487,3.6079,3.5985,3.5143,3.4719,3.5243,3.4842,3.4497,3.4345,3.4528,3.4548,3.4383,3.4526,3.4342,3.3691,0.0,0.0,0.0,0.0,3.2831,3.2831,3.2757,3.2463,3.193,3.193,3.1664,3.1159,3.1159,3.1446,3.1921,3.1329,3.1309,3.1628,3.0442,3.027,3.0674,3.0108,2.9474,2.8813,2.829,2.806,0.0,0.0,0.0,0.0,2.8897,2.8904,2.8818,2.8277,2.8094,2.781,2.6404,2.6009,2.5851,2.5175,2.5005,2.497,2.4891,2.4385,2.3894,2.3758,2.3335,2.2784,2.2038,2.1927,2.1719,2.1053,2.1401,2.1576,2.0971,2.088,2.07,2.0154,2.0093,2.0008,1.9797,0.0,0.0,2.1999,2.1763,2.2168,2.355,2.274,2.2229,2.2286,2.2783,2.3464,2.4302,2.4851,2.5705,2.6869,2.8105,2.8731,2.8758,2.7042,2.7292,0.0,0.0,0.0,0.0,0.0,0.0,0.0,0.0,0.0,0.0,0.0,0.0,0.0,0.0,0.0,3.5101,3.6117,3.6609,3.5987,3.5288,3.4667,3.4275,3.4558,3.461,3.4048,3.451,3.4837,3.4783,3.4828,3.4767,3.4628,3.4628,0.0,3.4486,3.3948,3.3671,3.3671,3.3131,3.2792,3.2696,0.0,0.0,3.2672,3.2672,3.2511,3.2233,3.2107,3.1756,3.1297,3.1029,3.0691,3.028,2.9946,2.9416,2.8823,2.875,2.8715,2.8716,2.8826,2.8959,2.9045,2.9052,2.9052,2.8949,2.83,2.8094,0.0,2.6404,2.6009,2.5851,2.5175,2.5005,2.4843,2.4255,2.4131,2.3884,2.2908,2.3141,2.3243,2.2183,2.2413,2.2546,2.188,2.136,2.0973,2.0832,2.0816,2.0769,2.0661,2.0645,2.0561,2.0291,2.1155,2.1934,2.2362,2.2576,2.3027,2.3793,2.3648,2.3683,2.3985,2.5223,2.5845,2.5726,2.7003,2.7797,2.7977,2.884,2.956,3.0116,2.9753,2.9793,0.0,0.0,0.0,0.0,0.0,0.0,0.0,0.0,0.0,0.0,0.0,3.2458,3.3935,0.0,3.6095,3.6839,3.7598,3.7842,3.7074,3.6366,3.5432,3.4057,3.3895,3.3911,3.3898,3.4248,3.4604,3.4878,3.4951,3.4867,3.451,3.4495,3.4394,3.4117,3.376,3.3587,3.3587,3.3269,3.3096,3.3096,3.3096,3.3139,3.3187,3.284,3.2546,3.226,3.1564,3.1042,3.0694,3.0553,3.0318,3.0021,3.0119,2.9653,2.8951,2.8982,2.899,2.9013,2.9075,2.9098,2.9098,2.9098,2.8861,2.8496,2.791,2.7487,2.7041,2.6237,2.5992,2.595,2.5747,2.5407,2.5013,2.4639,2.4056,2.3423,2.2815,2.2778,2.2687,2.2103,2.2268,2.2387,2.2065,2.1658,2.1401,2.1401,2.1401,2.1401,2.1401,2.1401,2.1354,2.1213,2.2273,2.3071,2.3242,2.4047,2.4692,2.4966,2.5001,2.5076,2.5291,2.6016,2.6467,2.6649,2.7763,2.8492,2.8801,2.9844,3.0535,3.0905,3.1181,3.1213,0.0,0.0,0.0,0.0,0.0,0.0,0.0,0.0,3.1508,3.3312,3.3678,3.4301,3.6267,3.712,3.771,3.8343,3.8871,3.8864,3.7945,3.7325,3.6266,3.4317,3.3598,3.3488,3.4013,3.418,3.4374,3.4738,3.4853,3.4616,3.3987,3.3928,3.3797,3.3466,3.345,3.3503,3.3591,3.3503,3.3503,3.3591,3.3503,3.3487,3.3575,3.2898,3.2499,3.2276,3.0871,3.0264,3.024,3.003,2.9924,2.9968,3.0372,3.0054,2.9403,2.938,2.938,2.938,2.938,2.9284,2.9173,2.9173,2.8716,2.8062,2.7541,2.6989,2.6455,2.6157,2.6068,2.6122,2.6333,2.5798,2.5163,2.5046,2.401,2.3021,2.2931,2.2502,2.2169,2.2212,2.2209,2.2209,2.2209,2.2209,2.2184,2.201,2.2013,2.2013,2.2013,2.2013,2.2013,2.2013,2.3079,2.3931,2.4214,2.5428,2.6158,2.6158,2.6158,2.6176,2.6246,2.6414,2.6732,2.7252,2.8291,2.9011,2.939,3.0779,3.1449,3.1468,3.1893,3.1965,3.2391,3.1929,3.1831,3.3162,3.2447,3.2471,0.0,0.0,3.4336,3.732,3.7904,3.8219,3.9106,3.9479,3.9665,3.9775,3.9456,3.8709,3.7301,3.7052,3.6439,3.4881,3.4626,3.4626,3.4692,3.4708,3.4571,3.4226,3.42,3.3963,3.3419,3.3393,3.3582,3.4,3.4,3.4209,3.4642,3.4234,3.4234,3.4642,3.4209,3.4234,3.4609,3.3877,3.3185,3.2484,3.1072,3.0467,3.0467,3.0426,3.0435,3.0418,3.0543,3.0522,3.0418,3.0372,3.0351,3.0351,3.0351,2.9943,2.9455,2.9455,2.895,2.8246,2.7605,2.7341,2.7143,2.6533,2.6367,2.6351,2.6385,2.5798,2.5063,2.4459,2.3783,2.3144,2.2655,2.2646,2.276,2.294,2.2977,2.2977,2.2977,2.2977,2.2756,2.2113,2.2013,2.2013,2.2013,2.2013,2.2013,2.2013,2.2673,2.3629,2.4946,2.5865,2.6385,2.6385,2.6385,2.6505,2.679,2.7504,2.7757,2.7463,2.9539,3.0318,2.9747,3.1272,3.2019,3.2019,3.2073,3.2072,3.4386,3.3888,3.3272,0.0,3.4461,3.4682,3.6284,3.5935,3.5794,3.7594,3.7961,3.8203,3.8922,3.9484,3.9816,0.0,4.0022,3.9661,3.815,3.7946,3.7193,3.5275,3.5411,3.5442,3.4857,3.4793,3.4714,3.4537,3.4513,3.4415,3.4177,3.4251,3.4382,3.4625,3.4657,3.4783,3.4978,3.4783,3.4783,3.4978,3.4783,3.4767,3.4945,3.3772,3.2623,3.1529,3.0895,3.0629,3.0703,3.0928,3.101,3.105,3.1357,3.147,3.1413,3.0868,3.0379,2.9976,2.9976,2.9493,2.886,2.886,2.8398,2.7786,2.7612,2.7295,2.6978,2.6975,2.6971,2.6901,2.6599,2.5926,2.5136,2.4439,2.3708,2.311,2.2898,2.291,2.3008,2.3077,2.3107,2.3107,2.3107,2.3107,2.3003,2.2686,2.2634,2.2634,2.2634,2.2634,2.2793,2.323,2.3907,2.4736,2.5754,2.6574,2.7036,2.7036,2.7036,2.71,2.7227,2.7571,2.7669,2.7496,2.8855,2.9637,2.981,3.0958,3.1743,3.2161,3.2232,3.2267,3.5136,3.503,0.0,3.5341,3.5904,3.6266,3.6146,3.6215,3.6594,3.7616,3.765,3.7737,3.8456,3.9026,3.9457,3.9664,4.0032,3.9894,3.8772,3.8427,3.7616,3.5773,3.6015,3.6071,3.5391,3.5299,3.5214,3.5058,3.5098,3.5035,3.4894,3.4971,3.5111,3.5249,3.5301,3.5397,3.5548,3.5397,3.5397,3.5548,3.5397,3.5397,3.5497,3.4007,3.2534,3.1162,3.1111,3.1111,3.1181,3.1471,3.1584,3.1638,3.1984,3.2126,3.202,3.1211,3.0503,2.9954,2.9954,2.9311,2.8517,2.8517,2.8045,2.7521,2.7657,2.7349,2.7036,2.7386,2.7478,2.7387,2.7008,2.6156,2.5279,2.473,2.3821,2.3107,2.3107,2.3107,2.3107,2.3107,2.3107,2.3107,2.3107,2.3107,2.3177,2.34,2.3435,2.3348,2.3125,2.3107,2.3293,2.3837,2.476,2.5516,2.6019,2.6979,2.7554,2.7554,2.7554,2.7554,2.7554,2.7554,2.7554,2.7554,2.8516,2.9301,2.9894,3.102,3.1842,3.237,3.2574,3.264,3.3758,0.0,3.576,3.6143,3.6284,3.668,3.8146,3.7353,3.6732,3.8249,3.8013,3.7737,3.8456,3.8612,3.887,3.9577,3.9112,3.8646,3.8617,3.7996,3.7258,3.6551,3.6485,3.6523,0.0,3.6523,3.622,3.5698,3.5781,3.5632,3.5107,3.5107,3.5329,3.5864,3.5868,3.6135,3.6643,3.6135,3.6156,3.6643,3.6118,3.6156,3.6609,3.5044,3.3516,3.2055,3.2055,3.2055,3.2055,3.2073,3.2073,3.209,3.2161,3.2197,3.2109,3.1443,3.1061,3.0855,3.0855,2.995,2.8793,2.8793,2.8297,2.7689,2.7707,2.7689,2.7669,2.7686,2.7701,2.7701,2.7666,2.6542,2.5401,2.5366,2.4212,2.3107,2.3107,2.3107,2.3107,2.3107,2.3107,2.3107,2.3107,2.3107,2.3353,2.415,2.4269,2.3975,2.3195,2.3107,2.3107,2.3125,2.4493,2.5419,2.5423,2.6809,2.7701,2.7701,2.7701,2.7701,2.7701,2.7701,2.7701,2.7701,2.9248,3.0072,3.009,3.189,3.2761,3.2779,3.3108,3.3276,3.5132,0.0,3.6453,3.7073,3.7231,3.7279,3.7492,3.7206,3.6799,3.6489,3.6277,3.6093,3.5867,3.6613,3.7532,3.8313,3.8642,3.8816,3.8877,3.8196,3.7241,3.598,3.6748,0.0,0.0,0.0,0.0,3.6381,3.6402,3.6343,3.6178,3.6186,3.6291,3.6492,3.6574,3.6713,3.6888,3.6713,3.6713,3.6888,3.617,3.5665,3.5348,3.4279,3.3246,3.2301,3.2301,3.2301,3.2301,3.2301,3.2301,3.2301,3.2319,3.2336,3.2231,3.1493,3.0845,3.0289,2.9764,2.8905,2.806,2.806,2.7899,2.7701,2.7701,2.7701,2.7701,2.7701,2.7701,2.7596,2.7104,2.6731,2.6331,2.5793,2.5409,2.5158,2.5158,2.5158,2.5158,2.5158,2.5158,2.5158,2.5158,2.5158,2.5248,2.5518,2.5258,2.5006,2.4898,2.4887,2.4961,2.5147,2.6099,2.672,2.672,2.764,2.8232,2.8232,2.8232,2.8232,2.8232,2.8232,2.8497,2.908,2.9641,3.0417,3.1476,3.2115,3.2649,3.3139,3.3262,3.3317,3.619,3.6535,3.6501,3.7107,3.7073,3.6771,3.6451,3.6451,3.629,3.5481,3.5052,3.4786,3.4575,3.5002,3.5916,3.7534,3.7986,3.8403,3.9264,3.872,3.7871,3.6902,3.7652,3.7882,0.0,0.0,0.0,3.7181,3.7187,3.7207,3.7207,3.6988,3.6869,3.6869,3.6968,3.7007,3.7007,3.7007,3.6867,3.6549,3.6057,3.5267,3.4267,3.3739,3.309,3.2406,3.2406,3.2406,3.2406,3.2406,3.2406,3.2405,3.2524,3.249,3.2282,3.1307,3.0587,2.9983,2.9176,2.8368,2.7701,2.7701,2.7701,2.7701,2.7701,2.7701,2.773,2.7829,2.784,2.7748,2.7382,2.7219,2.702,2.6494,2.6278,2.62,2.62,2.62,2.62,2.62,2.62,2.62,2.62,2.6443,2.6631,2.6631,2.6564,2.6368,2.5997,2.5931,2.6021,2.6177,2.6909,2.7405,2.7405,2.8081,2.8504,2.8504,2.8504,2.8504,2.8504,2.8788,2.9217,2.9787,3.0354,3.117,3.2204,3.2602,3.3044,3.3522,3.363,3.3725,3.6683,3.6501,3.6027,3.6415,3.5938,3.5365,3.5349,3.5349,3.5315,3.5208,3.4368,3.3863,3.45,0.0,3.4305,3.7268,3.7251,3.7634,3.9831,3.9517,3.905,0.0,0.0,0.0,0.0,0.0,0.0,3.8198,0.0,3.8111,3.8111,3.7391,3.7007,3.7007,3.7007,3.7007,3.7007,3.6954,3.6549,3.5792,3.5722,3.4916,3.3494,3.3459,3.3073,3.2422,3.2422,3.2422,3.244,3.244,3.244,3.2474,3.2734,3.267,3.2297,3.1042,3.0396,3.0031,2.9222,2.8398,2.7698,2.7728,2.7728,2.7713,2.7745,2.7728,2.78,2.8047,2.8129,2.8179,2.8422,2.7985,2.7483,2.7483,2.6908,2.6361,2.6361,2.6361,2.6361,2.6361,2.6361,2.6361,2.6372,2.7004,2.7507,2.7507,2.8094,2.8022,2.6538,2.6338,2.635,2.6361,2.7047,2.7507,2.7507,2.8149,2.8554,2.8554,2.8554,2.8554,2.8554,2.9377,2.9875,2.9911,3.1443,3.2278,3.2314,3.3408,3.3921,3.3934,3.4257,3.4397,3.5652,3.6213,3.6518,3.662,3.6496,3.6246,3.5888,3.5909,3.5536,3.3983,3.3476,3.3029,3.208,0.0,0.0,3.6843,3.8199,0.0,4.0674,3.9908,0.0,3.9242,0.0,3.9915,3.9336,4.0358,0.0,0.0,3.8757,3.8111,3.8111,3.7391,3.7007,3.7007,3.7007,3.7007,3.7007,3.6408,3.6004,3.5792,3.4635,3.3881,3.3477,3.2932,3.27,3.2702,3.2702,3.2846,3.3065,3.3065,3.3065,3.3083,3.3157,3.3142,3.2955,3.2101,3.1315,3.06,2.9836,2.8756,2.7757,2.8166,2.8152,2.8034,2.8232,2.8298,2.8311,2.8389,2.8402,2.8415,2.8473,2.8555,2.8599,2.8599,2.86,2.8582,2.8582,2.8582,2.8582,2.8582,2.8577,2.8608,2.866,2.8827,2.8965,2.8965,2.9132,2.9,2.837,2.8285,2.8364,2.8553,2.8812,2.8944,2.8892,2.9119,2.9212,2.9158,2.923,2.9212,2.9158,3.0009,3.0783,3.1433,3.2435,3.3233,3.3845,3.4122,3.4269,3.4269,3.4351,3.4439,3.5807,3.6105,3.6179,3.6179,3.5887,3.5447,3.4818,3.5302,3.5239,3.3003,3.3035,0.0,3.1374,3.3049,0.0,0.0,0.0,0.0,4.1637,4.1243,4.0853,0.0,4.1227,0.0,4.0889,4.1314,4.1375,0.0,3.9447,3.8638,3.8638,3.7584,3.7007,3.7007,3.7007,3.7007,3.7007,3.6706,3.6179,3.549,3.4799,3.4101,3.3407,3.2964,3.288,3.3032,0.0,3.3124,3.3306,3.3306,3.3306,3.3302,3.3465,3.3422,3.3212,3.2598,3.1988,3.132,3.0321,2.938,2.8612,2.8523,2.8402,2.8311,2.8448,2.8504,2.8529,2.867,2.8725,2.8749,2.8867,2.903,2.9178,2.9178,2.9294,2.9396,2.9396,2.9399,2.9419,2.945,2.9451,2.9453,2.9492,2.9502,2.9502,2.9502,2.9502,2.9433,2.9228,2.9228,2.928,2.9421,2.9481,2.9482,2.9453,2.9482,2.9482,2.9453,2.9482,2.965,2.9965,3.0816,3.1678,3.2499,3.3332,3.3949,3.4386,3.4439,3.445,3.445,3.4473,3.4506,3.6179,3.5863,3.5343,3.5343,3.4767,3.4011,3.3324,3.4209,3.4599,3.2537,0.0,3.3274,3.1936,3.2939,3.4677,3.6765,0.0,4.0417,4.2576,4.2829,4.281,4.281,4.281,4.281,4.281,4.2067,4.1465,4.1194,3.9995,3.9233,3.9164,3.782,3.7087,3.7145,3.7145,3.7145,3.7145,3.7325,3.6666,3.5183,3.5423,3.4751,3.3306,3.3306,3.3335,3.3364,0.0,0.0,3.3419,3.3419,3.3419,3.3447,3.3748,3.3694,3.3375,3.2963,3.2598,3.2124,3.0852,3.0186,2.9762,2.89,2.8591,2.8566,2.8603,2.8615,2.8682,2.8962,2.9048,2.9112,2.9336,2.9396,2.9407,2.9407,2.9388,2.9388,2.9399,2.9411,2.9433,2.9492,2.9502,2.9549,2.9661,2.969,2.9727,2.9839,2.9858,2.9858,2.9858,2.9736,2.967,2.967,2.968,2.9736,2.9848,2.9755,2.9736,2.9848,2.9848,3.0166,3.0866,3.1707,3.2502,3.3205,3.4027,3.4439,3.4439,3.4484,3.4517,3.4517,3.4561,3.4604,3.4587,3.4531,3.442,3.442,3.4309,3.416,3.4011,3.3696,0.0,0.0,3.3449,3.3246,3.3635,3.5562,3.7461,3.852,0.0,0.0,0.0,0.0,4.281,0.0,0.0,0.0,0.0,0.0,0.0,0.0,0.0,0.0,3.8345,3.7741,3.7578,3.7897,3.7914,3.7914,3.7914,3.7313,3.6533,3.5596,3.4989,3.4208,3.3306,3.3306,3.3451,3.3707,0.0,0.0,3.4043,3.4043,3.4043,3.4043,3.4111,3.4099,3.4024,3.3957,3.3463,3.2723,3.1825,3.1054,3.0328,2.9502,2.9093,2.895,2.9171,2.9243,2.9254,2.9315,2.9326,2.9336,2.9396,2.9396,2.9388,2.9401,2.9392,2.9431,2.9481,2.9472,2.9492,2.9578,2.9588,2.9804,3.0527,3.0667,3.0874,3.1559,3.1653,3.1653,3.1653,3.1013,3.0551,3.0501,3.059,3.0929,3.1582,3.1032,3.0948,3.1601,3.1641,3.1708,3.1844,3.2691,3.3218,3.3368,3.4167,3.458,3.458,3.4591,3.4572,3.4572,3.4583,3.4689,3.4086,3.4197,3.4197,3.4197,3.4197,3.4086,3.3658,0.0,0.0,0.0,3.4637,3.5144,3.3807,3.559,0.0,0.0,0.0,0.0,0.0,0.0,0.0,0.0,0.0,0.0,0.0,0.0,0.0,0.0,0.0,0.0,3.8685,3.8133,3.7896,3.8101,3.8101,3.8101,3.8101,3.7881,3.7158,3.5957,3.575,3.4991,3.3765,3.3765,3.3863,3.4011,3.4011,0.0,3.4197,3.4197,3.4197,3.4197,3.4197,3.4197,3.4197,3.4197,3.3956,3.351,3.2704,3.1905,3.1087,3.0288,2.9638,2.9222,2.9365,2.9396,2.9396,2.9396,2.9399,2.939,2.939,2.944,2.9451,2.9453,2.977,3.0078,3.0167,3.0533,3.0861,3.0892,3.0902,3.1024,3.1456,3.1523,3.1654,3.2048,3.2105,3.2105,3.2105,3.2193,3.2043,3.1481,3.1493,3.1682,3.2074,3.1747,3.17,3.2083,3.2095,3.2301,3.2758,3.3173,3.3607,3.402,3.4395,3.4612,3.4612,3.471,3.4761,3.4761,3.4832,3.4907,3.403,3.4197,3.4197,3.4197,3.4197,3.4067,3.3652,3.4903,0.0,0.0,3.5962,3.6946,3.4729,0.0,3.7071,0.0,3.7758,0.0,0.0,0.0,0.0,0.0,0.0,0.0,0.0,0.0,0.0,0.0,0.0,0.0,3.9053,3.8527,3.8232,3.8298,3.8314,3.8314,3.8314,3.8582,3.7985,3.6577,3.6655,3.5906,3.4457,3.429,3.4197,3.4197,3.4197,0.0,0.0,3.4197,3.4197,3.4197,3.4197,3.4197,3.4197,3.4197,3.4197,3.4067,3.328,3.2593,3.1924,3.1125,3.0196,2.9407,2.9388,2.9399,2.9399,2.9409,2.9421,2.9423,2.9423,2.9463,2.9558,2.9736,3.0269,3.0803,3.1022,3.1613,3.2091,3.2095,3.2126,3.2212,3.2391,3.2467,3.2534,3.2713,3.2732,3.2732,3.2732,3.343,3.3618,3.2826,3.259,3.2572,3.2732,3.259,3.2572,3.2732,3.2732,3.3052,3.374,3.3759,3.407,3.4693,3.4711,3.4711,3.4711,3.4879,3.4935,3.4954,3.5039,3.513,3.4179,3.4197,3.4197,3.4197,3.4197,3.4383,3.512,0.0,0.0,3.7021,3.7113,3.7151,3.8321,3.8729,3.9101,3.9825,0.0,4.159,0.0,0.0,0.0,0.0,0.0,0.0,0.0,0.0,0.0,0.0,0.0,0.0,0.0,3.8585,3.8703,3.8998,3.8998,3.8998,3.8998,3.9045,3.8614,3.7742,3.7026,3.6253,3.5343,3.455,3.4197,3.4197,0.0,0.0,0.0,3.4197,3.4197,3.4197,3.4197,3.4197,3.4197,3.4197,3.4197,3.4067,3.328,3.2946,3.276,3.1961,3.0641,2.9407,2.9411,2.9402,2.9412,2.9472,2.9482,2.9492,2.9492,2.9492,2.9699,3.0496,3.0779,3.109,3.1813,3.2038,3.2105,3.2105,3.2251,3.2606,3.3345,3.3608,3.3974,3.4702,3.4816,3.4816,3.4816,3.4901,3.4928,3.4835,3.4165,3.4031,3.4759,3.4146,3.405,3.4778,3.4816,3.4854,3.4941,3.4941,3.498,3.5056,3.5056,3.5056,3.5056,3.5073,3.5081,3.5081,3.5098,3.5193,3.3937,3.4197,3.4197,3.4197,3.4197,3.442,3.5306,0.0,3.611,3.7596,3.8024,3.8191,3.8339,3.8377,3.8321,3.8191,3.8432,0.0,0.0,0.0,0.0,0.0,0.0,0.0,0.0,0.0,0.0,0.0,0.0,0.0,0.0,3.8913,3.8956,3.9101,3.9101,3.9101,3.9101,3.9101,3.8692,3.7894,3.7578,3.6742,3.5491,3.5138,3.4711,3.4197,0.0,0.0,0.0,3.4197,3.4197,3.4197,3.4197,3.4197,3.4197,3.4197,3.4197,3.4141,3.3826,3.3398,3.2946,3.263,3.1797,3.0817,3.0333,2.9812,2.9506,3.007,2.9904,2.9672,3.0158,3.0309,3.0432,3.0789,3.1653,3.251,3.2921,3.3412,3.3809,3.3892,3.3971,3.4137,3.4461,3.4577,3.4732,3.5048,3.5106,3.5106,3.5106,3.5201,3.5288,3.5288,3.4891,3.4751,3.5068,3.4808,3.4751,3.5087,3.5106,3.5106,3.5106,3.5106,3.5106,3.5106,3.5106,3.5106,3.5106,3.5216,3.5288,3.5288,3.5398,3.5502,3.3826,3.4197,3.4253,3.4513,3.4383,3.455,0.0,3.6458,3.6928,3.7726,3.8544,3.8841,3.8042,3.8079,3.8061,3.7503,3.7819,3.8762,4.0494,0.0,0.0,0.0,0.0,0.0,0.0,0.0,0.0,0.0,0.0,0.0,0.0,3.9101,3.9101,3.9101,3.9101,3.9101,3.9101,3.9101,3.8822,3.8247,3.8005,3.7312,3.6197,3.5714,3.5175,3.4581,0.0,0.0,0.0,3.4197,3.4197,3.4197,3.4197,3.4197,3.4197,3.4197,3.4197,3.4209,3.4293,3.3897,3.3366,3.3459,3.2955,3.2243,3.1684,3.0914,3.0331,3.0942,3.077,3.0565,3.1204,3.1411,3.1486,3.1731,3.2694,3.3639,3.3967,3.4526,3.4999,3.5081,3.5146,3.5185,3.5185,3.5243,3.5273,3.5273,3.5273,3.5273,3.5273,3.5391,3.5496,3.5496,3.5364,3.5273,3.5273,3.5273,3.5273,3.5273,3.5273,3.5273,3.5273,3.5273,3.5273,3.5273,3.5273,3.5273,3.5273,3.5431,3.5496,3.5483,3.5631,3.5704,3.3974,3.4197,3.4401,3.5268,3.4829,3.4847,0.0,3.7262,3.6928,3.7726,3.8544,3.8841,3.8042,3.8544,3.9082,3.9082,4.0476,0.0,4.1571,0.0,0.0,0.0,0.0,0.0,0.0,0.0,0.0,0.0,0.0,0.0,0.0,3.9101,3.9101,3.9101,3.9101,3.9101,3.9101,3.9101,3.9101,3.9082,3.8284,3.7894,3.7819,3.6235,3.551,0.0,0.0,0.0,0.0,3.4197,3.4197,3.4197,3.4197,3.4197,3.4197,3.4197,3.4197,3.4233,3.4506,3.4409,3.4239,3.4497,3.4028,3.3399,3.345,3.2825,3.2071,3.2084,3.2223,3.2429,3.2627,3.2672,3.2882,3.3677,3.3888,3.4109,3.4915,3.5087,3.5106,3.5106,3.5265,3.5398,3.5398,3.5565,3.5684,3.5684,3.5684,3.5684,3.5684,3.5704,3.5704,3.5704,3.5704,3.5684,3.5684,3.5684,3.5684,3.5684,3.5684,3.5684,3.5684,3.5684,3.5684,3.5684,3.5684,3.5684,3.5684,3.5704,3.5704,3.5704,3.5704,3.5704,3.3169,3.4228,3.5157,3.5436,3.5287,3.5572,3.7466,3.7294,3.7076,3.8432,3.8915,3.9027,3.8767,3.8934,3.9305,3.9881,4.042,4.1144,0.0,0.0,0.0,0.0,0.0,0.0,0.0,0.0,0.0,0.0,0.0,0.0,0.0,3.9101,3.9101,3.9101,3.9101,3.9101,3.9101,3.9101,3.9101,3.9101,3.8841,3.8432,3.7875,3.7355,0.0,0.0,0.0,0.0,0.0,3.4629,3.4473,3.4495,3.4609,3.4672,3.4672,3.4672,3.4672,3.4682,3.4791,3.4753,3.4695,3.4784,3.4671,3.4507,3.4514,3.3546,3.2446,3.2499,3.2948,3.3309,3.2837,3.3119,3.357,3.3838,3.4319,3.4821,3.5223,3.5302,3.5357,3.549,3.5565,3.5614,3.5614,3.5662,3.5704,3.5704,3.5704,3.5704,3.5704,3.5704,3.5704,3.5704,3.5704,3.5704,3.5704,3.5704,3.5704,3.5704,3.5704,3.5704,3.5704,3.5704,3.5704,3.5704,3.5704,3.5704,3.5704,3.5704,3.5704,3.5704,3.5704,3.5704,3.3652,3.4711,3.5659,3.6253,3.6179,3.6383,3.7986,3.7726,3.7429,3.8432,3.8897,3.9008,3.8692,3.8897,3.938,4.0253,4.0657,4.1311,0.0,0.0,0.0,0.0,0.0,0.0,0.0,0.0,0.0,0.0,0.0,0.0,0.0,0.0,3.9101,3.9101,3.9101,3.9101,3.9101,3.9101,3.9101,3.9101,3.9101,3.8841,3.8339,3.8143,0.0,0.0,0.0,0.0,0.0,3.4996,3.471,3.473,3.486,3.4898,3.4898,3.4898,3.4926,3.4954,3.5027,3.5008,3.4943,3.5049,3.5133,3.5159,3.5239,3.4466,3.3574,3.3695,3.4081,3.4357,3.3947,3.4204,3.4588,3.4588,3.4959,3.5364,3.5496,3.5515,3.5559,3.5673,3.5704,3.5704,3.5704,3.5704,3.5704,3.5704,3.5704,3.5704,3.5704,3.5955,3.6149,3.6149,3.6458,3.6632,3.6632,3.6342,3.6284,3.6613,3.6323,3.6149,3.6149,3.5858,3.5839,3.6149,3.6149,3.6303,3.6632,3.6303,3.6323,3.6632,3.6303,3.6328,0.0,3.5584,3.5937,3.7429,3.7299,3.7201,3.8748,3.8469,0.0,3.7968,3.8581,3.8897,3.8191,3.8701,3.9519,4.0416,4.121,0.0,0.0,0.0,0.0,0.0,0.0,0.0,0.0,0.0,0.0,0.0,0.0,0.0,0.0,0.0,3.9137,3.9129,3.9137,3.9124,3.9101,3.9129,3.9129,3.9129,3.9137,3.9151,3.9132,3.8621,0.0,0.0,0.0,0.0,0.0,3.5353,3.5012,3.5012,3.4974,3.4954,3.4952,3.4952,3.4997,3.5077,3.5258,3.5192,3.5075,3.535,3.5416,3.5457,3.5637,3.5438,3.5178,3.5371,3.5412,3.5464,3.5656,3.5704,3.5704,3.5704,3.5704,3.5704,3.5704,3.5704,3.5704,3.5704,3.5704,3.5704,3.5704,3.5704,3.5723,3.5781,3.5781,3.58,3.5858,3.6535,3.7,3.7,3.7709,3.8232,3.829,3.7483,3.7348,3.8154,3.7439,3.7,3.7,3.6265,3.6226,3.698,3.7,3.7381,3.8193,3.7386,3.7406,3.8174,3.7367,3.7467,3.5807,0.0,3.6513,3.6904,3.7299,3.7875,0.0,3.8469,3.8061,3.8692,3.8971,3.925,3.9714,4.0139,4.0785,4.2043,4.2571,0.0,0.0,0.0,0.0,0.0,0.0,0.0,0.0,0.0,0.0,0.0,0.0,0.0,0.0,0.0,3.9566,3.9414,3.9555,3.9458,3.9101,3.9311,3.9414,3.9414,3.9566,3.963,3.963,3.9509,0.0,0.0,0.0,0.0,3.7905,3.664,3.6118,3.6077,3.5628,3.5442,3.5449,3.5449,3.5456,3.5463,3.5515,3.5502,3.547,3.559,3.5639,3.5631,3.5698,3.5626,3.5565,3.562,3.5626,3.5631,3.5698,3.5704,3.5704,3.5704,3.5704,3.5704,3.5704,3.5704,3.5704,3.5704,3.5704,3.5704,3.5704,3.5704,3.5916,3.6535,3.6613,3.6864,3.7541,3.7787,3.7883,3.7883,3.8077,3.847,3.9133,3.8392,3.798,3.8193,3.7999,3.7883,3.7883,3.7709,3.769,3.7883,3.7883,3.7999,3.8193,3.798,3.7999,3.8193,3.8028,3.8089,3.5677,3.6686,3.7442,3.8223,3.8711,3.9157,3.9602,3.9045,3.8603,3.9165,3.9285,3.9586,4.054,4.0835,4.143,4.2919,4.3288,0.0,0.0,0.0,0.0,0.0,0.0,0.0,0.0,0.0,0.0,0.0,0.0,0.0,0.0,0.0,3.9742,3.9637,3.9742,3.9675,3.9421,3.9573,3.9644,3.9644,3.9742,3.9808,3.9808,3.9932,0.0,0.0,0.0,0.0,3.8828,3.7709,3.6995,3.6613,3.6273,3.5932,3.5596,3.5596,3.5628,3.5659,3.5659,3.5651,3.5648,3.5684,3.5704,3.5704,3.5704,3.5704,3.5704,3.5704,3.5704,3.5704,3.5704,3.5704,3.5704,3.5704,3.5704,3.5704,3.5704,3.5704,3.58,3.6187,3.6245,3.6381,3.6787,3.6845,3.7,3.7425,3.7497,3.7671,3.8135,3.8547,3.8798,3.8798,3.9146,3.9572,4.0062,3.9649,3.9398,3.9398,3.9011,3.8798,3.8798,3.8411,3.8392,3.8798,3.9185,3.9385,3.9396,3.899,3.9002,3.9381,3.9055,3.911,3.5566,3.6959,3.8395,3.9691,4.0211,4.0416,4.0416,3.9756,3.9293,0.0,0.0,4.0087,4.1272,4.1623,0.0,0.0,0.0,0.0,0.0,0.0,0.0,0.0,0.0,0.0,0.0,0.0,0.0,0.0,0.0,0.0,0.0,0.0,0.0,3.9861,3.9893,3.9903,3.9903,3.9872,3.9851,3.9851,3.9893,3.9903,3.9913,4.0129,4.0251,0.0,0.0,0.0,3.9432,3.8625,3.7855,3.7186,3.7057,3.6593,3.5999,3.5999,3.6029,3.6071,3.6071,3.6071,3.6071,3.6071,3.6071,3.6052,3.5916,3.5974,3.6052,3.5916,3.5781,3.5704,3.5704,3.5704,3.5704,3.5704,3.5704,3.5704,3.5704,3.58,3.6071,3.6767,3.7019,3.7328,3.8077,3.8193,3.8251,3.8392,3.8411,3.845,3.8586,3.9243,3.9694,3.9694,4.0352,4.0797,4.0797,4.0797,4.0797,4.0797,4.012,3.9694,3.9694,3.8992,3.8934,3.9675,4.0429,4.0809,4.0788,4.0059,4.007,4.0776,4.0103,4.0178,3.6909,3.8209,3.8804,3.8395,3.9356,4.0416,4.0416,3.9888,3.9858,0.0,0.0,0.0,0.0,4.3964,0.0,0.0,0.0,0.0,0.0,0.0,0.0,0.0,0.0,0.0,0.0,0.0,0.0,0.0,0.0,0.0,0.0,0.0,0.0,4.0148,4.0302,4.0397,4.0397,4.0223,4.0139,4.0139,4.0302,4.0397,4.0397,4.0449,4.0457,0.0,0.0,4.0407,4.0345,3.954,3.9123,3.8936,3.8246,3.7916,3.78,3.78,3.7806,3.7825,3.7825,3.7825,3.7825,3.7825,3.7825,3.7671,3.6942,3.7232,3.7651,3.6922,3.6226,3.5704,3.5704,3.5704,3.5704,3.5704,3.5704,3.5704,3.5704,3.6245,3.6748,3.6884,3.7497,3.8038,3.8174,3.8193,3.845,3.9191,3.9307,3.9578,4.0313,4.0526,4.0603,4.0603,4.0719,4.0797,4.0797,4.0797,4.0797,4.0797,4.0681,4.0603,4.0603,4.0468,4.0468,4.0603,4.0739,4.0797,4.0803,4.0667,4.0667,4.079,4.0678,4.069,3.6699,3.8154,3.9161,3.9405,4.0697,4.1917,4.1917,4.1468,4.1324,0.0,0.0,0.0,0.0,0.0,0.0,0.0,0.0,0.0,0.0,0.0,0.0,0.0,0.0,0.0,0.0,0.0,0.0,0.0,0.0,0.0,0.0,0.0,0.0,0.0,4.0457,4.0496,4.0496,4.0417,4.0356,4.0356,4.0457,4.0496,4.0496,4.0496,4.0496,4.0496,0.0,4.0603,4.0566,4.0236,3.9844,3.9418,3.9044,3.8605,3.8193,3.8193,3.8193,3.8193,3.8193,3.8193,3.8193,3.8193,3.8193,3.8135,3.7709,3.7883,3.8115,3.7709,3.7348,3.7058,3.7058,3.7058,3.7058,3.7058,3.7058,3.7058,3.7058,3.7348,3.7735,3.8199,3.8624,3.905,3.9514,3.9591,3.9746,4.0139,4.0197,4.0352,4.0758,4.0797,4.0797,4.0797,4.0797,4.0797,4.0797,4.0837,4.0848,4.0797,4.0797,4.0797,4.0797,4.0823,4.0856,4.0856,4.0893,4.0906,4.09,4.09,4.0909,4.0917,4.0906,4.0918,3.6463,3.7875,3.9183,4.0684,4.1987,4.3021,4.3489,4.3005,4.2732,4.3671,0.0,0.0,0.0,0.0,0.0,0.0,0.0,0.0,0.0,0.0,0.0,0.0,0.0,0.0,0.0,0.0,0.0,0.0,0.0,0.0,0.0,0.0,0.0,0.0,4.0496,4.0496,4.0496,4.0496,4.0496,4.0496,4.0496,4.0496,4.0496,4.0496,4.0504,4.0531,4.0588,4.0605,4.0628,4.07,4.0365,3.9791,3.9791,3.9404,3.8818,3.8818,3.8818,3.8818,3.8818,3.8818,3.8818,3.8818,3.8818,3.8779,3.8566,3.8644,3.8779,3.8566,3.8644,3.8721,3.8309,3.8193,3.8193,3.8193,3.8193,3.8193,3.8193,3.8353,3.8702,3.9365,3.9655,4.0023,4.0681,4.0797,4.0797,4.0797,4.0797,4.0797,4.0797,4.0797,4.0797,4.0797,4.0797,4.0809,4.082,4.0883,4.0907,4.0846,4.084,4.084,4.084,4.0903,4.092,4.092,4.0963,4.1,4.0992,4.0992,4.0998,4.1005,4.0972,4.0979,3.7151,3.7894,3.8593,4.1188,4.1911,4.2478,4.4354,4.3686,4.3577,4.6702,0.0,0.0,0.0,0.0,0.0,0.0,0.0,0.0,0.0,0.0,0.0,0.0,0.0,0.0,0.0,0.0,0.0,0.0,0.0,0.0,0.0,0.0,0.0,0.0,0.0,4.0496,4.0496,4.0496,4.0496,4.0496,4.0496,4.0496,4.0496,4.0496,4.0531,4.0588,4.0612,4.0647,4.07,4.0778,4.0752,4.0719,4.0719,4.0681,4.0603,4.0603,4.0603,4.0603,4.0603,4.0603,4.0603,4.0603,4.0603,4.0468,3.9655,3.9965,4.0448,3.9636,3.9984,4.023,3.8624,3.8193,3.8193,3.8193,3.8193,3.8193,3.8193,3.8837,3.9423,3.9481,4.0158,4.0739,4.0797,4.0797,4.0797,4.0797,4.0797,4.0797,4.0797,4.0797,4.0797,4.0797,4.0797,4.0825,4.0888,4.0941,4.0981,4.0997,4.0997,4.0997,4.0997,4.0981,4.0984,4.0984,4.101,4.099,4.0994,4.0994,4.0994,4.0997,4.0933,4.0903,3.6975,3.8282,3.9614,4.184,4.2758,4.3483,4.4794,4.5206,4.5812,4.7587,4.7127,0.0,0.0,0.0,0.0,0.0,0.0,0.0,0.0,0.0,0.0,0.0,0.0,0.0,0.0,0.0,0.0,0.0,0.0,0.0,0.0,0.0,0.0,0.0,0.0,4.0496,4.0496,4.0496,4.0496,4.0496,4.0496,4.0496,4.0496,4.0496,4.0531,4.0607,4.0593,4.0647,4.07,4.0778,4.0797,4.0797,4.0797,4.0797,4.0797,4.0797,4.0797,4.0797,4.0797,4.0797,4.0797,4.0797,4.0797,4.0739,4.041,4.0545,4.0739,4.041,4.0545,4.0661,3.9997,3.9823,3.9823,3.9823,3.9823,3.9823,3.9823,4.0081,4.0313,4.0313,4.0565,4.0797,4.0797,4.0797,4.0797,4.0797,4.0797,4.0797,4.0797,4.0797,4.0827,4.0862,4.1359,4.1918,4.2538,4.26,4.2621,4.2681,4.162,4.1227,4.1734,4.1303,4.1556,4.2592,4.1636,4.1372,4.1861,4.1372,4.1119,4.1119,4.1066,4.1011,3.7227,3.8917,4.0612,4.2277,4.353,4.4591,4.5523,4.633,4.7221,4.8298,4.7855,4.7124,0.0,0.0,0.0,0.0,0.0,0.0,0.0,0.0,0.0,0.0,0.0,0.0,0.0,0.0,0.0,0.0,0.0,0.0,0.0,0.0,0.0,0.0,0.0,4.0496,4.0496,4.0496,4.0496,4.0496,4.0496,4.0496,4.0496,4.0496,4.0531,4.0607,4.0593,4.0647,4.07,4.0778,4.0797,4.0797,4.0797,4.0797,4.0797,4.0797,4.0797,4.0797,4.0797,4.0797,4.0797,4.0797,4.0797,4.0797,4.0797,4.0797,4.0797,4.0797,4.0797,4.0797,4.0797,4.0797,4.0797,4.0797,4.0797,4.0797,4.0797,4.0797,4.0797,4.0797,4.0797,4.0797,4.0797,4.0797,4.0797,4.0797,4.1027,4.1211,4.1211,4.1477,4.1665,4.173,4.2276,4.2895,4.3549,4.3618,4.3647,4.3691,4.254,4.2102,4.2648,4.2186,4.2469,4.3603,4.2557,4.2266,4.2812,4.2266,4.1855,4.1582,4.1522,4.1363,3.8141,3.9832,4.1347,4.2439,4.4009,4.559,4.6637,4.6904,4.7375,4.9048,4.8682,4.7586,4.5922,0.0,0.0,0.0,0.0,0.0,0.0,0.0,0.0,0.0,0.0,0.0,0.0,0.0,0.0,0.0,0.0,0.0,0.0,0.0,0.0,0.0,0.0,0.0,4.0496,4.0496,4.0496,4.0496,4.0496,4.0496,4.0496,4.0496,4.0531,4.0607,4.0593,4.0628,4.07,4.0778,4.0797,4.0797,4.0797,4.0797,4.0797,4.0797,4.0797,4.0797,4.0797,4.0797,4.0797,4.0797,4.0797,4.0797,4.0797,4.0797,4.0797,4.0797,4.0797,4.0797,4.0797,4.0797,4.0797,4.0797,4.0797,4.0797,4.0797,4.0797,4.0797,4.0797,4.0797,4.0797,4.0816,4.0816,4.0816,4.0816,4.1571,4.2107,4.2107,4.2926,4.3497,4.3517,4.3567,4.3611,4.363,4.3688,4.3711,4.3711,4.3711,4.3711,4.3711,4.3691,4.3711,4.3711,4.3711,4.3691,4.3711,4.3691,4.3262,4.2402,4.2419,4.1947,3.8161,3.9842,0.0,4.275,0.0,0.0,0.0,4.6894,0.0,0.0,4.7451,4.6913,0.0,0.0,0.0,0.0,0.0,0.0,0.0,0.0,0.0,0.0,0.0,0.0,0.0,0.0,0.0,0.0,0.0,0.0,0.0,0.0,0.0,0.0,0.0,0.0,4.0496,4.0496,4.0496,4.0496,4.0496,4.0496,4.0496,4.0496,4.0534,4.0593,4.0607,4.0668,4.0778,4.079,4.0797,4.0797,4.0797,4.0797,4.0797,4.0797,4.0797,4.0797,4.0797,4.0797,4.0797,4.0797,4.0797,4.0797,4.0797,4.0797,4.0797,4.0797,4.0797,4.0797,4.0797,4.0797,4.0797,4.0797,4.0797,4.0797,4.0797,4.0797,4.0797,4.0797,4.0848,4.1057,4.163,4.1746,4.1984,4.2611,4.2926,4.3077,4.3077,4.3368,4.3808,4.4415,4.454,4.4822,4.5447,4.5527,4.5527,4.5527,4.5527,4.5254,4.4648,4.4023,4.4277,4.5508,4.4316,4.4004,4.4609,4.4004,4.3574,4.3301,4.3317,4.3177,3.9869,4.1623,0.0,4.3951,4.5105,4.6124,4.6124,0.0,0.0,0.0,0.0,0.0,0.0,0.0,0.0,0.0,0.0,0.0,0.0,0.0,0.0,0.0,0.0,0.0,0.0,0.0,0.0,0.0,0.0,0.0,0.0,0.0,0.0,0.0,0.0,0.0,4.0496,4.0496,4.0496,4.0496,4.0496,4.0496,4.0496,4.0496,4.0519,4.0571,4.06,4.0674,4.0797,4.0797,4.0797,4.0797,4.0797,4.0797,4.0797,4.0797,4.0797,4.0797,4.0797,4.0797,4.0797,4.0797,4.0797,4.0797,4.0797,4.0797,4.0797,4.0797,4.0797,4.0797,4.0797,4.0797,4.0797,4.0797,4.0797,4.0797,4.0797,4.0814,4.0837,4.0803,4.1103,4.1529,4.2024,4.2419,4.2856,4.3416,4.3813,4.4185,4.4553,4.4651,4.4875,4.5402,4.5487,4.5723,4.6269,4.6308,4.6308,4.6308,4.6308,4.6055,4.5547,4.5019,4.5234,4.6289,4.5273,4.498,4.5527,4.498,4.4551,4.4219,4.4215,4.4035,4.2258,4.4143,4.5479,4.5479,4.6144,0.0,4.6778,4.6778,0.0,0.0,0.0,0.0,0.0,0.0,0.0,0.0,0.0,0.0,0.0,0.0,0.0,0.0,0.0,0.0,0.0,0.0,0.0,0.0,0.0,0.0,0.0,0.0,0.0,0.0,0.0,0.0,4.0496,4.0496,4.0496,0.0,4.0496,4.0496,4.0496,4.0496,4.0496,4.0504,4.0586,4.0674,4.079,4.0797,4.0797,4.0797,4.0797,4.0797,4.0797,4.0797,4.0797,4.0797,4.0797,4.0797,4.0797,4.0797,4.0797,4.0797,4.0797,4.0797,4.0797,4.0797,4.0797,4.0797,4.0797,4.0797,4.0797,4.0809,4.0815,4.0834,4.0892,4.0964,4.101,4.105,4.1698,4.2256,4.2343,4.3013,4.3588,4.374,4.4473,4.5342,4.6191,4.6308,4.6308,4.6308,4.6308,4.6308,4.6308,4.6308,4.6308,4.6308,4.6308,4.6308,4.6308,4.6308,4.6308,4.6308,4.6308,4.6308,4.6308,4.6308,4.5898,4.5117,4.5114,4.4681,4.1112,4.2786,0.0,0.0,4.522,4.5874,4.5874,4.5874,0.0,0.0,0.0,0.0,0.0,0.0,0.0,0.0,0.0,0.0,0.0,0.0,0.0,0.0,0.0,0.0,0.0,0.0,0.0,0.0,0.0,0.0,0.0,0.0,0.0,0.0,0.0,4.0496,4.0496,4.0496,4.0496,0.0,4.0496,4.0496,4.0496,4.0496,4.0531,4.058,4.066,4.0694,4.0733,4.0784,4.0797,4.0797,4.0797,4.0797,4.0797,4.0797,4.0797,4.0797,4.0797,4.0797,4.0797,4.0797,4.0797,4.0797,4.0797,4.0797,4.0797,4.0797,4.0797,4.0797,4.0797,4.0797,4.0802,4.0872,4.0873,4.1053,4.1679,4.1874,4.2119,4.279,4.3117,4.3487,4.4172,4.4507,4.4894,4.5581,4.5877,4.6073,4.6269,4.6308,4.6308,4.6308,4.6308,4.6308,4.6308,4.6308,4.6308,4.6308,4.6308,4.6308,4.6308,4.6308,4.6308,4.6308,4.6308,4.6308,4.6308,4.6308,4.6191,4.6016,4.6012,4.5911,4.1893,0.0,0.0,4.487,0.0,4.5654,4.5654,4.5654,0.0,0.0,0.0,0.0,0.0,0.0,0.0,0.0,0.0,0.0,0.0,0.0,0.0,0.0,0.0,0.0,0.0,0.0,0.0,0.0,0.0,0.0,0.0,0.0,0.0,0.0,4.0496,4.0496,4.0496,4.0496,4.0496,4.0496,4.0496,4.0496,4.0496,4.0496,4.0531,4.0588,4.0633,4.0668,4.07,4.0778,4.0797,4.0797,4.0797,4.0797,4.0797,4.0797,4.0797,4.0797,4.0797,4.0797,4.0797,4.0797,4.0797,4.0797,4.0797,4.0797,4.0797,4.0797,4.0797,4.0797,4.0797,4.1116,4.1429,4.1466,4.1475,4.1606,4.2042,4.252,4.3005,4.3425,4.3892,4.4371,4.4821,4.5308,4.5781,4.623,4.6308,4.6308,4.6308,4.6308,4.6308,4.6308,4.6308,4.6308,4.6308,4.6308,4.6308,4.6308,4.6308,4.6308,4.6308,4.6308,4.6308,4.6308,4.6308,4.6308,4.6308,4.6308,4.6308,4.6308,4.6305,4.6301,4.2266,4.366,4.4369,4.5431,4.5703,0.0,4.5708,0.0,0.0,0.0,0.0,0.0,0.0,0.0,0.0,0.0,0.0,0.0,0.0,0.0,0.0,0.0,0.0,0.0,0.0,0.0,0.0,0.0,0.0,0.0,0.0,0.0,4.0496,4.0496,4.0496,4.0496,4.0496,4.0496,4.0496,4.0496,4.0496,4.0496,4.0496,4.0496,4.0531,4.058,4.0593,4.0628,4.0694,4.0778,4.0797,4.0797,4.0797,4.0797,4.0797,4.0797,4.0797,4.0797,4.0797,4.0797,4.0797,4.0797,4.0797,4.0797,4.0797,4.0797,4.0803,4.0802,4.0827,4.0814,4.0837,4.148,4.2114,4.2131,4.2369,4.2603,4.2643,4.3281,4.3865,4.3965,4.4612,4.5138,4.5141,4.5798,4.6308,4.6308,4.6308,4.6308,4.6308,4.6308,4.6308,4.6308,4.6308,4.6308,4.6308,4.6308,4.6308,4.6308,4.6308,4.6308,4.6308,4.6308,4.6308,4.6308,4.6308,4.6308,4.6308,4.6308,4.6308,4.6308,4.6306,4.6302,3.8698,0.0,4.3728,0.0,4.57,4.5708,0.0,0.0,0.0,0.0,0.0,0.0,0.0,0.0,0.0,0.0,0.0,0.0,0.0,0.0,0.0,0.0,0.0,0.0,0.0,0.0,0.0,0.0,0.0,0.0,0.0,4.0496,4.0496,4.0496,4.0496,4.0496,4.0496,4.0496,4.0496,4.0496,4.0496,4.0496,4.0496,4.0496,4.0496,4.0523,4.0559,4.0614,4.0621,4.0752,4.0797,4.0797,4.0797,4.0797,4.0797,4.0797,4.0797,4.0797,4.0797,4.0797,4.0797,4.0797,4.0797,4.0797,4.0797,4.0797,4.0821,4.0863,4.0888,4.0907,4.0964,4.1578,4.2208,4.2258,4.342,4.4536,4.4541,4.4679,4.5038,4.578,4.6034,4.6113,4.6113,4.6211,4.6308,4.6308,4.6308,4.6308,4.6308,4.6308,4.6308,4.6308,4.6308,4.6308,4.6308,4.6308,4.6308,4.6308,4.6308,4.6308,4.6308,4.6308,4.6308,4.6308,4.6308,4.6308,4.6308,4.6308,4.6308,4.6308,4.6307,4.6305,3.8204,4.1268,4.4109,0.0,4.5387,4.5757,4.5757,0.0,0.0,0.0,0.0,0.0,0.0,0.0,0.0,0.0,0.0,0.0,0.0,0.0,0.0,0.0,0.0,0.0,0.0,0.0,0.0,0.0,0.0,0.0,4.0496,4.0496,4.0496,4.0496,4.0496,4.0496,4.0496,4.0496,4.0496,4.0496,4.0496,4.0496,4.0496,4.0496,4.0496,4.0496,4.0579,4.0595,4.0614,4.0746,4.0797,4.0797,4.0797,4.0797,4.0797,4.0797,4.0797,4.0797,4.0797,4.0797,4.0797,4.0797,4.0797,4.0797,4.0797,4.0825,4.0964,4.1446,4.1594,4.1754,4.2276,4.3053,4.3726,4.3743,4.4735,4.568,4.568,4.5702,4.584,4.623,4.6308,4.6308,4.6308,4.6308,4.6308,4.6308,4.6308,4.6308,4.6308,4.6308,4.6308,4.6308,4.6308,4.6308,4.6308,4.6308,4.6308,4.6308,4.6308,4.6308,4.6308,4.6308,4.6308,4.6308,4.6308,4.6308,4.6308,4.6308,4.6308,4.6308,4.6306,4.6302,0.0,0.0,4.3431,4.43,4.5179,4.5807,0.0,0.0,0.0,0.0,0.0,0.0,0.0,0.0,0.0,0.0,0.0,0.0,0.0,0.0,0.0,0.0,0.0,0.0,0.0,0.0,0.0,0.0,0.0,0.0,4.0496,4.0496,4.0496,4.0496,4.0496,4.0496,4.0496,4.0496,4.0496,4.0496,4.0496,4.0496,4.0496,4.0496,4.0496,4.0496,4.0564,4.0593,4.06,4.0733,4.0759,4.0784,4.079,4.0797,4.0797,4.0797,4.0797,4.0797,4.0797,4.0797,4.0797,4.0797,4.0957,4.1141,4.1141,4.1334,4.1695,4.2303,4.2526,4.2702,4.338,4.4229,4.493,4.493,4.5622,4.6308,4.6308,4.6308,4.6308,4.6308,4.6308,4.6308,4.6308,4.6308,4.6308,4.6308,4.6308,4.6308,4.6308,4.6308,4.6308,4.6308,4.6308,4.6308,4.6308,4.6308,4.6308,4.6308,4.6308,4.6308,4.6308,4.6308,4.6308,4.6308,4.6308,4.6308,4.6308,4.6308,4.6308,4.6307,4.6305,4.6301,0.0,3.9561,0.0,4.3782,4.52,0.0,0.0,0.0,0.0,0.0,0.0,0.0,0.0,0.0,0.0,0.0,0.0,0.0,0.0,0.0,0.0,0.0,0.0,0.0,0.0,0.0,0.0,0.0,0.0,0.0,4.0496,4.0496,4.0496,4.0496,4.0496,4.0496,4.0496,4.0496,4.0496,4.0496,4.0496,4.0496,4.0496,4.0496,4.0496,4.0496,4.0573,4.0588,4.0615,4.0673,4.07,4.0707,4.0784,4.0797,4.0797,4.0797,4.0797,4.0797,4.0797,4.0797,4.0797,4.0797,4.1369,4.2039,4.2039,4.2649,4.3386,4.3498,4.3528,4.3555,4.3651,4.4336,4.498,4.498,4.5664,4.6308,4.6308,4.6308,4.6308,4.6308,4.6308,4.6308,4.6308,4.6308,4.6308,4.6308,4.6308,4.6308,4.6308,4.6308,4.6308,4.6308,4.6308,4.6308,4.6308,4.6308,4.6308,4.6308,4.6308,4.6308,4.6308,4.6308,4.6308,4.6308,4.6308,4.6308,4.6308,4.6308,4.6308,4.6308,4.6307,4.6305,0.0,0.0,0.0,4.1158,4.2807,4.4411,0.0,0.0,0.0,0.0,0.0,0.0,0.0,0.0,0.0,0.0,0.0,0.0,0.0,0.0,0.0,0.0,0.0,0.0,0.0,0.0,0.0,0.0,0.0,0.0,3.9727,3.92,3.9142,3.9708,3.9727,3.9977,4.0496,4.0496,4.0496,4.0496,4.0496,4.0496,4.0496,4.0496,4.0496,4.0496,4.0531,4.0565,4.0615,4.0666,4.07,4.07,4.0759,4.0797,4.0797,4.0797,4.0797,4.0797,4.0797,4.116,4.1639,4.1639,4.2256,4.2992,4.2992,4.3256,4.3691,4.4271,4.4462,4.4627,4.5215,4.5605,4.582,4.582,4.6074,4.6308,4.6308,4.6308,4.6308,4.6308,4.6308,4.6308,4.6308,4.6308,4.6308,4.6308,4.6308,4.6308,4.6308,4.6308,4.6308,4.6308,4.6308,4.6308,4.6308,4.6308,4.6308,4.6308,4.6308,4.6308,4.6308,4.6308,4.6308,4.6308,4.6308,4.6308,4.6308,4.6308,4.6308,4.6308,4.6305,4.6301,3.4609,0.0,0.0,0.0,0.0,0.0,0.0,0.0,0.0,0.0,0.0,0.0,0.0,0.0,0.0,0.0,0.0,0.0,0.0,0.0,0.0,0.0,0.0,0.0,0.0,0.0,0.0,0.0,0.0,0.0,3.9688,3.8892,3.8834,3.9688,3.9438,3.9688,4.0496,4.0227,4.0227,4.0496,4.0496,4.0496,4.0496,4.0496,4.0496,4.0496,4.0496,4.0531,4.0573,4.0633,4.0661,4.0687,4.0778,4.0797,4.0797,4.0797,4.0802,4.0876,4.1133,4.164,4.219,4.2466,4.3205,4.3977,4.3977,4.4225,4.4639,4.5205,4.5407,4.5566,4.6152,4.6308,4.6308,4.6308,4.6308,4.6308,4.6308,4.6308,4.6308,4.6308,4.6308,4.6308,4.6308,4.6308,4.6308,4.6308,4.6308,4.6308,4.6308,4.6308,4.6308,4.6308,4.6308,4.6308,4.6308,4.6308,4.6308,4.6308,4.6308,4.6308,4.6308,4.6308,4.6308,4.6308,4.6308,4.6308,4.6308,4.6308,4.6308,4.6308,4.6304,4.6297,0.0,0.0,0.0,0.0,0.0,0.0,0.0,0.0,0.0,0.0,0.0,0.0,0.0,0.0,0.0,0.0,0.0,0.0,0.0,0.0,0.0,0.0,0.0,0.0,0.0,0.0,0.0,0.0,0.0,3.9711,4.0419,3.9727,3.9669,4.0439,3.9727,3.9708,4.0496,3.9727,3.9727,4.0496,4.0496,4.0496,4.0496,4.0496,4.0496,4.0496,4.0496,4.0496,4.0504,4.0579,4.0595,4.0621,4.0746,4.0797,4.0797,4.0797,4.0854,4.1043,4.183,4.2187,4.2422,4.3266,4.4185,4.494,4.494,4.558,4.6308,4.6308,4.6308,4.6308,4.6308,4.6308,4.6308,4.6308,4.6308,4.6308,4.6308,4.6308,4.6308,4.6308,4.6308,4.6308,4.6308,4.6308,4.6308,4.6308,4.6308,4.6308,4.6308,4.6308,4.6308,4.6308,4.6308,4.6308,4.6308,4.6308,4.6308,4.6308,4.6308,4.6308,4.6308,4.6308,4.6308,4.6308,4.6308,4.6308,4.6308,4.6308,4.6308,4.6308,4.6305,4.6295,3.3518,0.0,0.0,0.0,0.0,0.0,0.0,0.0,0.0,0.0,0.0,0.0,0.0,0.0,0.0,0.0,0.0,0.0,0.0,0.0,0.0,0.0,0.0,0.0,0.0,0.0,0.0,0.0,3.9842,3.946,3.9611,3.9419,3.94,3.9631,3.9977,4.0265,4.0496,4.0285,4.0285,4.0496,4.0496,4.0496,4.0496,4.0496,4.0496,4.0496,4.0496,4.0496,4.0516,4.0569,4.0605,4.0614,4.07,4.0752,4.0797,4.0797,4.1208,4.1791,4.2029,4.3006,4.4181,4.4436,4.5141,4.5916,4.5916,4.6093,4.6308,4.6308,4.6308,4.6308,4.6308,4.6308,4.6308,4.6308,4.6308,4.6308,4.6308,4.6308,4.6308,4.6308,4.6308,4.6308,4.6308,4.6308,4.6308,4.6308,4.6308,4.6308,4.6308,4.6308,4.6308,4.6308,4.6308,4.6308,4.6308,4.6308,4.6308,4.6308,4.6308,4.6308,4.6308,4.6308,4.6308,4.6308,4.6308,4.6308,4.6308,4.6308,4.6308,4.6308,4.6305,4.6295,3.3282,3.5207,0.0,0.0,0.0,0.0,0.0,0.0,0.0,0.0,0.0,0.0,0.0,0.0,0.0,0.0,0.0,0.0,0.0,0.0,0.0,0.0,0.0,0.0,0.0,0.0,0.0,0.0,3.9868,3.9364,3.9304,3.9631,3.9804,3.9804,3.9938,4.0169,4.0496,4.0169,4.0169,4.0496,4.0496,4.0496,4.0496,4.0496,4.0496,4.0496,4.0496,4.0496,4.0504,4.0605,4.064,4.0614,4.0707,4.0778,4.0803,4.0837,4.1393,4.2206,4.259,4.37,4.4992,4.5364,4.5857,4.6308,4.6308,4.6308,4.6308,4.6308,4.6308,4.6308,4.6308,4.6308,4.6308,4.6308,4.6308,4.6308,4.6308,4.6308,4.6308,4.6308,4.6308,4.6308,4.6308,4.6308,4.6308,4.6308,4.6308,4.6308,4.6308,4.6308,4.6308,4.6308,4.6308,4.6308,4.6308,4.6308,4.6308,4.6308,4.6308,4.6308,4.6308,4.6308,4.6308,4.6308,4.6308,4.6308,4.6308,4.6308,4.6308,4.6307,4.6304,4.6295,3.3641,3.5027,0.0,0.0,0.0,0.0,4.0228,4.1706,0.0,0.0,0.0,0.0,0.0,0.0,0.0,0.0,0.0,0.0,0.0,0.0,0.0,0.0,0.0,0.0,0.0,0.0,4.0778,4.07,3.9972,3.9492,3.9438,4.0112,4.0496,4.0496,3.9804,3.9785,4.0496,3.9785,3.9785,4.0496,4.0496,4.0496,4.0496,4.0496,4.0496,4.0496,4.0512,4.0519,4.0534,4.0668,4.0687,4.0622,4.0758,4.0814,4.0831,4.099,4.1607,4.2499,4.3423,4.4368,4.5273,4.6055,4.6308,4.6308,4.6308,4.6308,4.6308,4.6308,4.6308,4.6308,4.6308,4.6308,4.6308,4.6308,4.6308,4.6308,4.6308,4.6308,4.6308,4.6308,4.6308,4.6308,4.6308,4.6308,4.6308,4.6308,4.6308,4.6308,4.6308,4.6308,4.6308,4.6308,4.6308,4.6308,4.6308,4.6308,4.6308,4.6308,4.6308,4.6308,4.6308,4.6308,4.6308,4.6308,4.6308,4.6308,4.6308,4.6308,4.6307,4.6301,4.6301,4.6295,0.0,0.0,0.0,0.0,0.0,0.0,0.0,3.8936,0.0,0.0,0.0,0.0,0.0,0.0,0.0,0.0,0.0,0.0,0.0,0.0,0.0,0.0,0.0,0.0,0.0,0.0,4.0778,4.07,4.0484,4.033,4.0265,4.0419,4.0496,4.0496,4.0342,4.0342,4.0496,4.0342,4.0342,4.0496,4.0496,4.0496,4.0496,4.0496,4.0496,4.0504,4.0609,4.0655,4.0675,4.0801,4.0786,4.0688,4.0825,4.0921,4.105,4.1691,4.2521,4.3445,4.4332,4.5266,4.6074,4.623,4.6308,4.6308,4.6308,4.6308,4.6308,4.6308,4.6308,4.6308,4.6308,4.6308,4.6308,4.6308,4.6308,4.6308,4.6308,4.6308,4.6308,4.6308,4.6308,4.6308,4.6308,4.6308,4.6308,4.6308,4.6308,4.6308,4.6308,4.6308,4.6308,4.6308,4.6308,4.6308,4.6308,4.6308,4.6308,4.6308,4.6308,4.6308,4.6308,4.6308,4.6308,4.6308,4.6308,4.6308,4.6308,4.6308,4.6306,4.6301,4.6297,4.629,0.0,0.0,0.0,3.8007,0.0,0.0,0.0,0.0,0.0,0.0,0.0,0.0,0.0,0.0,0.0,0.0,0.0,0.0,0.0,0.0,0.0,0.0,0.0,0.0,0.0,0.0,4.0752,4.0661,4.0619,4.0576,4.0496,4.0496,4.0496,4.0496,4.0496,4.0496,4.0496,4.0496,4.0496,4.0496,4.0496,4.0496,4.0496,4.0496,4.0542,4.0595,4.0668,4.0711,4.0759,4.0898,4.0921,4.0867,4.0914,4.0951,4.1065,4.1925,4.2813,4.3729,4.464,4.5545,4.6308,4.6308,4.6308,4.6308,4.6308,4.6308,4.6308,4.6308,4.6308,4.6308,4.6308,4.6308,4.6308,4.6308,4.6308,4.6308,4.6308,4.6308,4.6308,4.6308,4.6308,4.6308,4.6308,4.6308,4.6308,4.6308,4.6308,4.6308,4.6308,4.6308,4.6308,4.6308,4.6308,4.6308,4.6308,4.6308,4.6308,4.6308,4.6308,4.6308,4.6308,4.6308,4.6308,4.6308,4.6308,4.6308,4.6308,4.6307,4.6304,4.6301,4.6296,4.6308,0.0,0.0,0.0,0.0,0.0,3.9176,0.0,0.0,0.0,3.9501,0.0,0.0,0.0,0.0,0.0,0.0,0.0,0.0,0.0,0.0,0.0,0.0,0.0,0.0,0.0,0.0,4.0758,4.0628,4.0629,4.0602,4.0527,4.0512,4.0523,4.0523,4.0516,4.0496,4.0496,4.0496,4.0496,4.0496,4.0527,4.0542,4.0542,4.0552,4.061,4.0717,4.0759,4.078,4.0846,4.0967,4.1015,4.1013,4.1025,4.0998,4.1073,4.216,4.3012,4.3777,4.4863,4.5703,4.6308,4.6308,4.6308,4.6308,4.6308,4.6308,4.6308,4.6308,4.6308,4.6308,4.6308,4.6308,4.6308,4.6308,4.6308,4.6308,4.6308,4.6308,4.6308,4.6308,4.6308,4.6308,4.6308,4.6308,4.6308,4.6308,4.6308,4.6308,4.6308,4.6308,4.6308,4.6308,4.6308,4.6308,4.6308,4.6308,4.6308,4.6308,4.6308,4.6308,4.6308,4.6308,4.6308,4.6308,4.6308,4.6308,4.6308,4.6306,4.6302,4.6301,4.6295,4.6306,0.0,0.0,0.0,0.0,3.853,0.0,0.0,0.0,3.6713,3.5233,0.0,0.0,0.0,0.0,0.0,0.0,0.0,0.0,0.0,0.0,0.0,0.0,0.0,0.0,0.0,0.0,0.0,4.0707,4.0742,4.0723,4.0607,4.0583,4.058,4.058,4.0531,4.0496,4.0496,4.0496,4.0496,4.0496,4.0615,4.0675,4.0675,4.0749,4.0762,4.0796,4.0918,4.097,4.0987,4.1067,4.1081,4.1095,4.1085,4.1087,4.1283,4.2929,4.3593,4.3925,4.5586,4.6211,4.6308,4.6308,4.6308,4.6308,4.6308,4.6308,4.6308,4.6308,4.6308,4.6308,4.6308,4.6308,4.6308,4.6308,4.6308,4.6308,4.6308,4.6308,4.6308,4.6308,4.6308,4.6308,4.6308,4.6308,4.6308,4.6308,4.6308,4.6308,4.6308,4.6308,4.6308,4.6308,4.6308,4.6308,4.6308,4.6308,4.6308,4.6308,4.6308,4.6308,4.6308,4.6308,4.6308,4.6308,4.6308,4.6308,4.6308,4.6307,4.6305,4.6301,4.6309,4.6302,0.0,0.0,0.0,0.0,0.0,0.0,0.0,0.0,3.6507,0.0,0.0,0.0,0.0,0.0,0.0,0.0,0.0,0.0,0.0,0.0,0.0,0.0,0.0,0.0,0.0,0.0,0.0,0.0,0.0,4.0746,4.0602,4.0593,4.0591,4.0607,4.0573,4.0539,4.0496,4.0496,4.0542,4.0628,4.0588,4.0643,4.0759,4.0743,4.0806,4.0929,4.0977,4.1014,4.1066,4.1099,4.1104,4.11,4.1131,4.1132,4.1307,4.3066,4.3691,4.3945,4.5703,4.6308,4.6308,4.6308,4.6308,4.6308,4.6308,4.6308,4.6308,4.6308,4.6308,4.6308,4.6308,4.6308,4.6308,4.6308,4.6308,4.6308,4.6308,4.6308,4.6308,4.6308,4.6308,4.6308,4.6308,4.6308,4.6308,4.6308,4.6308,4.6308,4.6308,4.6308,4.6308,4.6308,4.6308,4.6308,4.6308,4.6308,4.6308,4.6308,4.6308,4.6308,4.6308,4.6308,4.6308,4.6308,4.6308,4.6308,4.6308,4.6308,4.6305,4.6301,4.6293,4.6305,3.4587,0.0,0.0,0.0,0.0,0.0,0.0,0.0,0.0,0.0,0.0,0.0,0.0,0.0,0.0,0.0,0.0,0.0,0.0,0.0,0.0,0.0,0.0,0.0,0.0,0.0,0.0,0.0,0.0,0.0,4.0655,4.0628,4.0626,4.0603,4.0603,4.0588,4.0531,4.0545,4.0603,4.0705,4.0661,4.071,4.0848,4.0824,4.0898,4.103,4.103,4.1051,4.1097,4.1106,4.1107,4.1104,4.1171,4.1172,4.1347,4.3066,4.3848,4.4277,4.5781,4.6308,4.6308,4.6308,4.6308,4.6308,4.6308,4.6308,4.6308,4.6308,4.6308,4.6308,4.6308,4.6308,4.6308,4.6308,4.6308,4.6308,4.6308,4.6308,4.6308,4.6308,4.6308,4.6308,4.6308,4.6308,4.6308,4.6308,4.6308,4.6308,4.6308,4.6308,4.6308,4.6308,4.6308,4.6308,4.6308,4.6308,4.6308,4.6308,4.6308,4.6308,4.6308,4.6308,4.6308,4.6308,4.6308,4.6308,4.6308,4.6308,4.6306,4.6301,4.6296,4.6308,0.0,0.0,0.0,3.4959,0.0,0.0,0.0,0.0,3.62,0.0,0.0,0.0,0.0,0.0,0.0,3.5361,0.0,0.0,0.0,0.0,0.0,0.0,0.0,0.0,0.0,0.0,0.0,0.0,0.0,0.0,4.0803,4.0739,4.0661,4.0595,4.0588,4.0612,4.0607,4.0661,4.0704,4.071,4.0896,4.0994,4.0998,4.1055,4.1086,4.1106,4.1106,4.1106,4.1107,4.1091,4.1092,4.1111,4.1172,4.1191,4.1406,4.3086,4.4238,4.5098,4.5996,4.6308,4.6308,4.6308,4.6308,4.6308,4.6308,4.6308,4.6308,4.6308,4.6308,4.6308,4.6308,4.6308,4.6308,4.6308,4.6308,4.6308,4.6308,4.6308,4.6308,4.6308,4.6308,4.6308,4.6308,4.6308,4.6308,4.6308,4.6308,4.6308,4.6308,4.6308,4.6308,4.6308,4.6308,4.6308,4.6308,4.6308,4.6308,4.6308,4.6308,4.6308,4.6308,4.6308,4.6308,4.6308,4.6308,4.6308,4.6308,4.6308,4.6307,4.6301,4.6296,4.6308,0.0,0.0,3.5829,3.4656,0.0,0.0,0.0,0.0,0.0,0.0,0.0,0.0,0.0,0.0,3.5328,3.6155,3.5149,0.0,0.0,0.0,0.0,0.0,0.0,0.0,0.0,0.0,0.0,0.0,0.0,0.0,0.0,4.1287,4.13,4.068,4.0661,4.0668,4.0667,4.0682,4.0762,4.0899,4.088,4.0944,4.1077,4.1048,4.1054,4.1107,4.1107,4.1107,4.1108,4.1091,4.1092,4.1112,4.1172,4.1523,4.2129,4.3281,4.3887,4.4355,4.5801,4.6308,4.6308,4.6308,4.6308,4.6308,4.6308,4.6308,4.6308,4.6308,4.6308,4.6308,4.6308,4.6308,4.6308,4.6308,4.6308,4.6308,4.6308,4.6308,4.6308,4.6308,4.6308,4.6308,4.6308,4.6308,4.6308,4.6308,4.6308,4.6308,4.6308,4.6308,4.6308,4.6308,4.6308,4.6308,4.6308,4.6308,4.6308,4.6308,4.6308,4.6308,4.6308,4.6308,4.6308,4.6308,4.6308,4.6308,4.6308,4.6308,4.6308,4.6301,4.63,4.6294,3.396,3.4692,0.0,3.4382,3.4353,0.0,3.4472,0.0,0.0,0.0,0.0,0.0,0.0,0.0,0.0,3.6192,3.5103,3.4693,0.0,0.0,0.0,0.0,0.0,0.0,0.0,0.0,4.0961,4.0893,0.0,0.0,0.0,0.0,4.2104,4.1241,4.1216,4.1071,4.0762,4.0827,4.0919,4.1033,4.0976,4.1002,4.113,4.1099,4.1081,4.113,4.113,4.113,4.113,4.1132,4.1132,4.1132,4.1172,4.1523,4.2109,4.3262,4.4082,4.4785,4.5918,4.6308,4.6308,4.6308,4.6308,4.6308,4.6308,4.6308,4.6308,4.6308,4.6308,4.6308,4.6308,4.6308,4.6308,4.6308,4.6308,4.6308,4.6308,4.6308,4.6308,4.6308,4.6308,4.6308,4.6308,4.6308,4.6308,4.6308,4.6308,4.6308,4.6308,4.6308,4.6308,4.6308,4.6308,4.6308,4.6308,4.6308,4.6308,4.6308,4.6308,4.6308,4.6308,4.6308,4.6308,4.6308,4.6308,4.6308,4.6308,4.6308,4.6308,4.6301,4.6301,4.6295]}]]